[[{"header":{"parameterUnit":"m.s-1","parameterCategory":1,"la1":30.6,"la2":29.2853,"lo1":-89.7004,"lo2":-87.6739,"dy":0.0162,"dx":0.0183,"nx":112,"ny":82,"refTime":"2024-05-24T06:00:00:Z","depth":0,"parameterNumber":2,"parameterNumberName":"U-component_of_WINDS"},"data":[0.0,0.0,0.0,0.0,0.0,0.0,0.0,0.0,0.0,0.0,0.0,0.0,0.0,0.0,0.0,0.0,0.0,0.0,0.0,0.0,0.0,0.0,0.0,0.0,0.0,0.0,0.0,0.0,0.0,0.0,0.0,0.0,0.0,0.0,0.0,0.0,0.0,0.0,0.0,0.0,0.0,0.0,0.0,0.0,0.0,0.0,0.0,0.0,0.0,0.0,0.0,0.0,0.0,0.0,0.0,0.0,0.0,0.0,0.0,0.0,0.0,0.0,0.0,0.0,0.0,0.0,0.0,0.0,0.0,0.0,0.0,0.0,0.0,0.0,0.0,0.0,0.0,0.0,0.0,0.0,0.0,0.0,0.0,0.0,0.0,0.0,0.0,0.0,0.0,0.0,-5.5179,-5.7165,-5.93,-6.0142,-5.901,-5.8233,-5.6011,-5.1776,0.0,0.0,0.0,0.0,0.0,0.0,0.0,0.0,0.0,0.0,0.0,0.0,0.0,0.0,0.0,0.0,0.0,0.0,0.0,0.0,0.0,0.0,0.0,0.0,0.0,0.0,0.0,0.0,0.0,0.0,0.0,0.0,0.0,0.0,0.0,0.0,0.0,0.0,0.0,0.0,0.0,0.0,0.0,0.0,0.0,0.0,0.0,0.0,0.0,0.0,0.0,0.0,0.0,0.0,0.0,0.0,0.0,0.0,0.0,0.0,0.0,0.0,0.0,0.0,0.0,0.0,0.0,0.0,0.0,0.0,0.0,0.0,0.0,0.0,0.0,0.0,0.0,0.0,0.0,0.0,0.0,0.0,0.0,0.0,0.0,0.0,0.0,0.0,0.0,0.0,0.0,0.0,0.0,0.0,0.0,0.0,0.0,0.0,0.0,0.0,0.0,0.0,0.0,0.0,-5.5305,-5.8758,-5.9473,-5.9489,-5.8953,-5.7168,-5.4769,-5.1683,0.0,0.0,0.0,0.0,0.0,0.0,0.0,0.0,0.0,0.0,0.0,0.0,0.0,0.0,0.0,0.0,0.0,0.0,0.0,0.0,0.0,0.0,0.0,0.0,0.0,0.0,0.0,0.0,0.0,0.0,0.0,0.0,0.0,0.0,0.0,0.0,0.0,0.0,0.0,0.0,0.0,0.0,0.0,0.0,0.0,0.0,0.0,0.0,0.0,0.0,0.0,0.0,0.0,0.0,0.0,0.0,0.0,0.0,0.0,0.0,0.0,0.0,0.0,0.0,0.0,0.0,0.0,0.0,0.0,0.0,0.0,0.0,0.0,0.0,0.0,0.0,0.0,0.0,0.0,0.0,0.0,0.0,0.0,0.0,0.0,0.0,0.0,0.0,0.0,0.0,0.0,0.0,0.0,0.0,0.0,0.0,0.0,0.0,0.0,0.0,0.0,0.0,0.0,-5.4556,-5.6414,-5.8615,-5.9043,-5.8626,-5.7282,-5.6059,-5.3645,-4.9578,-4.7965,0.0,0.0,0.0,0.0,0.0,0.0,0.0,0.0,0.0,0.0,0.0,0.0,0.0,0.0,0.0,0.0,0.0,0.0,0.0,0.0,0.0,0.0,0.0,0.0,0.0,0.0,0.0,0.0,0.0,0.0,0.0,0.0,0.0,0.0,0.0,0.0,0.0,0.0,0.0,0.0,0.0,0.0,0.0,0.0,0.0,0.0,0.0,0.0,0.0,0.0,0.0,0.0,0.0,0.0,0.0,0.0,0.0,0.0,0.0,0.0,0.0,0.0,0.0,0.0,0.0,0.0,0.0,0.0,0.0,0.0,0.0,0.0,0.0,0.0,0.0,0.0,0.0,0.0,0.0,0.0,0.0,0.0,0.0,0.0,0.0,0.0,0.0,0.0,0.0,0.0,0.0,0.0,0.0,0.0,0.0,0.0,0.0,0.0,0.0,0.0,0.0,0.0,-5.5862,-5.7057,-5.8031,-5.8135,-5.7438,-5.5704,-5.4741,-5.2305,-4.7772,-4.6592,0.0,0.0,0.0,0.0,0.0,0.0,0.0,0.0,0.0,0.0,0.0,0.0,0.0,0.0,0.0,0.0,0.0,0.0,0.0,0.0,0.0,0.0,0.0,0.0,0.0,0.0,0.0,0.0,0.0,0.0,0.0,0.0,0.0,0.0,0.0,0.0,0.0,0.0,0.0,0.0,0.0,0.0,0.0,0.0,0.0,0.0,0.0,0.0,0.0,0.0,0.0,0.0,0.0,0.0,0.0,0.0,0.0,0.0,0.0,0.0,0.0,0.0,0.0,0.0,0.0,0.0,0.0,0.0,0.0,0.0,0.0,0.0,0.0,0.0,0.0,0.0,0.0,0.0,0.0,0.0,0.0,0.0,0.0,0.0,0.0,0.0,0.0,0.0,0.0,0.0,0.0,0.0,0.0,0.0,0.0,0.0,0.0,0.0,0.0,0.0,0.0,0.0,-5.4817,-5.6262,-5.7524,-5.6607,-5.5706,-5.5193,-5.2993,-5.0472,-4.7681,-4.5529,0.0,0.0,0.0,0.0,0.0,0.0,0.0,0.0,0.0,0.0,0.0,0.0,0.0,0.0,0.0,0.0,0.0,0.0,0.0,0.0,0.0,0.0,0.0,0.0,0.0,0.0,0.0,0.0,0.0,0.0,0.0,0.0,0.0,0.0,0.0,0.0,0.0,0.0,0.0,0.0,0.0,0.0,0.0,0.0,0.0,0.0,0.0,0.0,0.0,0.0,0.0,0.0,0.0,0.0,0.0,0.0,0.0,0.0,0.0,0.0,0.0,0.0,0.0,0.0,0.0,0.0,0.0,0.0,0.0,0.0,0.0,0.0,0.0,0.0,0.0,0.0,0.0,0.0,0.0,0.0,0.0,0.0,0.0,0.0,0.0,0.0,0.0,0.0,0.0,0.0,0.0,0.0,0.0,0.0,0.0,0.0,0.0,0.0,0.0,0.0,0.0,0.0,-5.3806,-5.5338,-5.6323,-5.5764,-5.5041,-5.4354,-5.2752,-5.0389,-4.7125,0.0,0.0,0.0,0.0,0.0,0.0,0.0,0.0,0.0,0.0,0.0,0.0,0.0,0.0,0.0,0.0,0.0,0.0,0.0,0.0,0.0,0.0,0.0,0.0,0.0,0.0,0.0,0.0,0.0,0.0,0.0,0.0,0.0,0.0,0.0,0.0,0.0,0.0,0.0,0.0,0.0,0.0,0.0,0.0,0.0,0.0,0.0,0.0,0.0,0.0,0.0,0.0,0.0,0.0,0.0,0.0,0.0,0.0,0.0,0.0,0.0,0.0,0.0,0.0,0.0,0.0,0.0,0.0,0.0,0.0,0.0,0.0,0.0,0.0,0.0,0.0,0.0,0.0,0.0,0.0,0.0,0.0,0.0,0.0,0.0,0.0,0.0,0.0,0.0,0.0,0.0,0.0,0.0,0.0,0.0,0.0,0.0,0.0,0.0,0.0,0.0,0.0,-5.0811,-5.2837,-5.4343,-5.5021,-5.4745,-5.4163,-5.329,-5.1997,-4.9768,-4.6433,0.0,0.0,0.0,0.0,0.0,0.0,0.0,0.0,0.0,0.0,0.0,0.0,0.0,0.0,0.0,0.0,0.0,0.0,0.0,0.0,0.0,0.0,0.0,0.0,0.0,0.0,0.0,0.0,0.0,0.0,0.0,0.0,0.0,0.0,0.0,0.0,0.0,0.0,0.0,0.0,0.0,0.0,0.0,0.0,0.0,0.0,0.0,0.0,0.0,0.0,0.0,0.0,0.0,0.0,0.0,0.0,0.0,0.0,0.0,0.0,0.0,0.0,0.0,0.0,0.0,0.0,0.0,0.0,0.0,0.0,0.0,0.0,0.0,0.0,0.0,0.0,0.0,0.0,0.0,0.0,0.0,0.0,0.0,0.0,0.0,0.0,0.0,0.0,0.0,0.0,0.0,0.0,0.0,0.0,0.0,0.0,0.0,0.0,0.0,0.0,0.0,0.0,-4.9998,-5.193,-5.3341,-5.3721,-5.3405,-5.2858,-5.205,-5.0435,-4.833,0.0,0.0,0.0,0.0,0.0,0.0,0.0,0.0,0.0,0.0,0.0,0.0,0.0,0.0,0.0,0.0,0.0,0.0,0.0,0.0,0.0,0.0,0.0,0.0,0.0,0.0,0.0,0.0,0.0,0.0,0.0,0.0,0.0,0.0,0.0,0.0,0.0,0.0,0.0,0.0,0.0,0.0,0.0,0.0,0.0,0.0,0.0,0.0,0.0,0.0,0.0,0.0,0.0,0.0,0.0,0.0,0.0,0.0,0.0,0.0,0.0,0.0,0.0,0.0,0.0,0.0,0.0,0.0,0.0,0.0,0.0,0.0,0.0,0.0,0.0,0.0,0.0,0.0,0.0,0.0,0.0,0.0,0.0,0.0,0.0,0.0,0.0,0.0,0.0,0.0,0.0,0.0,0.0,0.0,0.0,0.0,0.0,0.0,0.0,0.0,0.0,0.0,0.0,-4.7979,-5.0075,-5.1561,-5.1665,-5.1583,-5.1408,-5.1169,-4.9627,-4.7709,-4.5538,0.0,0.0,0.0,0.0,0.0,0.0,0.0,0.0,0.0,0.0,0.0,0.0,0.0,0.0,0.0,0.0,0.0,0.0,0.0,0.0,0.0,0.0,0.0,0.0,0.0,0.0,0.0,0.0,0.0,0.0,0.0,0.0,0.0,0.0,0.0,0.0,0.0,0.0,0.0,0.0,0.0,0.0,0.0,0.0,0.0,0.0,0.0,0.0,0.0,0.0,0.0,0.0,0.0,0.0,0.0,0.0,0.0,0.0,0.0,0.0,0.0,0.0,0.0,0.0,0.0,0.0,0.0,0.0,0.0,0.0,0.0,0.0,0.0,0.0,0.0,0.0,0.0,0.0,0.0,0.0,0.0,0.0,0.0,0.0,0.0,0.0,0.0,0.0,0.0,0.0,0.0,0.0,0.0,0.0,0.0,0.0,0.0,0.0,0.0,0.0,0.0,0.0,-4.7075,-4.9279,-5.0802,-5.0802,-5.0802,-5.0674,-5.0343,-4.8862,-4.7104,-4.5054,0.0,0.0,0.0,0.0,0.0,0.0,0.0,0.0,0.0,0.0,0.0,0.0,0.0,0.0,0.0,0.0,0.0,0.0,0.0,0.0,0.0,0.0,0.0,0.0,0.0,0.0,0.0,0.0,0.0,0.0,0.0,0.0,0.0,0.0,0.0,0.0,0.0,0.0,0.0,0.0,0.0,0.0,0.0,0.0,0.0,0.0,0.0,0.0,0.0,0.0,0.0,0.0,0.0,0.0,0.0,0.0,0.0,0.0,0.0,0.0,0.0,0.0,0.0,0.0,0.0,0.0,0.0,0.0,0.0,0.0,0.0,0.0,0.0,0.0,0.0,0.0,0.0,0.0,0.0,0.0,0.0,0.0,0.0,0.0,0.0,0.0,0.0,0.0,0.0,0.0,0.0,0.0,0.0,0.0,0.0,0.0,0.0,0.0,0.0,0.0,0.0,0.0,-4.6853,-4.9038,-5.0543,-5.0503,-5.0464,-5.0171,-4.938,-4.7985,-4.6302,-4.4263,0.0,0.0,0.0,0.0,0.0,0.0,0.0,0.0,0.0,0.0,0.0,0.0,0.0,0.0,0.0,0.0,0.0,0.0,0.0,0.0,0.0,0.0,0.0,0.0,0.0,0.0,0.0,0.0,0.0,0.0,0.0,0.0,0.0,0.0,0.0,0.0,0.0,0.0,0.0,0.0,0.0,0.0,0.0,0.0,0.0,0.0,0.0,0.0,0.0,0.0,0.0,0.0,0.0,0.0,0.0,0.0,0.0,0.0,0.0,0.0,-5.3683,-5.3185,0.0,0.0,0.0,0.0,0.0,0.0,0.0,0.0,0.0,0.0,0.0,0.0,0.0,0.0,0.0,0.0,0.0,0.0,0.0,0.0,0.0,0.0,0.0,0.0,0.0,0.0,0.0,0.0,0.0,0.0,0.0,0.0,0.0,0.0,0.0,0.0,0.0,0.0,0.0,0.0,-4.5512,-4.7451,-4.8645,-4.8182,-4.8119,-4.7858,-4.7137,-4.5695,-4.4443,-4.3557,-4.187,0.0,0.0,0.0,0.0,0.0,0.0,0.0,0.0,0.0,0.0,0.0,0.0,0.0,0.0,0.0,0.0,0.0,0.0,0.0,0.0,0.0,0.0,0.0,0.0,0.0,0.0,0.0,0.0,0.0,0.0,0.0,0.0,0.0,0.0,0.0,0.0,0.0,0.0,0.0,0.0,0.0,0.0,0.0,0.0,0.0,0.0,0.0,0.0,0.0,0.0,0.0,0.0,0.0,0.0,0.0,0.0,0.0,0.0,0.0,-5.4711,-5.4344,0.0,0.0,0.0,0.0,0.0,0.0,0.0,0.0,0.0,0.0,0.0,0.0,0.0,0.0,0.0,0.0,0.0,0.0,0.0,0.0,0.0,0.0,0.0,0.0,0.0,0.0,0.0,0.0,0.0,0.0,0.0,0.0,0.0,0.0,0.0,0.0,0.0,0.0,0.0,0.0,-4.4553,-4.5924,-4.687,-4.6919,-4.6932,-4.6636,-4.5946,-4.4548,-4.3453,-4.2794,-4.1006,0.0,0.0,0.0,0.0,0.0,0.0,0.0,0.0,0.0,0.0,0.0,0.0,0.0,0.0,0.0,0.0,0.0,0.0,0.0,0.0,0.0,0.0,0.0,0.0,0.0,0.0,0.0,0.0,0.0,0.0,0.0,0.0,0.0,0.0,0.0,0.0,0.0,0.0,0.0,0.0,0.0,0.0,0.0,0.0,0.0,0.0,0.0,0.0,0.0,0.0,0.0,0.0,0.0,-5.6104,-5.6014,-5.6014,-5.6014,-5.6014,-5.6014,-5.6014,-5.5849,-5.5504,-5.4014,0.0,0.0,0.0,0.0,0.0,0.0,0.0,0.0,0.0,0.0,0.0,0.0,0.0,0.0,0.0,0.0,0.0,0.0,0.0,0.0,0.0,0.0,-4.5785,-4.4621,-4.5311,-4.5734,-4.3854,0.0,0.0,0.0,0.0,0.0,0.0,0.0,0.0,0.0,0.0,0.0,-4.3814,-4.4862,-4.5628,-4.5999,-4.6052,-4.5705,-4.4841,-4.3645,-4.2669,-4.2047,-4.0248,-3.9123,0.0,0.0,0.0,0.0,0.0,0.0,0.0,0.0,0.0,0.0,0.0,0.0,0.0,0.0,0.0,0.0,0.0,0.0,0.0,0.0,0.0,0.0,0.0,0.0,0.0,0.0,0.0,0.0,0.0,0.0,0.0,0.0,-5.373,-5.3965,0.0,0.0,0.0,0.0,0.0,0.0,0.0,0.0,0.0,0.0,0.0,0.0,0.0,-5.7883,-5.7,-5.7616,-5.7529,-5.6728,-5.7381,-5.7685,-5.7685,-5.7685,-5.7685,-5.7685,-5.7685,0.0,-5.5519,-5.462,0.0,0.0,0.0,0.0,0.0,0.0,0.0,0.0,0.0,0.0,0.0,0.0,0.0,0.0,0.0,0.0,0.0,0.0,0.0,0.0,0.0,0.0,-4.4797,-4.4601,-4.472,-4.4788,-4.45,-4.3946,-4.3434,-4.3166,-4.2168,-4.1288,0.0,0.0,0.0,0.0,0.0,0.0,-4.3395,-4.5058,-4.5846,-4.4766,-4.4665,-4.4119,-4.2799,-4.1954,-4.1443,-4.1333,-4.0485,-3.9673,-3.9022,-3.8802,0.0,0.0,0.0,0.0,0.0,0.0,0.0,0.0,0.0,0.0,0.0,0.0,0.0,0.0,0.0,0.0,0.0,0.0,0.0,0.0,0.0,0.0,0.0,0.0,0.0,0.0,0.0,0.0,0.0,-5.4141,-5.5428,-5.5356,-5.6296,-5.6628,0.0,0.0,0.0,0.0,0.0,0.0,0.0,0.0,0.0,-5.8934,-5.8973,-5.8879,-5.8706,-5.8791,-5.8503,-5.7857,-5.7954,-5.7997,-5.7997,-5.7997,-5.7997,-5.7997,-5.7997,-5.7593,-5.6877,-5.6088,-5.5225,-5.4289,0.0,0.0,0.0,0.0,-5.0926,-5.0224,-5.0448,-4.9785,-4.8609,-4.7495,0.0,0.0,0.0,0.0,0.0,0.0,0.0,-4.3494,-4.3961,-4.4637,-4.5213,-4.5213,-4.5517,-4.585,-4.585,-4.5229,-4.4423,-4.3561,-4.325,-4.2692,-4.1424,-4.0933,0.0,0.0,0.0,-4.2424,-4.3253,-4.4165,-4.4475,-4.3896,-4.3835,-4.3242,-4.1805,-4.139,-4.1018,-4.0595,-4.0282,-3.996,-3.9639,-3.9208,-3.8497,0.0,0.0,0.0,0.0,0.0,0.0,0.0,0.0,0.0,0.0,0.0,0.0,0.0,0.0,0.0,0.0,0.0,0.0,0.0,0.0,0.0,0.0,0.0,0.0,0.0,0.0,0.0,0.0,-5.5467,-5.6511,-5.6416,-5.7184,-5.7417,0.0,0.0,0.0,0.0,0.0,0.0,-5.8607,-5.8607,-5.8973,-5.9819,-5.9838,-5.9913,-6.0099,-5.9644,-5.9158,-5.8694,-5.8216,-5.7997,-5.7997,-5.7997,-5.7997,-5.7997,-5.7997,-5.7997,-5.7941,-5.7134,-5.6106,-5.4913,-5.3904,-5.2784,-5.1775,-5.216,-5.1471,-5.0461,-5.1491,-5.0877,-4.9469,-4.8446,-4.7482,-4.6384,-4.4533,0.0,0.0,0.0,0.0,-4.3842,-4.4445,-4.4993,-4.5415,-4.5415,-4.5838,-4.6227,-4.6227,-4.5805,-4.5128,-4.4153,-4.4147,-4.3741,-4.2066,-4.161,0.0,-4.1474,-4.1644,-4.2168,-4.3257,-4.3589,-4.3572,-4.3166,-4.3132,-4.2523,-4.1035,-4.0916,-4.0679,-4.013,-4.0096,-4.0096,-4.0096,-3.9571,-3.892,-3.821,0.0,0.0,0.0,0.0,0.0,0.0,0.0,0.0,0.0,0.0,0.0,0.0,0.0,0.0,0.0,0.0,0.0,0.0,0.0,0.0,0.0,0.0,0.0,0.0,0.0,0.0,0.0,0.0,0.0,-5.6408,-5.7716,0.0,0.0,0.0,0.0,-5.8424,-5.8353,-5.8627,-5.9396,-5.9435,-5.9838,-6.0704,-6.0723,-6.0527,-6.0099,-5.9644,-5.9158,-5.8694,-5.8216,-5.7997,-5.7997,-5.7997,-5.7997,-5.7997,-5.7997,-5.7997,-5.7941,-5.7134,-5.6767,-5.6528,-5.495,-5.4289,-5.4124,-5.3408,-5.2656,-5.1892,-5.1332,-5.018,-4.8955,-4.8946,-4.7962,-4.6641,-4.5821,-4.506,0.0,0.0,-4.3944,-4.4564,-4.4598,-4.4632,-4.4666,-4.4666,-4.4682,-4.4716,-4.4716,-4.4682,-4.4852,-4.5466,-4.4434,-4.3409,-4.3308,0.0,-4.2236,-4.2236,-4.2844,-4.3308,-4.3375,-4.4062,-4.3988,-4.2506,-4.2354,-4.1745,-4.0282,-4.0163,-4.0146,-4.0096,-4.0096,-4.0096,-4.0096,-4.0062,-3.9706,-3.8954,-3.8186,0.0,0.0,0.0,0.0,0.0,0.0,0.0,0.0,0.0,0.0,0.0,0.0,0.0,0.0,0.0,0.0,0.0,0.0,0.0,0.0,0.0,0.0,0.0,0.0,0.0,0.0,0.0,0.0,-5.7761,-5.8724,0.0,-5.8074,-5.8693,-5.9134,-5.9134,-5.9626,-6.0031,-6.0319,-6.0339,-6.0473,-6.0781,-6.08,-6.0714,-6.0553,-5.9792,-5.932,-5.914,-5.8372,-5.7997,-5.7997,-5.7997,-5.7997,-5.7997,-5.7997,-5.7997,-5.7978,-5.7685,-5.7281,-5.6748,-5.618,-5.5317,-5.4363,-5.4087,-5.2898,-5.1419,-5.1189,-5.015,-4.8903,-4.845,-4.7953,-4.7293,-4.6075,-4.5517,-4.5145,-4.4384,-4.4395,-4.4615,-4.4615,-4.4615,-4.4615,-4.4615,-4.4615,-4.4615,-4.4615,-4.4615,-4.4682,-4.4925,-4.4536,-4.4012,-4.3504,-4.32,-4.3014,-4.3014,-4.325,-4.3606,-4.4096,-4.4429,-4.4022,-4.2455,-4.2286,-4.1694,-4.0231,-4.0096,-4.0096,-4.0096,-4.0096,-4.0096,-4.0096,-4.0096,-3.9757,-3.9005,-3.8734,-3.7506,0.0,0.0,0.0,0.0,0.0,0.0,0.0,0.0,0.0,0.0,0.0,0.0,0.0,0.0,0.0,0.0,0.0,0.0,0.0,0.0,0.0,0.0,0.0,0.0,0.0,-5.7921,-5.8898,-5.8546,-5.9474,-5.9765,-5.8803,-5.9454,-5.9935,-5.9935,-6.0473,-6.08,-6.08,-6.08,-6.08,-6.08,-6.08,-6.0714,-6.0565,-5.9789,-5.9319,-5.9139,-5.8354,-5.7997,-5.7997,-5.7997,-5.7997,-5.7997,-5.7997,-5.7997,-5.7997,-5.7997,-5.7538,-5.6785,-5.651,-5.5739,-5.473,-5.4197,-5.2898,-5.1368,-5.0903,-4.9965,-4.8934,-4.8443,-4.8091,-4.7652,-4.6447,-4.5906,-4.5551,-4.4818,-4.4615,-4.4615,-4.4615,-4.4615,-4.4615,-4.4615,-4.4615,-4.4615,-4.4615,-4.4615,-4.4615,-4.4615,-4.4615,-4.4418,-4.391,-4.3809,-4.3809,-4.3809,-4.3809,-4.3995,-4.4547,-4.4615,-4.4022,-4.2455,-4.2286,-4.1694,-4.0231,-4.0096,-4.0096,-4.0096,-4.0096,-4.0096,-4.0096,-3.9859,-3.9622,-3.9385,-3.887,-3.7753,-3.6011,0.0,0.0,0.0,0.0,0.0,0.0,0.0,0.0,0.0,0.0,0.0,0.0,0.0,0.0,0.0,0.0,0.0,0.0,0.0,0.0,0.0,0.0,0.0,-5.6482,-5.8344,-5.9403,-5.8667,-5.9887,-6.0473,-5.9627,-6.03,-6.08,-6.08,-6.08,-6.08,-6.08,-6.08,-6.08,-6.08,-6.08,-6.0565,-6.0099,-5.9644,-5.9158,-5.8694,-5.8216,-5.7997,-5.7997,-5.7997,-5.7997,-5.7997,-5.7997,-5.7997,-5.7997,-5.796,-5.7501,-5.673,-5.5941,-5.5614,-5.5354,-5.3812,-5.2765,-5.1904,-5.0465,-4.9529,-4.8981,-4.8951,-4.846,-4.775,-4.6989,-4.6261,-4.5551,-4.4818,-4.4615,-4.4615,-4.4615,-4.4615,-4.4615,-4.4615,-4.4615,-4.4615,-4.4615,-4.4615,-4.4615,-4.4615,-4.4615,-4.4615,-4.4615,-4.4615,-4.4615,-4.4615,-4.4615,0.0,-4.4581,-4.4564,-4.3988,-4.2422,-4.2252,-4.1687,-4.0231,-4.0096,-4.0096,-4.0096,-4.0096,-4.0096,-4.0096,-3.9394,-3.9385,-4.0096,-3.8667,-3.7584,-3.688,0.0,0.0,0.0,0.0,0.0,0.0,0.0,0.0,0.0,0.0,0.0,0.0,0.0,0.0,0.0,0.0,0.0,0.0,0.0,0.0,0.0,-5.6108,-5.7503,-5.8817,-5.9318,-5.9699,-6.0123,-6.0538,-6.0704,-6.0473,-6.0666,-6.08,-6.08,-6.08,-6.08,-6.08,-6.08,-6.08,-6.08,-6.08,-6.0565,-6.0099,-5.9644,-5.9158,-5.8694,-5.8216,-5.7997,-5.7997,-5.7997,-5.7997,-5.7997,-5.7997,-5.7997,-5.7941,-5.7373,-5.7005,-5.6785,-5.6565,-5.5757,-5.4675,-5.4234,-5.3239,-5.1814,-4.9879,-4.9061,-4.8753,-4.7755,-4.7259,-4.6955,-4.6227,-4.5872,-4.5551,-4.4818,-4.4615,-4.4615,-4.4615,-4.4615,-4.4615,-4.4615,-4.4615,-4.4615,-4.4615,-4.4615,-4.4615,-4.4615,-4.4615,-4.4615,-4.4615,-4.4615,-4.4615,-4.4615,-4.4615,-4.4395,-4.3809,-4.3741,-4.3166,-4.166,-4.1508,-4.1119,-4.018,-4.0096,-4.0096,-4.0096,-4.0096,-4.0096,-4.0096,-3.991,-3.9893,-4.0096,-3.9174,-3.8599,0.0,0.0,0.0,0.0,0.0,0.0,0.0,0.0,0.0,0.0,0.0,0.0,0.0,0.0,0.0,0.0,0.0,0.0,0.0,0.0,0.0,0.0,-5.7534,-5.8895,-6.04,-6.0344,-6.0354,-6.0944,-6.1011,-6.0974,-6.0883,-6.0873,-6.0858,-6.0793,-6.08,-6.08,-6.08,-6.08,-6.08,-6.08,-6.08,-6.0482,-5.9804,-5.9545,-5.9065,-5.8397,-5.8142,-5.7997,-5.7997,-5.7997,-5.7997,-5.7997,-5.7997,-5.7997,-5.7941,-5.7134,-5.6602,-5.6253,0.0,0.0,0.0,0.0,-5.2911,-5.1376,-4.9871,-4.8938,-4.8214,-4.7151,-4.6583,-4.6261,-4.5838,-4.5483,-4.5145,-4.4733,-4.4615,-4.4615,-4.4615,-4.4615,-4.4615,-4.4615,-4.4615,-4.4615,-4.4615,-4.4615,-4.4615,-4.4615,-4.4615,0.0,-4.4615,-4.4615,-4.4615,-4.4615,-4.4615,-4.4327,-4.3494,-4.3392,-4.2817,-4.1373,-4.1204,-4.0899,-4.0163,-4.0096,0.0,0.0,0.0,-3.996,-3.9656,-3.9943,0.0,0.0,0.0,0.0,0.0,0.0,0.0,0.0,-3.8633,-3.887,0.0,0.0,0.0,0.0,0.0,0.0,0.0,0.0,0.0,0.0,0.0,0.0,0.0,0.0,0.0,0.0,-5.9245,-6.0126,-6.1322,-6.1232,-6.1105,-6.1291,-6.1303,-6.122,-6.1023,-6.0997,-6.0935,-6.0804,-6.08,-6.08,-6.08,-6.08,0.0,0.0,0.0,-6.0351,-5.9407,-5.9389,-5.8932,-5.7997,-5.7997,-5.7997,-5.7997,-5.7997,-5.7997,-5.7997,-5.7997,-5.7997,-5.7923,-5.7042,-5.6143,-5.5244,-5.4546,-5.4252,-5.4179,-5.3463,-5.228,-5.0903,-5.0147,0.0,0.0,-4.6805,-4.615,-4.5665,-4.5613,-4.5111,-4.4615,-4.4615,-4.4615,-4.4615,-4.4615,-4.4615,-4.4615,-4.4615,-4.4615,-4.4615,-4.4615,-4.4615,-4.4615,-4.4615,-4.4615,-4.4581,-4.4496,-4.4547,-4.4581,-4.4496,-4.4479,-4.4147,-4.3284,-4.3139,-4.2615,-4.1221,-4.1085,0.0,-4.0163,-4.0096,-4.0096,-4.0096,-4.0096,-3.9808,-3.914,-3.9757,-3.9791,-3.9123,-3.9774,-4.0096,-4.0096,-4.0096,-4.0096,-4.0079,-3.8751,-3.8853,0.0,0.0,0.0,0.0,0.0,0.0,0.0,0.0,0.0,0.0,0.0,0.0,0.0,0.0,0.0,-5.8339,-5.9183,-6.0126,-6.1322,-6.1354,-6.1253,-6.1303,-6.1303,-6.122,-6.1023,-6.0997,-6.0935,-6.0804,-6.08,-6.08,-6.08,-6.08,-6.08,-6.08,-6.08,-6.0351,-5.9407,-5.9389,-5.8932,-5.7997,-5.7997,0.0,-5.7997,-5.7997,-5.7997,-5.7997,-5.7997,-5.7997,-5.7886,-5.6418,-5.4968,-5.3665,-5.35,-5.3424,-5.3427,-5.3259,-5.2611,-5.1517,-4.9734,-4.8817,-4.8051,-4.5777,-4.5275,-4.5455,-4.4969,-4.4716,0.0,-4.4615,-4.4615,-4.4615,-4.4615,-4.4615,-4.4615,-4.4615,-4.4615,-4.4615,-4.4615,-4.4615,-4.4615,-4.4615,-4.4615,-4.4384,-4.3741,-4.4164,-4.4395,-4.3741,-4.3639,-4.3166,-4.1813,-4.1644,-4.1288,-4.0417,-4.0316,-4.0265,-4.0113,-4.0096,-4.0096,-4.0096,-4.0096,-4.0045,-3.9893,-4.0028,-4.0028,-3.9893,-4.0028,-4.0096,-4.0096,-4.0096,-4.0096,-4.0096,-3.9808,-3.9842,0.0,0.0,0.0,0.0,0.0,0.0,0.0,0.0,0.0,0.0,0.0,-5.5011,-5.5892,0.0,-5.8387,-5.9549,-6.0087,-6.0619,-6.138,-6.1444,-6.1413,-6.1498,-6.1504,-6.1409,-6.1167,-6.1158,-6.1042,-6.0816,-6.08,-6.08,-6.08,-6.08,-6.08,-6.08,-6.08,-6.0351,-5.9407,-5.9389,-5.8932,-5.7997,-5.7997,-5.7997,-5.7997,-5.7997,-5.7997,-5.7997,-5.7997,-5.7776,-5.7281,-5.5666,-5.4289,-5.3185,-5.3185,-5.3185,-5.3148,-5.2747,-5.2087,-5.1158,-4.937,-4.8407,-4.7667,-4.5684,-4.5258,-4.5399,-4.4786,-4.4615,-4.4615,-4.4615,-4.4615,-4.4615,-4.4615,-4.4615,-4.4615,-4.4615,-4.4615,-4.4615,-4.4615,-4.4265,-4.3995,-4.3995,-4.369,-4.3318,-4.2912,-4.3183,-4.3301,-4.2912,-4.2861,-4.2455,-4.1339,-4.1204,-4.0916,-4.018,-4.0096,-4.0096,-4.0096,-4.0096,-4.0096,-4.0096,-4.0096,-4.0096,-4.0096,-4.0096,-4.0096,-4.0096,-4.0096,-4.0096,-4.0096,-4.0096,-4.0096,-4.0096,-4.0096,-4.0096,0.0,0.0,0.0,0.0,0.0,0.0,0.0,-5.2382,-5.374,-5.3525,-5.517,-5.6854,-5.7558,-5.843,-5.9439,-6.0632,-6.0924,-6.1116,-6.1413,-6.1472,-6.1549,-6.1679,-6.1699,-6.1585,-6.1337,-6.1303,-6.1155,-6.0827,-6.08,-6.08,-6.08,-6.08,-6.08,-6.08,-6.0702,-6.025,-5.9407,-5.9302,-5.8835,-5.7997,-5.7997,-5.7997,-5.7997,-5.7997,-5.7997,-5.7997,-5.7831,-5.7317,-5.6455,-5.5005,-5.394,-5.3185,-5.3185,-5.3185,-5.3093,-5.2289,-5.1481,-5.0593,-4.9119,-4.8157,-4.7342,-4.5957,-4.5571,-4.5545,-4.4814,-4.4615,-4.4615,-4.4615,-4.4615,-4.4615,-4.4615,-4.4615,-4.4615,-4.4615,-4.4615,-4.4564,-4.4412,-4.3859,-4.3341,-4.3189,-4.2709,-4.2252,-4.21,-4.2083,-4.2083,-4.2083,-4.2083,-4.1813,-4.1085,-4.0984,-4.0747,-4.0163,-4.0096,-4.0096,-4.0096,-4.0096,-4.0096,-4.0096,-4.0096,-4.0096,-4.0096,-4.0096,-4.0096,-4.0096,-4.0096,-4.0096,-4.0096,-4.0096,-4.0096,-4.0096,-4.0096,-4.0096,-4.8865,-4.9412,-5.0317,-5.1541,-5.2578,-5.3773,0.0,-5.6043,-5.6164,-5.6872,-5.7487,-5.7933,-5.8027,-5.9086,-5.9998,-6.016,-6.0652,-6.1089,-6.1289,-6.1413,-6.1549,-6.1679,-6.1699,-6.1585,-6.1337,-6.1303,-6.1155,-6.0827,-6.08,-6.08,-6.08,-6.08,-6.08,-6.08,-6.0397,-5.9916,-5.9425,-5.899,-5.8526,-5.7997,-5.7997,-5.7997,-5.7997,-5.7997,-5.7997,-5.796,-5.7244,-5.6473,-5.5647,-5.4766,-5.394,-5.3185,-5.3185,-5.3185,-5.3093,-5.2289,-5.1481,-5.0593,-4.9119,-4.8429,-4.7899,-4.6088,-4.5865,-4.6088,-4.4961,-4.4615,-4.4615,-4.4615,-4.4615,-4.4615,-4.4615,-4.4615,-4.4615,-4.4615,-4.4615,-4.4412,-4.369,-4.3443,-4.3189,-4.254,-4.2354,-4.2083,-4.1441,-4.1322,-4.1322,-4.1322,-4.1322,-4.1052,-4.0333,-4.0231,-4.0197,-4.0113,-4.0096,-4.0096,-4.0096,-4.0096,-4.0096,-4.0096,-4.0096,-4.0096,-4.0096,-4.0096,-4.0096,-4.0096,-4.0096,-4.0096,-4.0096,-4.0096,-4.0096,-4.0096,-4.0096,-4.0096,-5.0126,-5.1189,-5.2177,-5.2187,-5.3886,-5.5708,-5.6141,-5.7034,-5.7787,-5.787,-5.8192,-5.8447,-5.8447,-5.9128,-5.9773,-6.0055,-6.069,-6.1207,-6.1297,-6.1472,-6.1634,-6.1699,-6.1633,-6.1509,-6.1326,-6.1303,-6.1155,-6.0827,-6.08,-6.08,-6.08,-6.08,-6.0659,-6.0411,-6.0189,-5.9741,-5.899,-5.8814,-5.8463,-5.7997,-5.7997,-5.7997,-5.7997,-5.7997,-5.774,-5.7262,-5.6455,-5.5647,-5.484,-5.4032,-5.35,-5.3185,-5.3185,-5.3185,-5.3059,-5.1775,-5.1096,-5.056,-4.8983,-4.8367,-4.8055,-4.6524,-4.6454,-4.6664,-4.5062,-4.4841,-4.5052,-4.4692,-4.4615,-4.4615,-4.4615,-4.4615,-4.4615,-4.4615,-4.4615,-4.4395,-4.3561,-4.3064,-4.254,-4.1796,-4.1305,-4.0925,-4.0595,-4.0544,-4.0544,-4.0544,-4.0544,-4.0468,-4.0146,-4.0096,-4.0096,-4.0096,-4.0096,-4.0096,-4.0096,-4.0096,-4.0096,-4.0096,-4.0096,-4.0096,-4.0096,-4.0096,-4.0096,-4.0096,-4.0096,-4.0096,-4.0096,-4.0096,-4.0096,-4.0096,-4.0096,-4.0096,-5.1078,-5.2226,-5.3156,-5.2605,-5.4589,-5.6613,-5.6307,-5.7472,-5.8477,-5.8052,-5.8269,-5.8445,-5.8237,-5.8857,-5.9524,-5.9892,-6.0703,-6.1301,-6.1344,-6.1551,-6.1699,-6.1699,-6.158,-6.1448,-6.1301,-6.1246,-6.11,-6.0827,-6.08,-6.08,-6.08,-6.08,-6.0578,-6.0099,-5.9962,-5.9528,-5.8715,-5.857,-5.8329,-5.7997,-5.7997,-5.7997,-5.7997,-5.7997,-5.7556,-5.6767,-5.5941,-5.5133,-5.4344,-5.3537,-5.3185,-5.3185,-5.3185,-5.3185,-5.3002,-5.1389,-5.0802,-5.0563,-4.8893,-4.8306,-4.8114,-4.7044,-4.6887,-4.6864,-4.5511,-4.5169,-4.5205,-4.4934,-4.472,-4.4615,-4.4615,-4.4615,-4.4615,-4.4615,-4.4615,-4.4327,-4.3318,-4.2675,-4.2016,-4.1068,-4.0485,-4.0096,-4.0096,-4.0096,-4.0096,-4.0096,-4.0096,-4.0096,-4.0096,-4.0096,-4.0096,-4.0096,-4.0096,-4.0096,-4.0096,-4.0096,-4.0096,-4.0096,-4.0096,-4.0096,-4.0096,-4.0096,-4.0096,-4.0096,-4.0096,-4.0096,-4.0096,-4.0096,-4.0096,-4.0096,-4.0096,-4.0096,-5.1184,-5.1859,-5.2671,-5.3215,-5.466,-5.6222,-5.7301,-5.7832,-5.8014,-5.7678,-5.784,-5.7797,-5.7091,-5.8296,-5.9448,-5.9587,-6.0558,-6.1358,-6.1488,-6.161,-6.1699,-6.1699,-6.158,-6.1448,-6.1301,-6.1116,-6.0944,-6.0804,-6.08,-6.08,-6.08,-6.08,-6.0578,-6.0099,-5.9661,-5.9195,-5.8694,-5.8238,-5.802,-5.7997,-5.7997,-5.7997,-5.7997,-5.7997,-5.7556,-5.6767,-5.5941,-5.5133,-5.4344,-5.3537,-5.3185,-5.3185,-5.3185,-5.3185,-5.3002,-5.1389,-5.0802,-5.0563,-4.8893,-4.8306,-4.8191,-4.7572,-4.6955,-4.643,-4.6359,-4.5545,-4.4748,-4.532,-4.5052,-4.4615,-4.4615,-4.4615,-4.4615,-4.4615,-4.4615,-4.4192,-4.2658,-4.2303,-4.1863,-4.0417,-4.013,-4.0096,-4.0096,-4.0096,-4.0096,-4.0096,-4.0096,-4.0096,-4.0096,-4.0096,-4.0096,-4.0096,-4.0096,-4.0096,-4.0096,-4.0096,-4.0096,-4.0096,-4.0096,-4.0096,-4.0096,-4.0096,-4.0096,-4.0096,-4.0096,-4.0096,-4.0096,-4.0096,-4.0096,-4.0096,-4.0096,-4.0096,-5.1641,-5.2432,-5.3269,-5.3963,-5.5393,-5.6659,-5.6778,-5.7472,-5.7845,-5.6992,-5.7446,-5.7872,-5.7441,-5.8486,-5.9547,-5.9996,-6.0756,-6.1358,-6.1472,-6.161,-6.1699,-6.1699,-6.1504,-6.1339,-6.1289,-6.1128,-6.0935,-6.0804,-6.08,-6.08,-6.08,-6.08,-6.0437,-5.9661,-5.9475,-5.9028,-5.8238,-5.8092,-5.7997,-5.7997,-5.7997,-5.7997,-5.7978,-5.7446,-5.6767,-5.5959,-5.5152,-5.4344,-5.3592,-5.3295,-5.3185,-5.3185,-5.3185,-5.3185,-5.3002,-5.1389,-5.0802,-5.0563,-4.8893,-4.8306,-4.8191,-4.7593,-4.7512,-4.7431,-4.6167,-4.5808,-4.5673,-4.5062,-4.4776,-4.4615,-4.4615,-4.4615,-4.4615,-4.4615,-4.4615,-4.4192,-4.2625,-4.2286,-4.1847,-4.04,-4.0096,-4.0096,-4.0096,-4.0096,-4.0096,-4.0096,-4.0096,-4.0096,-4.0096,-4.0096,-4.0096,-4.0096,-4.0096,-4.0096,-4.0096,-4.0096,-4.0096,-4.0096,-4.0096,-4.0096,-4.0096,-4.0096,-4.0096,-4.0096,-4.0096,-4.0096,-4.0096,-4.0096,-4.0096,-4.0096,-4.0096,-4.0096,-5.1966,-5.2953,-5.3962,-5.438,-5.5415,-5.6287,-5.6178,-5.6396,-5.6381,-5.5517,-5.6102,-5.6779,-5.6797,-5.7965,-5.9283,-6.025,-6.0914,-6.1354,-6.1547,-6.1656,-6.1679,-6.1634,-6.1436,-6.1265,-6.12,-6.1034,-6.0894,-6.0823,-6.08,-6.08,-6.08,-6.08,-6.0365,-5.9424,-5.9389,-5.8933,-5.802,-5.7997,-5.7997,-5.7997,-5.7997,-5.7997,-5.796,-5.7171,-5.6363,-5.5556,-5.4748,-5.394,-5.3185,-5.3185,-5.3185,-5.3185,-5.3185,-5.3185,-5.3002,-5.1389,-5.0802,-5.0563,-4.8893,-4.8306,-4.8248,-4.7856,-4.7856,-4.7797,-4.6796,-4.6454,-4.624,-4.5459,-4.5089,-4.4852,-4.4654,-4.4615,-4.4615,-4.4615,-4.4615,-4.4192,-4.2625,-4.2286,-4.1847,-4.04,-4.0096,-4.0096,-4.0096,-4.0096,-4.0096,-4.0096,-4.0096,-4.0096,-4.0096,-4.0096,-4.0096,-4.0096,-4.0096,-4.0096,-4.0096,-4.0096,-4.0096,-4.0096,-4.0096,-4.0096,-4.0096,-4.0096,-4.0096,-4.0096,-4.0096,-4.0096,-4.0096,-4.0096,-4.0096,-4.0096,-4.0096,-4.0096,-5.2202,-5.3433,-5.4671,-5.4572,-5.4824,-5.5184,-5.5564,-5.482,-5.393,-5.3485,-5.4092,-5.4827,-5.5238,-5.693,-5.8783,-6.0316,-6.0978,-6.1383,-6.1657,-6.1699,-6.1656,-6.1512,-6.1373,-6.122,-6.1023,-6.0882,-6.08,-6.08,-6.08,-6.08,-6.08,-6.0788,-6.0338,-5.9424,-5.9391,-5.8932,-5.802,-5.7997,-5.7997,-5.7997,-5.7997,-5.7997,-5.796,-5.7116,-5.6326,-5.5559,-5.4711,-5.3922,-5.3185,-5.3185,-5.3185,-5.3185,-5.3185,-5.3167,-5.2968,-5.1389,-5.0765,-5.0508,-4.8875,-4.8306,-4.8306,-4.8306,-4.7917,-4.7551,-4.8075,-4.7409,-4.6454,-4.6383,-4.594,-4.5372,-4.4776,-4.4615,-4.4615,-4.4615,-4.4615,-4.4192,-4.2625,-4.2286,-4.1847,-4.04,-4.0096,-4.0096,-4.0096,-4.0096,-4.0096,-4.0096,-4.0096,-4.0096,-4.0096,-4.0096,-4.0096,-4.0096,-4.0096,-4.0096,-4.0096,-4.0096,-4.0096,-4.0096,-4.0096,-4.0096,-4.0096,-4.0096,-4.0096,-4.0096,-4.0096,-4.0096,-4.0096,-4.0096,-4.0096,-4.0096,-4.0096,-4.0096,-5.3552,-5.4207,-5.4689,-5.5243,-5.5246,-5.505,-5.4843,-5.476,-5.4455,-5.346,-5.4852,-5.6126,-5.5731,-5.7548,-5.93,-5.9901,-6.0733,-6.1349,-6.1537,-6.1634,-6.1656,-6.1512,-6.1373,-6.122,-6.1023,-6.0882,-6.08,-6.08,-6.08,-6.08,-6.08,-6.0469,-6.001,-5.9407,-5.9065,-5.8591,-5.7997,-5.7997,-5.7997,-5.7997,-5.7997,-5.7997,-5.7941,-5.6547,-5.5776,-5.5522,-5.4124,-5.339,-5.3185,-5.3185,-5.3185,-5.3185,-5.3185,-5.2839,-5.2179,-5.1169,-5.0417,-4.9738,-4.8673,-4.8306,-4.8306,-4.8306,-4.8191,-4.8015,-4.7715,-4.7406,-4.6955,-4.5989,-4.5622,-4.5372,-4.4776,-4.4615,-4.4615,-4.4615,-4.4615,-4.4192,-4.2625,-4.2286,-4.1847,-4.04,-4.0096,-4.0096,-4.0096,-4.0096,-4.0096,-4.0096,-4.0096,-4.0096,-4.0096,-4.0096,-4.0096,-4.0096,-4.0096,-4.0096,-4.0096,-4.0096,-4.0096,-4.0096,-4.0096,-4.0096,-4.0096,-4.0096,-4.0096,-4.0096,-4.0096,-4.0096,-4.0096,-4.0096,-4.0096,-4.0096,-4.0096,-4.0096,-5.4222,-5.4761,-5.5094,-5.5374,-5.5128,-5.4731,-5.4288,-5.3943,-5.3543,-5.2862,-5.3959,-5.5104,-5.5283,-5.7121,-5.8864,-5.9668,-6.0635,-6.1358,-6.1472,-6.1555,-6.1553,-6.1432,-6.1264,-6.1097,-6.0935,-6.0845,-6.08,-6.08,-6.08,-6.0702,-6.0495,-6.025,-5.9789,-5.9121,-5.8835,-5.8463,-5.7997,-5.7997,-5.7997,-5.7997,-5.7997,-5.7997,-5.7941,-5.6326,-5.5614,-5.55,-5.3904,-5.3185,-5.3185,-5.3185,-5.3185,-5.3185,-5.3185,-5.2711,-5.1885,-5.1096,-5.0288,-4.9482,-4.86,-4.8306,-4.8306,-4.8306,-4.8306,-4.8248,-4.7897,-4.7797,-4.753,-4.624,-4.589,-4.5699,-4.4841,-4.4615,-4.4615,-4.4615,-4.4615,-4.4192,-4.2625,-4.2286,-4.1847,-4.04,-4.0096,-4.0096,-4.0096,-4.0096,-4.0096,-4.0096,-4.0096,-4.0096,-4.0096,-4.0096,-4.0096,-4.0096,-4.0096,-4.0096,-4.0096,-4.0096,-4.0096,-4.0096,-4.0096,-4.0096,-4.0096,-4.0096,-4.0096,-4.0096,-4.0096,-4.0096,-4.0096,-4.0096,-4.0096,-4.0113,-4.0343,-4.0449,-5.4626,-5.5164,-5.5599,-5.5199,-5.4809,-5.439,-5.3924,-5.2989,-5.2247,-5.2247,-5.266,-5.3341,-5.4485,-5.6317,-5.8086,-5.9389,-6.0541,-6.1301,-6.1417,-6.1458,-6.1409,-6.1271,-6.1112,-6.0944,-6.0816,-6.08,-6.08,-6.08,-6.0746,-6.054,-6.0132,-6.004,-5.9578,-5.8652,-5.8611,-5.8418,-5.7997,-5.7997,-5.7997,-5.7997,-5.7997,-5.7941,-5.7795,-5.629,-5.5559,-5.5354,-5.3849,-5.3185,-5.3185,-5.3185,-5.3185,-5.3185,-5.3185,-5.2711,-5.1903,-5.1224,-5.038,-4.95,-4.8728,-4.8398,-4.8306,-4.8306,-4.8306,-4.8306,-4.8306,-4.8306,-4.8017,-4.6756,-4.6407,-4.6119,-4.4906,-4.4615,-4.4615,-4.4615,-4.4615,-4.4209,-4.276,-4.2286,-4.1745,-4.0367,-4.0096,-4.0096,-4.0096,-4.0096,-4.0096,-4.0096,-4.0096,-4.0096,-4.0096,-4.0096,-4.0096,-4.0096,-4.0096,-4.0096,-4.0096,-4.0096,-4.0096,-4.0096,-4.0096,-4.0096,-4.0096,-4.0096,-4.0096,-4.0096,-4.0096,-4.0096,-4.0096,-4.0096,-4.0096,-4.0121,-4.0655,-4.0903,-5.5299,-5.5588,-5.5599,-5.5199,-5.4809,-5.439,-5.3924,-5.3387,-5.302,-5.302,-5.3619,-5.4218,-5.4465,-5.6498,-5.8186,-5.8508,-5.9958,-6.1053,-6.1093,-6.1227,-6.1271,-6.1062,-6.1023,-6.0944,-6.0816,-6.08,-6.08,-6.08,-6.0437,-6.0194,-6.0099,-5.9725,-5.9084,-5.8164,-5.8119,-5.8074,-5.7997,-5.7997,-5.7997,-5.7997,-5.7997,-5.7648,-5.6987,-5.6014,-5.5225,-5.4564,-5.361,-5.3185,-5.3185,-5.3185,-5.3185,-5.3185,-5.3185,-5.2711,-5.1977,-5.183,-5.0877,-4.9574,-4.9445,-4.8893,-4.8306,-4.8306,-4.8306,-4.8306,-4.8306,-4.8306,-4.8017,-4.6756,-4.6407,-4.6119,-4.4906,-4.4615,-4.4615,-4.4615,-4.4615,-4.4333,-4.342,-4.2252,-4.1119,-4.0282,-4.0096,-4.0096,-4.0096,-4.0096,-4.0096,-4.0096,-4.0096,-4.0096,-4.0096,-4.0096,-4.0096,-4.0096,-4.0096,-4.0096,-4.0096,-4.0096,-4.0096,-4.0096,-4.0096,-4.0096,-4.0096,-4.0096,-4.0096,-4.0096,-4.0096,-4.0096,-4.0096,-4.0096,-4.0096,-4.0121,-4.0655,-4.0903,-5.5588,-5.5703,-5.5535,-5.4952,-5.464,-5.4324,-5.3643,-5.3357,-5.3185,-5.3185,-5.3674,-5.4166,-5.4465,-5.6355,-5.7977,-5.8258,-5.9814,-6.0997,-6.0997,-6.107,-6.112,-6.1014,-6.0945,-6.086,-6.0812,-6.08,-6.08,-6.08,-6.0384,-5.9996,-5.9741,-5.9065,-5.8482,-5.802,-5.7997,-5.7997,-5.7997,-5.7997,-5.7997,-5.7997,-5.7997,-5.7574,-5.6785,-5.5959,-5.5152,-5.4363,-5.3555,-5.3185,-5.3185,-5.3185,-5.3185,-5.3185,-5.3185,-5.2711,-5.1995,-5.1995,-5.0987,-4.961,-4.961,-4.9022,-4.8306,-4.8306,-4.8306,-4.8306,-4.8306,-4.8306,-4.8017,-4.6756,-4.6407,-4.6119,-4.4906,-4.4615,-4.4615,-4.4615,-4.3988,-4.3284,-4.2912,-4.166,-4.051,-4.018,-4.0096,-4.0096,-4.0096,-4.0096,-4.0096,-4.0096,-4.0096,-4.0096,-4.0096,-4.0096,-4.0096,-4.0096,-4.0096,-4.0096,-4.0096,-4.0096,-4.0096,-4.0096,-4.0096,-4.0096,-4.0096,-4.0096,-4.0096,-4.0096,-4.0096,-4.0096,-4.0096,-4.0096,-4.0254,-4.0528,-4.1087,-4.1534,-5.5703,-5.564,-5.5399,-5.4671,-5.442,-5.4154,-5.3378,-5.3185,-5.3185,-5.3185,-5.3444,-5.3851,-5.4406,-5.5974,-5.7437,-5.8185,-5.9648,-6.075,-6.0925,-6.0963,-6.0963,-6.0963,-6.085,-6.08,-6.08,-6.08,-6.08,-6.08,-6.0264,-5.9741,-5.9285,-5.8461,-5.7997,-5.7997,-5.7997,-5.7997,-5.7997,-5.7997,-5.7997,-5.7997,-5.7997,-5.7483,-5.6528,-5.5886,-5.506,-5.4106,-5.3482,-5.3185,-5.3185,-5.3185,-5.3185,-5.3185,-5.3185,-5.2821,-5.2252,-5.2252,-5.1242,-4.9867,-4.9867,-4.9169,-4.8306,-4.8306,-4.8306,-4.8306,-4.8306,-4.8306,-4.8017,-4.6756,-4.6407,-4.6119,-4.4906,-4.4615,-4.4615,-4.4615,-4.3684,-4.277,-4.2574,-4.1491,-4.0519,-4.0383,-4.0214,-4.0096,-4.0096,-4.0096,-4.0096,-4.0096,-4.0096,-4.0096,-4.0096,-4.0096,-4.0096,-4.0096,-4.0096,-4.0096,-4.0096,-4.0096,-4.0096,-4.0096,-4.0096,-4.0096,-4.0096,-4.0096,-4.0096,-4.0096,-4.0096,-4.0171,-4.0262,-4.0262,-4.0552,-4.111,-4.1707,-4.2262,-5.5703,-5.5423,-5.5048,-5.4594,-5.417,-5.3739,-5.3295,-5.3185,-5.3185,-5.3185,-5.3227,-5.3522,-5.434,-5.5249,-5.6413,-5.8035,-5.9053,-5.9903,-6.0712,-6.0827,-6.0827,-6.0827,-6.0804,-6.08,-6.08,-6.08,-6.08,-6.08,-5.9962,-5.9248,-5.8795,-5.8282,-5.7997,-5.7997,-5.7997,-5.7997,-5.7997,-5.7997,-5.7997,-5.7997,-5.7997,-5.7189,-5.5724,-5.5633,-5.4748,-5.3295,-5.3222,-5.3185,-5.3185,-5.3185,-5.3185,-5.3185,-5.3185,-5.3148,-5.3096,-5.3096,-5.2068,-5.0692,-5.0692,-4.9646,-4.8306,-4.8306,-4.8306,-4.8306,-4.8306,-4.8306,-4.8017,-4.6756,-4.6407,-4.6119,-4.4906,-4.4615,-4.4615,-4.4615,-4.4496,-4.4209,-4.347,-4.2675,-4.1897,-4.1238,-4.0544,-4.0096,-4.0096,-4.0096,-4.0096,-4.0096,-4.0096,-4.0096,-4.0096,-4.0096,-4.0096,-4.0096,-4.0096,-4.0096,-4.0096,-4.0096,-4.0096,-4.0096,-4.0096,-4.0096,-4.0096,-4.0096,-4.0096,-4.0096,-4.0096,-4.0343,-4.0827,-4.0827,-4.1133,-4.1729,-4.2342,-4.2635,-5.5121,-5.5383,-5.566,-5.4969,-5.4652,-5.4407,-5.4013,-5.3555,-5.3185,-5.3185,-5.3185,-5.3481,-5.434,-5.5592,-5.6877,-5.8112,-5.9415,-6.0396,-6.0742,-6.08,-6.08,-6.08,-6.08,-6.08,-6.08,-6.0553,-6.0146,-5.9578,-5.9195,-5.8756,-5.8286,-5.8097,-5.7997,-5.7997,-5.7997,-5.7997,-5.7997,-5.7997,-5.7997,-5.7997,-5.7519,-5.6693,-5.5596,-5.5097,-5.4252,-5.3185,-5.3185,-5.3185,-5.3185,-5.3185,-5.3185,-5.3185,-5.3185,-5.3185,-5.313,-5.2656,-5.1775,-5.0729,-5.0251,-4.9297,-4.8306,-4.8306,-4.8306,-4.8306,-4.8306,-4.8306,-4.8114,-4.7259,-4.671,-4.6216,-4.5372,-4.4852,-4.4615,-4.4615,-4.4215,-4.3792,-4.346,-4.2472,-4.1542,-4.1271,-4.0595,-4.0096,-4.0096,-4.0096,-4.0096,-4.0096,-4.0096,-4.0096,-4.0096,-4.0096,-4.0096,-4.0096,-4.0096,-4.0096,-4.0096,-4.0096,-4.0096,-4.0096,-4.0096,-4.0096,-4.0096,-4.0096,-4.0096,-4.0096,-4.0417,-4.0679,-4.0903,-4.1251,-4.175,-4.2342,-4.2596,-4.2883,-5.4943,-5.5369,-5.5826,-5.5454,-5.5174,-5.4929,-5.4644,-5.4075,-5.3543,-5.342,-5.3502,-5.3777,-5.439,-5.5763,-5.7144,-5.8143,-5.9492,-6.0512,-6.0762,-6.08,-6.08,-6.08,-6.08,-6.08,-6.08,-6.0384,-5.9709,-5.8775,-5.8694,-5.8484,-5.8042,-5.7997,-5.7997,-5.7997,-5.7997,-5.7997,-5.7997,-5.7997,-5.7886,-5.7648,-5.7079,-5.6253,-5.5225,-5.4656,-5.3959,-5.3185,-5.3185,-5.3185,-5.3185,-5.3185,-5.3185,-5.3185,-5.3185,-5.3185,-5.3093,-5.2289,-5.1481,-5.0674,-4.9886,-4.9022,-4.8306,-4.8306,-4.8306,-4.8306,-4.8306,-4.8306,-4.8172,-4.7572,-4.6932,-4.6264,-4.5673,-4.5178,-4.4814,-4.4654,-4.4164,-4.3758,-4.3758,-4.2591,-4.1525,-4.1525,-4.073,-4.0096,-4.0096,-4.0096,-4.0096,-4.0096,-4.0096,-4.0096,-4.0096,-4.0096,-4.0096,-4.0096,-4.0096,-4.0096,-4.0096,-4.0096,-4.0096,-4.0096,-4.0096,-4.0096,-4.0096,-4.0096,-4.0096,-4.0096,-4.0631,-4.0995,-4.1178,-4.1771,-4.2382,-4.2939,-4.2939,-4.2958,-5.5468,-5.5371,-5.5192,-5.5992,-5.5583,-5.5006,-5.4987,-5.4717,-5.4355,-5.3906,-5.4153,-5.4487,-5.4503,-5.5536,-5.6824,-5.8101,-5.8973,-5.9819,-6.0685,-6.08,-6.08,-6.08,-6.08,-6.08,-6.08,-6.0384,-5.9709,-5.8775,-5.8694,-5.8484,-5.8042,-5.7997,-5.7997,-5.7997,-5.7997,-5.7997,-5.7997,-5.7997,-5.7593,-5.6822,-5.6804,-5.5959,-5.4418,-5.4399,-5.3959,-5.3185,-5.3185,-5.3185,-5.3185,-5.3185,-5.3185,-5.3185,-5.3185,-5.3185,-5.3093,-5.2289,-5.1481,-5.0674,-4.9886,-4.9022,-4.8306,-4.8306,-4.8306,-4.8306,-4.8306,-4.8306,-4.8172,-4.7572,-4.6932,-4.6264,-4.5673,-4.5511,-4.5346,-4.4748,-4.4598,-4.4598,-4.4598,-4.3396,-4.2286,-4.2286,-4.1111,-4.0096,-4.0096,-4.0096,-4.0096,-4.0096,-4.0096,-4.0096,-4.0096,-4.0096,-4.0096,-4.0096,-4.0096,-4.0096,-4.0096,-4.0096,-4.0096,-4.0096,-4.0096,-4.0096,-4.0096,-4.0096,-4.0096,-4.0096,-4.0631,-4.1183,-4.1789,-4.24,-4.2976,-4.3479,-4.3479,-4.2903,-5.4093,-5.45,-5.5062,-5.5322,-5.5192,-5.5081,-5.5407,-5.4974,-5.4603,-5.5018,-5.5214,-5.5596,-5.6458,-5.7435,-5.8334,-5.9004,-5.9838,-6.0473,-6.0762,-6.08,-6.08,-6.08,-6.0508,-6.0208,-5.987,-5.9407,-5.8894,-5.826,-5.8235,-5.8164,-5.802,-5.7997,-5.7997,-5.7997,-5.7997,-5.774,-5.7189,-5.7189,-5.6785,-5.5959,-5.5427,-5.4895,-5.4381,-5.383,-5.3445,-5.3185,-5.3185,-5.3185,-5.3185,-5.3185,-5.3185,-5.3185,-5.3185,-5.3185,-5.3038,-5.1683,-5.1022,-5.06,-4.9205,-4.8526,-4.8306,-4.8306,-4.8306,-4.8306,-4.8306,-4.8306,-4.8172,-4.7572,-4.6932,-4.6359,-4.6167,-4.5494,-4.4961,-4.5152,-4.4906,-4.4462,-4.391,-4.2997,-4.2151,-4.1644,-4.0747,-4.0096,-4.0096,-4.0096,-4.0096,-4.0096,-4.0096,-4.0096,-4.0096,-4.0096,-4.0096,-4.0096,-4.0096,-4.0096,-4.0096,-4.0096,-4.0096,-4.0096,-4.0096,-4.0096,-4.0096,-4.0449,-4.0655,-4.0655,-4.1621,-4.2223,-4.242,-4.2958,-4.316,-4.2958,-4.2958,-4.2324,-5.3725,-5.4211,-5.4885,-5.5339,-5.5361,-5.537,-5.5839,-5.5426,-5.5057,-5.5405,-5.5588,-5.6002,-5.6976,-5.7989,-5.8841,-5.94,-6.0223,-6.08,-6.08,-6.08,-6.0726,-6.0565,-6.0278,-5.9855,-5.9213,-5.8874,-5.8505,-5.8042,-5.7997,-5.7997,-5.7997,-5.7997,-5.785,-5.7556,-5.7556,-5.7317,-5.6804,-5.651,-5.6014,-5.5381,-5.4709,-5.4323,-5.4142,-5.3492,-5.3185,-5.3185,-5.3185,-5.3185,0.0,-5.3185,-5.3185,-5.3185,-5.3185,-5.3023,-5.2601,-5.1279,-5.0618,-5.0141,-4.8783,-4.8306,-4.8306,-4.8306,-4.8306,-4.8306,-4.8306,-4.8306,-4.821,-4.7856,-4.7449,-4.7021,-4.6507,-4.584,-4.5258,-4.5178,-4.4879,-4.4395,-4.3561,-4.2828,-4.2066,-4.1339,-4.0595,-4.0096,-4.0096,-4.0096,-4.0096,-4.0096,-4.0096,-4.0096,-4.0096,-4.0096,-4.0096,-4.0096,-4.0096,-4.0096,-4.0096,-4.0096,-4.0096,-4.0096,-4.0096,-4.0096,-4.0096,-4.0625,-4.0903,-4.0903,-4.2101,-4.2711,-4.2711,-4.3232,-4.3232,-4.2693,-4.246,-4.1958,0.0,-5.4329,-5.4628,-5.5784,-5.5877,-5.576,-5.6163,-5.5967,0.0,-5.5288,-5.5531,-5.5953,-5.6524,-5.7594,-5.8646,-5.9454,-6.0262,-6.08,-6.08,-6.0769,-6.0578,-6.0146,-6.004,-5.9661,-5.8776,-5.8654,-5.8482,-5.8024,-5.7997,-5.7997,-5.7997,-5.7941,-5.7574,-5.6822,-5.6693,-5.6638,-5.6638,-5.5912,-5.5344,-5.4913,-5.457,-5.4184,-5.3796,-5.3422,-5.3227,-5.3185,-5.3185,-5.3185,-5.3185,-5.3185,-5.3185,-5.3185,-5.3185,-5.2711,-5.1885,-5.1096,-5.0288,-4.9482,-4.86,-4.8306,-4.8306,-4.8306,-4.8306,-4.8306,-4.8306,-4.8306,-4.8306,-4.8306,-4.8267,-4.7957,-4.6778,-4.6407,-4.6046,-4.4934,-4.4626,-4.4378,-4.3521,-4.2777,-4.2093,-4.1306,-4.0595,-4.0121,-4.0146,-4.0121,-4.0096,-4.0096,-4.0096,-4.0096,-4.0096,-4.0096,-4.0096,-4.0096,-4.0096,-4.0096,-4.0096,-4.0096,-4.0096,-4.0096,-4.0096,-4.0121,-4.0171,-4.0679,-4.0995,-4.1018,-4.2162,-4.275,-4.2711,-4.3196,-4.3142,-4.2577,-4.2041,-4.1789,-5.3424,0.0,-5.4093,-5.4748,-5.5075,-5.5353,0.0,-5.5764,-5.5865,-5.6452,-5.6621,-5.7115,-5.8515,-5.9023,-5.9492,-6.0358,-6.0666,-6.08,-6.08,-6.0495,-6.0222,-6.0118,-5.9477,-5.8933,-5.8715,-5.8394,-5.8119,-5.802,-5.7997,-5.7997,-5.7997,-5.7428,-5.7005,-5.6822,-5.5611,-5.4968,-5.4968,-5.5077,-5.4779,-5.4094,-5.4348,-5.4236,-5.3796,-5.3702,-5.3504,-5.3185,-5.3185,-5.3185,-5.3185,-5.3185,-5.3185,-5.3185,-5.3185,-5.2711,-5.1885,-5.1096,-5.0288,-4.9482,-4.86,-4.8306,-4.8306,-4.8306,-4.8306,-4.8306,-4.8306,-4.8306,-4.8306,-4.8306,-4.7957,-4.7551,-4.7237,-4.643,-4.5648,-4.5372,-4.4934,-4.4242,-4.2844,-4.2422,-4.2038,-4.114,-4.0487,-4.0229,-4.0631,-4.0368,-4.0096,-4.0096,-4.0096,-4.0096,-4.0096,-4.0096,-4.0096,-4.0096,-4.0096,-4.0096,-4.0096,-4.0096,-4.0096,-4.0096,-4.0096,-4.0286,-4.0703,-4.1268,-4.181,-4.2282,-4.2958,-4.3124,-4.2711,-4.2826,-4.2344,-4.1335,-4.1643,-4.1556,-5.3185,-5.3801,-5.4502,-5.4934,-5.5374,-5.5804,-5.6195,-5.5992,-5.5818,-5.631,-5.6406,-5.681,-5.8107,-5.8684,-5.9223,-6.0069,-6.0531,-6.0714,-6.0508,-6.025,-5.9931,-5.9511,-5.9009,-5.8611,-5.8397,-5.8164,-5.7997,-5.7997,-5.7997,-5.7831,-5.7464,-5.7042,-5.6473,-5.5721,-5.4858,-5.4399,-5.4399,-5.4438,-5.4353,-5.4118,-5.439,-5.4373,-5.4118,-5.3887,-5.3585,-5.3185,-5.3185,-5.3185,-5.3185,-5.3185,-5.3185,-5.3185,-5.3185,-5.2491,-5.1389,-5.0967,-5.0031,-4.893,-4.8471,-4.8306,-4.8306,-4.8306,-4.8306,-4.8306,-4.8306,-4.8306,-4.8306,-4.8306,-4.7877,-4.7342,-4.7021,-4.6233,-4.5433,-4.5152,-4.4841,-4.4192,-4.2625,-4.2286,-4.1935,-4.0764,-4.0311,-4.0179,-4.0473,-4.0286,-4.0096,-4.0096,-4.0096,-4.0096,-4.0096,-4.0096,-4.0096,-4.0096,-4.0096,-4.0096,-4.0096,-4.0096,-4.0096,-4.0096,-4.0096,-4.0343,-4.088,-4.149,-4.2185,-4.305,-4.3357,-4.3232,-4.2711,-4.2711,-4.208,-4.0903,-4.1512,-4.1621,-5.3353,-5.4362,-5.5414,-5.5494,-5.6021,-5.6537,-5.6755,-5.6233,-5.5703,-5.5703,-5.5703,-5.6011,-5.7022,-5.78,-5.8607,-5.955,-6.0319,-6.0634,-6.0161,-6.004,-5.9677,-5.8796,-5.8652,-5.8439,-5.8024,-5.7886,-5.7813,-5.7813,-5.7703,-5.7336,-5.6657,-5.651,-5.5812,-5.4436,-5.4289,-5.4259,-5.4307,-5.4035,-5.4135,-5.4579,-5.464,-5.4609,-5.4487,-5.4153,-5.372,-5.3206,-5.3272,-5.3251,-5.3185,-5.3185,-5.3185,-5.3185,-5.3185,-5.2307,-5.0967,-5.0857,-4.9829,-4.8489,-4.8361,-4.8306,-4.8306,-4.8306,-4.8306,-4.8306,-4.8306,-4.8306,-4.8306,-4.8306,-4.7937,-4.7385,-4.671,-4.6167,-4.5597,-4.4906,-4.4663,-4.416,-4.2618,-4.2202,-4.1764,-4.0476,-4.0171,-4.0121,-4.0204,-4.0229,-4.0179,-4.0121,-4.0154,-4.0229,-4.0229,-4.0146,-4.0121,-4.0204,-4.0146,-4.0096,-4.0096,-4.0096,-4.0096,-4.0096,-4.0096,-4.0368,-4.1018,-4.1707,-4.2523,-4.3479,-4.3427,-4.3105,-4.2577,-4.248,-4.1895,-4.0903,-4.1512,-4.1853,-5.4032,-5.5434,-5.6375,-5.5012,-5.5805,-5.6736,-5.6049,-5.5799,-5.5703,-5.5703,-5.5703,-5.6184,-5.78,-5.8204,-5.88,-6.0339,-6.0704,-6.0634,-6.0161,-5.9757,-5.932,-5.8756,-5.8351,-5.8092,-5.802,-5.7373,-5.6987,-5.6987,-5.6345,-5.5904,-5.5776,-5.5133,-5.4656,-5.4418,-5.3739,-5.3543,-5.3887,-5.4209,-5.4594,-5.5007,-5.5343,-5.516,-5.4519,-5.4775,-5.427,-5.3227,-5.3546,-5.3505,-5.3185,-5.3185,-5.3185,-5.3185,-5.3185,-5.2637,-5.172,-5.1041,-5.0196,-4.9279,-4.8563,-4.8306,-4.8306,-4.8306,-4.8306,-4.8306,-4.8306,-4.8306,-4.8306,-4.8306,-4.823,-4.8035,-4.7406,-4.7172,-4.6819,-4.5648,-4.4898,-4.4036,-4.2615,-4.1813,-4.124,-4.0851,-4.0417,-4.0254,-4.0703,-4.078,-4.0607,-4.0171,-4.0497,-4.078,-4.078,-4.0368,-4.0262,-4.0726,-4.0368,-4.0096,-4.0096,-4.0096,-4.0096,-4.0096,-4.0096,-4.057,-4.1621,-4.2678,-4.3321,-4.3497,-4.305,-4.2539,-4.1937,-4.1424,-4.1087,-4.0903,-4.1512,-4.2062,-5.3665,-5.5006,-5.6118,-5.533,-5.6755,-5.8242,-5.7838,-5.7049,-5.6406,-5.6406,-5.603,-5.6088,-5.7357,-5.7973,-5.8858,-6.0531,-6.0578,-6.025,-5.9792,-5.932,-5.8855,-5.8394,-5.8142,-5.7831,-5.7391,-5.7024,-5.662,-5.618,-5.5794,-5.5409,-5.4968,-5.4601,-5.4197,-5.3775,-5.3586,-5.3739,-5.417,-5.4609,-5.4924,-5.5101,-5.5512,-5.5399,-5.4819,-5.5021,-5.4528,-5.3545,-5.372,-5.3565,-5.3185,-5.3185,-5.3185,-5.3185,-5.3185,-5.2454,-5.1206,-4.9921,-4.9224,-4.8838,-4.8434,-4.8306,-4.8306,-4.8306,-4.8306,-4.8306,-4.8306,-4.8306,-4.8306,-4.8306,-4.8075,-4.7756,-4.747,-4.7128,-4.6603,-4.5567,-4.4868,-4.3988,-4.2516,-4.1682,-4.1155,-4.0935,-4.0703,-4.0703,-4.1291,-4.138,-4.1291,-4.1053,-4.1241,-4.138,-4.138,-4.0874,-4.0631,-4.088,-4.0417,-4.0096,-4.0096,-4.0096,-4.0096,-4.0096,-4.0689,-4.1241,-4.1789,-4.2885,-4.3356,-4.3069,-4.2826,-4.2244,-4.1313,-4.1041,-4.0903,-4.0903,-4.1512,-4.2121,-5.3424,-5.4502,-5.563,-5.5918,-5.7461,-5.8973,-5.9165,-5.8069,-5.7003,-5.7003,-5.6483,-5.6214,-5.6887,-5.7877,-5.9069,-6.055,-6.0411,-5.9931,-5.9477,-5.899,-5.8526,-5.8047,-5.7831,-5.7483,-5.6877,-5.6473,-5.5978,-5.5354,-5.5133,-5.4766,-5.4161,-5.4124,-5.3849,-5.3203,-5.3585,-5.4013,-5.4503,-5.4909,-5.5147,-5.5237,-5.5535,-5.5489,-5.5088,-5.5199,-5.4708,-5.3814,-5.3924,-5.3663,-5.3185,-5.3185,-5.3185,-5.3167,-5.3004,-5.194,-5.0362,-4.9077,-4.8489,-4.8306,-4.8306,-4.8306,-4.8306,-4.8306,-4.8306,-4.8306,-4.8306,-4.8306,-4.8306,-4.8306,-4.7957,-4.7578,-4.7397,-4.6946,-4.6337,-4.5378,-4.4712,-4.392,-4.2596,-4.1785,-4.128,-4.114,-4.111,-4.1268,-4.1707,-4.1916,-4.1958,-4.1832,-4.1916,-4.2,-4.2,-4.149,-4.1178,-4.1313,-4.0838,-4.0441,-4.0311,-4.0154,-4.0096,-4.0096,-4.1053,-4.1643,-4.1793,-4.2639,-4.2977,-4.2711,-4.242,-4.1814,-4.0903,-4.0903,-4.0972,-4.1133,-4.1729,-4.2342,-5.4106,-5.4711,-5.5416,-5.6534,-5.6995,-5.7387,-5.8204,-5.7665,-5.7003,-5.7003,-5.6945,-5.6926,-5.6983,-5.8319,-5.9723,-6.0646,-6.0411,-5.9931,-5.9477,-5.899,-5.8526,-5.8047,-5.7336,-5.6877,-5.6822,-5.5445,-5.4546,-5.4491,-5.3794,-5.3353,-5.3277,-5.3277,-5.3259,-5.3185,-5.3585,-5.4013,-5.4503,-5.4909,-5.5294,-5.5651,-5.5692,-5.5489,-5.5101,-5.5489,-5.4969,-5.3833,-5.4255,-5.3979,-5.3185,-5.3185,-5.3185,-5.3133,-5.238,-5.1096,-4.9665,-4.9555,-4.8985,-4.8306,-4.8306,-4.8306,-4.8306,-4.8306,-4.8306,-4.8306,-4.8306,-4.8306,-4.8306,-4.8306,-4.8267,-4.8065,-4.7313,-4.7092,-4.6701,-4.5332,-4.4471,-4.3732,-4.3001,-4.2268,-4.1756,-4.1746,-4.1746,-4.175,-4.1793,-4.2244,-4.246,-4.1895,-4.2282,-4.2635,-4.2635,-4.2121,-4.1958,-4.25,-4.2021,-4.1446,-4.088,-4.0392,-4.0096,-4.0096,-4.0631,-4.1223,-4.1789,-4.1895,-4.2162,-4.2692,-4.1599,-4.0995,-4.0903,-4.0903,-4.1201,-4.175,-4.2342,-4.2939,-5.3573,-5.3967,-5.4577,-5.5837,-5.5969,-5.6395,-5.8543,-5.8396,-5.7953,-5.8454,-5.8165,-5.7819,-5.7819,-5.8338,-5.9031,-5.9858,-5.9345,-5.88,-5.8669,-5.8009,-5.7269,-5.6591,-5.6235,-5.5849,-5.5372,-5.4766,-5.4197,-5.3702,-5.3369,-5.3185,-5.3185,-5.3185,-5.3185,-5.3185,-5.387,-5.4322,-5.4503,-5.5147,-5.5554,-5.5703,-5.5703,-5.561,-5.5489,-5.564,-5.53,-5.4587,-5.4532,-5.4154,-5.3546,-5.3295,-5.2913,-5.2325,-5.1004,-5.0143,-4.9537,-4.8985,-4.8581,-4.8306,-4.8306,-4.8306,-4.8306,-4.8306,-4.8306,-4.8306,-4.8306,-4.8306,-4.8306,-4.8306,-4.8306,-4.8122,-4.7314,-4.7094,-4.6727,-4.5167,-4.4355,-4.3682,-4.294,-4.2255,-4.1916,-4.2282,-4.2362,-4.2462,-4.2791,-4.3051,-4.3124,-4.2903,-4.3051,-4.3196,-4.3196,-4.2694,-4.246,-4.2692,-4.1814,-4.1155,-4.0926,-4.0417,-4.0096,-4.0096,-4.0601,-4.0995,-4.1246,-4.1599,-4.1729,-4.1578,-4.1133,-4.0903,-4.0903,-4.0903,-4.1402,-4.2362,-4.2596,-4.2976,-5.3185,-5.3402,-5.3851,-5.4862,-5.5007,-5.5535,-5.7972,-5.8404,-5.8473,-5.9011,-5.8454,-5.7973,-5.8261,-5.8088,-5.8165,-5.8992,-5.832,-5.7731,-5.7767,-5.6992,-5.6216,-5.5666,-5.5372,-5.4987,-5.4454,-5.4179,-5.3794,-5.3243,-5.3185,-5.3185,-5.3185,-5.3185,-5.3251,-5.34,-5.4102,-5.4566,-5.4705,-5.5356,-5.5703,-5.5703,-5.5703,-5.5703,-5.5703,-5.5703,-5.5489,-5.5075,-5.4671,-5.4322,-5.3977,-5.3145,-5.2197,-5.1134,-5.0033,-4.9445,-4.9114,-4.8526,-4.8306,-4.8306,-4.8306,-4.8306,-4.8306,-4.8306,-4.8306,-4.8306,-4.8306,-4.8306,-4.8306,-4.8306,-4.8122,-4.7736,-4.6929,-4.6709,-4.6305,-4.4709,-4.4035,-4.3611,-4.3067,-4.2619,-4.2464,-4.2865,-4.2958,-4.3069,-4.3427,-4.3699,-4.3791,-4.3551,-4.3718,-4.3791,-4.3533,-4.3178,-4.2958,-4.2958,-4.1898,-4.1161,-4.1161,-4.0521,-4.0096,-4.0096,-4.0424,-4.0709,-4.088,-4.1133,-4.115,-4.0903,-4.0733,-4.0733,-4.0903,-4.1087,-4.1725,-4.2693,-4.2883,-4.316,-5.3185,-5.3185,-5.3295,-5.3702,-5.4153,-5.4821,-5.6087,-5.7378,-5.83,-5.83,-5.7607,-5.7272,-5.8127,-5.7569,-5.7261,-5.8146,-5.7501,-5.6882,-5.6882,-5.6156,-5.5574,-5.5596,-5.4858,-5.4399,-5.4399,-5.3683,-5.3185,-5.3185,-5.3185,-5.3185,-5.3185,-5.3185,-5.3381,-5.3796,-5.4255,-5.4686,-5.5107,-5.5501,-5.5703,-5.5703,-5.5703,-5.5703,-5.5703,-5.5703,-5.5489,-5.5075,-5.4671,-5.4503,-5.4382,-5.2694,-5.1042,-4.9592,-4.9592,-4.9058,-4.8306,-4.8306,-4.8306,-4.8306,-4.8306,-4.8306,-4.8306,-4.8306,-4.8306,-4.8306,-4.8306,-4.8306,-4.8306,-4.8306,-4.7718,-4.6911,-4.6104,-4.5883,-4.548,-4.3882,-4.3515,-4.3515,-4.3515,-4.3515,-4.3515,-4.3515,-4.3515,-4.3515,-4.3515,-4.4176,-4.4433,-4.3643,-4.4176,-4.4415,-4.3606,-4.3515,-4.3515,-4.3515,-4.2483,-4.181,-4.181,-4.0767,-4.0096,-4.0096,-4.0096,-4.0343,-4.0856,-4.0392,-4.0343,-4.088,-4.0368,-4.0368,-4.0903,-4.1512,-4.2121,-4.2731,-4.325,-4.3515,-5.2509,-5.2362,-5.2451,-5.2865,-5.3495,-5.4277,-5.5256,-5.6477,-5.755,-5.8165,-5.7607,-5.708,-5.7338,-5.6665,-5.6272,-5.6862,-5.6447,-5.5952,-5.5675,-5.5138,-5.4546,-5.3977,-5.3702,-5.3573,-5.3573,-5.3332,-5.3185,-5.3185,-5.3185,-5.3185,-5.3185,-5.3185,-5.3381,-5.3796,-5.4255,-5.4686,-5.5107,-5.5501,-5.5703,-5.5703,-5.5703,-5.5703,-5.5703,-5.5703,-5.5621,-5.5501,-5.5107,-5.4924,-5.4753,-5.2498,-5.0935,-4.9861,-4.9009,-4.8526,-4.8306,-4.8306,-4.8306,-4.8306,-4.8306,-4.8306,-4.8306,-4.8306,-4.8306,-4.8306,-4.8306,-4.8306,-4.8306,-4.8306,-4.7718,-4.6911,-4.6104,-4.548,-4.48,-4.3736,-4.3515,-4.3515,-4.3515,-4.3515,-4.3515,-4.3515,-4.3956,-4.4342,-4.4342,-4.4544,-4.4618,-4.4378,-4.4066,-4.3754,-4.3533,-4.3515,-4.3515,-4.3515,-4.2483,-4.1958,-4.24,-4.1353,-4.0655,-4.0655,-4.0655,-4.0577,-4.036,-4.0179,-4.0154,-4.0319,-4.0179,-4.057,-4.1534,-4.1707,-4.2286,-4.3268,-4.3427,-4.3515,-5.2619,-5.2472,-5.2537,-5.2765,-5.3311,-5.403,-5.4905,-5.6094,-5.7253,-5.8127,-5.7607,-5.7003,-5.7003,-5.6153,-5.554,-5.5847,-5.5362,-5.4849,-5.4615,-5.4203,-5.3739,-5.3259,-5.2937,-5.2769,-5.2769,-5.2769,-5.2769,-5.2769,-5.302,-5.3185,-5.3185,-5.3185,-5.3482,-5.4048,-5.4338,-5.4628,-5.4872,-5.5097,-5.5049,-5.4703,-5.4703,-5.4703,-5.4722,-5.5395,-5.5703,-5.5673,-5.5109,-5.4282,-5.3257,-5.1911,-5.0684,-4.9551,-4.8825,-4.8439,-4.8306,-4.8306,-4.8306,-4.8306,-4.8306,-4.8306,-4.8306,-4.8306,-4.8306,-4.8306,-4.8306,-4.8306,-4.8233,-4.7901,-4.7241,-4.6452,-4.5626,-4.4837,-4.4103,-4.3608,-4.3515,-4.3515,-4.3515,-4.3515,-4.3589,-4.3901,-4.4378,-4.4691,-4.4691,-4.4984,-4.5076,-4.4746,-4.4562,-4.4452,-4.4452,-4.4158,-4.3975,-4.3975,-4.2663,-4.2041,-4.2655,-4.1599,-4.0903,-4.0903,-4.1133,-4.0897,-4.0121,-4.0096,-4.0096,-4.0096,-4.0311,-4.0868,-4.181,-4.2041,-4.2619,-4.3515,-4.3515,-4.3515,-5.3185,-5.3185,-5.3203,-5.3277,-5.3616,-5.4105,-5.4881,-5.5968,-5.7066,-5.7885,-5.7434,-5.6887,-5.6887,-5.5904,-5.5075,-5.5048,-5.4333,-5.3796,-5.374,-5.3442,-5.3185,-5.3185,-5.2554,-5.2136,-5.2183,-5.2136,-5.2136,-5.2201,-5.2831,-5.3185,-5.3185,-5.3133,-5.3491,-5.4339,-5.4314,-5.4325,-5.4376,-5.4376,-5.3972,-5.3203,-5.3203,-5.3203,-5.326,-5.478,-5.5472,-5.5434,-5.4703,-5.3018,-5.0832,-5.116,-5.0392,-4.8994,-4.893,-4.8675,-4.8345,-4.8325,-4.8306,-4.8306,-4.8306,-4.8306,-4.8306,-4.8306,-4.8306,-4.8306,-4.8306,-4.8306,-4.8141,-4.7333,-4.6526,-4.5718,-4.4911,-4.4103,-4.3515,-4.3515,-4.3515,-4.3515,-4.3515,-4.3515,-4.3736,-4.4544,-4.4746,-4.4801,-4.4801,-4.548,-4.5736,-4.4947,-4.5424,-4.5902,-4.5902,-4.5204,-4.4691,-4.4691,-4.3008,-4.2103,-4.2713,-4.1729,-4.1064,-4.1064,-4.1578,-4.1397,-4.0303,-4.0204,-4.0146,-4.0096,-4.0631,-4.1201,-4.181,-4.242,-4.2976,-4.3515,-4.3515,-4.3462,-5.3185,-5.3185,-5.3353,-5.3977,-5.4448,-5.4726,-5.4651,-5.5085,-5.5644,-5.6159,-5.6107,-5.5972,-5.5972,-5.5502,-5.4993,-5.4671,-5.4151,-5.3683,-5.338,-5.3251,-5.3185,-5.3185,-5.2554,-5.2335,-5.2915,-5.2445,-5.2335,-5.2915,-5.3103,-5.3185,-5.3185,-5.2601,-5.2621,-5.3456,-5.2881,-5.2843,-5.3462,-5.3491,-5.3395,-5.3203,-5.3203,-5.3203,-5.3222,-5.3568,-5.3741,-5.3741,-5.3549,-5.2784,-5.1617,-5.1398,-5.0723,-4.9787,-4.9155,-4.8846,-4.8727,-4.8421,-4.8306,-4.8306,-4.8306,-4.8306,-4.8306,-4.8306,-4.8306,-4.8306,-4.8306,-4.8306,-4.8141,-4.7333,-4.6526,-4.5718,-4.4911,-4.4103,-4.3515,-4.3515,-4.3515,-4.3515,-4.3515,-4.3515,-4.3736,-4.4544,-4.5223,-4.5645,-4.5645,-4.6324,-4.6562,-4.5755,-4.5792,-4.5902,-4.5902,-4.5204,-4.4691,-4.4691,-4.3374,-4.2732,-4.3268,-4.2714,-4.2322,-4.2322,-4.2422,-4.2183,-4.1464,-4.099,-4.0528,-4.0096,-4.0631,-4.1201,-4.181,-4.242,-4.2976,-4.3515,-4.3515,-4.3268,-5.2729,-5.2913,-5.3316,-5.372,-5.4134,-5.4428,-5.45,-5.4804,-5.5212,-5.5629,-5.5703,-5.5703,-5.5703,-5.5212,-5.4731,-5.4516,-5.3943,-5.3424,-5.3227,-5.3185,-5.3082,-5.2725,-5.2042,-5.1618,-5.1661,-5.1636,-5.1783,-5.2172,-5.2809,-5.3041,-5.2656,-5.2215,-5.2176,-5.2608,-5.222,-5.2197,-5.2577,-5.2577,-5.2375,-5.1991,-5.1991,-5.1991,-5.2029,-5.2837,-5.2972,-5.2577,-5.2577,-5.2106,-5.1308,-5.1086,-5.0654,-5.0043,-4.9431,-4.9059,-4.8846,-4.8458,-4.8306,-4.8306,-4.8306,-4.8306,-4.8306,-4.8306,-4.8306,-4.8306,-4.8306,-4.8306,-4.8049,-4.6874,-4.6214,-4.5626,-4.4433,-4.3809,-4.3515,-4.3515,-4.3515,-4.3515,-4.3515,-4.3515,-4.3736,-4.4544,-4.5351,-4.5773,-4.5388,-4.5681,-4.5938,-4.5902,-4.6232,-4.6617,-4.7003,-4.6342,-4.57,-4.5333,-4.4086,-4.3338,-4.3481,-4.2995,-4.2711,-4.2711,-4.2939,-4.2694,-4.1853,-4.1789,-4.149,-4.0932,-4.1486,-4.1916,-4.2223,-4.2557,-4.2845,-4.3105,-4.2828,-4.2694,-5.2142,-5.2692,-5.3427,-5.3427,-5.3665,-5.4019,-5.4409,-5.4764,-5.5134,-5.5599,-5.5703,-5.5673,-5.5599,-5.4993,-5.4487,-5.4387,-5.372,-5.3185,-5.3185,-5.3185,-5.2937,-5.2183,-5.1519,-5.085,-5.0241,-5.0635,-5.1008,-5.1241,-5.2226,-5.2569,-5.2032,-5.1738,-5.1639,-5.1756,-5.1635,-5.1608,-5.1692,-5.1692,-5.1356,-5.0712,-5.0712,-5.0712,-5.075,-5.2145,-5.2375,-5.1692,-5.1692,-5.1318,-5.0712,-5.0712,-5.0493,-5.0159,-4.9673,-4.9295,-4.8947,-4.8458,-4.8306,-4.8306,-4.8306,-4.8306,-4.8306,-4.8306,-4.8306,-4.8306,-4.8306,-4.8306,-4.7957,-4.6342,-4.5902,-4.5535,-4.392,-4.3515,-4.3515,-4.3515,-4.3625,-4.3663,-4.3533,-4.3515,-4.3736,-4.4544,-4.5241,-4.5571,-4.5168,-4.4984,-4.5186,-4.5993,-4.6782,-4.7553,-4.8214,-4.759,-4.6782,-4.5993,-4.4781,-4.3886,-4.3535,-4.3087,-4.2845,-4.2845,-4.325,-4.3087,-4.2144,-4.256,-4.2598,-4.2103,-4.25,-4.2711,-4.2711,-4.2788,-4.2788,-4.2692,-4.2284,-4.2264,-5.183,-5.3096,-5.4234,-5.4234,-5.4277,-5.4352,-5.4458,-5.455,-5.479,-5.5554,-5.5703,-5.5588,-5.5237,-5.4823,-5.4373,-5.3959,-5.3504,-5.3185,-5.3185,-5.3185,-5.2937,-5.2183,-5.1519,-5.106,-5.0955,-5.0445,-5.0645,-5.188,-5.1486,-5.1423,-5.1974,-5.0694,-5.0194,-5.0855,-5.0206,-5.0164,-5.0856,-5.0856,-5.0808,-5.0712,-5.0712,-5.0712,-5.0712,-5.0943,-5.0981,-5.0856,-5.0856,-5.0808,-5.0712,-5.0712,-5.0673,-5.0544,-4.9787,-4.946,-4.9326,-4.8586,-4.8306,-4.8306,-4.8306,-4.8306,-4.8306,-4.8306,-4.8306,-4.8306,-4.8306,-4.8306,-4.7957,-4.6342,-4.5902,-4.5535,-4.392,-4.3515,-4.3515,-4.3515,-4.403,-4.436,-4.3662,-4.3515,-4.3736,-4.4544,-4.4783,-4.526,-4.6562,-4.6214,-4.6012,-4.6819,-4.7608,-4.8196,-4.8306,-4.759,-4.6782,-4.5993,-4.5132,-4.4307,-4.3552,-4.3427,-4.3392,-4.3392,-4.3462,-4.3427,-4.3286,-4.3339,-4.3375,-4.3267,-4.2902,-4.2711,-4.2711,-4.3178,-4.3142,-4.2711,-4.3087,-4.2791,-5.1775,-5.2509,-5.3151,-5.3628,-5.3896,-5.4147,-5.4432,-5.4671,-5.5007,-5.5577,-5.5703,-5.5577,-5.5173,-5.476,-5.4357,-5.3888,-5.3464,-5.3185,-5.3185,-5.3185,-5.2787,-5.1685,-5.1266,-5.0796,-4.9993,-4.9965,-5.0243,-5.082,-5.0892,-5.0849,-5.0653,-4.9978,-4.9713,-5.0025,-4.9678,-4.9898,-5.0683,-5.0712,-5.0712,-5.0712,-5.0712,-5.0712,-5.0712,-5.0712,-5.0712,-5.0712,-5.0712,-5.0712,-5.0712,-5.0712,-5.0712,-5.0614,-4.9813,-4.9489,-4.9401,-4.8586,-4.8306,-4.8306,-4.8306,-4.8306,-4.8306,-4.8306,-4.8306,-4.8306,-4.8306,-4.7975,-4.748,-4.6783,-4.625,-4.5626,-4.447,-4.4507,-4.4617,-4.3717,-4.4452,-4.5149,-4.4342,-4.4176,-4.4287,-4.4635,-4.4691,-4.4911,-4.5627,-4.5461,-4.5498,-4.6324,-4.7094,-4.7791,-4.8251,-4.7975,-4.7461,-4.6673,-4.5865,-4.5057,-4.425,-4.3754,-4.3515,-4.3515,-4.3515,-4.3515,-4.3515,-4.3515,-4.3515,-4.3515,-4.3268,-4.316,-4.316,-4.2734,-4.2599,-4.2692,-4.2246,-4.2126,-5.1169,-5.1536,-5.1885,-5.2692,-5.3276,-5.3796,-5.4373,-5.4731,-5.5088,-5.5588,-5.5629,-5.5423,-5.5021,-5.4701,-5.4305,-5.3739,-5.34,-5.3185,-5.3185,-5.3185,-5.268,-5.1284,-5.1086,-5.0544,-4.9138,-4.9462,-4.9777,-4.9904,-5.0162,-5.0127,-4.9626,-4.9488,-4.9448,-4.9493,-4.9608,-4.9987,-5.0683,-5.0712,-5.0712,-5.0712,-5.0712,-5.0712,-5.0712,-5.0712,-5.0712,-5.0712,-5.0712,-5.0712,-5.0712,-5.0712,-5.0634,-5.0483,-4.9773,-4.9431,-4.9265,-4.8568,-4.8306,-4.8306,-4.8306,-4.8306,-4.8306,-4.8306,-4.8159,-4.8012,-4.8012,-4.7571,-4.7058,-4.6856,-4.6526,-4.603,-4.5223,-4.5461,-4.559,-4.4397,-4.5186,-4.5993,-4.5186,-4.5002,-4.5076,-4.526,-4.5131,-4.5076,-4.526,-4.5296,-4.5498,-4.6122,-4.6874,-4.7608,-4.8233,-4.8306,-4.7975,-4.7186,-4.6379,-4.5571,-4.4782,-4.3956,-4.3515,-4.3515,-4.3515,-4.3515,-4.3515,-4.3515,-4.3515,-4.3515,-4.3515,-4.3515,-4.3515,-4.2639,-4.2384,-4.2674,-4.1919,-4.1961,-4.95,-5.027,-5.1059,-5.1848,-5.2658,-5.3442,-5.4307,-5.4519,-5.4745,-5.5554,-5.5399,-5.5007,-5.4613,-5.45,-5.4223,-5.3378,-5.3206,-5.3185,-5.3185,-5.3185,-5.268,-5.1284,-5.1086,-5.0544,-4.9138,-4.9032,-4.9301,-4.9852,-4.9238,-4.9054,-4.957,-4.9176,-4.9115,-4.9475,-4.9885,-5.0272,-5.0702,-5.0712,-5.0712,-5.0712,-5.0712,-5.0712,-5.0712,-5.0712,-5.0712,-5.0712,-5.0712,-5.0712,-5.0712,-5.0712,-5.0483,-5.008,-4.9678,-4.9265,-4.888,-4.8458,-4.8306,-4.8306,-4.8306,-4.8306,-4.8306,-4.8306,-4.7773,-4.7168,-4.7168,-4.7131,-4.6929,-4.6177,-4.6489,-4.6856,-4.6049,-4.5865,-4.5883,-4.5792,-4.6434,-4.6819,-4.6012,-4.5847,-4.6067,-4.6819,-4.6361,-4.6085,-4.6837,-4.6984,-4.6984,-4.7021,-4.7718,-4.8251,-4.8306,-4.8306,-4.7975,-4.7186,-4.6379,-4.5571,-4.4782,-4.3956,-4.3515,-4.3515,-4.3515,-4.3515,-4.3515,-4.3515,-4.3515,-4.3515,-4.3515,-4.3515,-4.3515,-4.3444,-4.3178,-4.2711,-4.316,-4.3124,-4.9372,-4.9812,-5.0215,-5.1022,-5.183,-5.2647,-5.348,-5.4088,-5.4659,-5.5199,-5.5199,-5.489,-5.4168,-5.4048,-5.387,-5.3274,-5.3185,-5.3185,-5.3185,-5.2791,-5.2154,-5.1215,-5.0689,-5.0033,-4.9077,-4.9001,-4.9054,-4.9103,-4.8851,-4.8721,-4.8761,-4.8859,-4.9075,-4.9489,-4.9898,-5.0283,-5.0702,-5.0712,-5.0712,-5.0712,-5.0712,-5.0712,-5.0712,-5.0712,-5.0712,-5.0712,-5.0712,-5.0712,-5.0712,-5.0712,-5.0472,-5.0056,-4.9664,-4.9249,-4.8846,-4.8458,-4.8306,-4.8306,-4.8306,-4.8306,-4.8306,-4.8306,-4.7755,-4.7094,-4.7094,-4.6379,-4.57,-4.6452,-4.6526,-4.6379,-4.6599,-4.7058,-4.7443,-4.7443,-4.7259,-4.7149,-4.7388,-4.704,-4.6599,-4.6379,-4.6507,-4.6599,-4.6379,-4.6746,-4.7094,-4.7094,-4.7773,-4.8306,-4.8306,-4.8306,-4.8196,-4.7901,-4.7149,-4.6342,-4.5535,-4.4727,-4.4048,-4.3533,-4.3515,-4.3515,-4.3515,-4.3515,-4.3515,-4.3515,-4.3515,-4.3515,-4.3515,-4.3142,-4.305,-4.3214,-4.305,-4.3087,-4.86,-4.917,-4.9794,-5.06,-5.1206,-5.1906,-5.3127,-5.3747,-5.425,-5.4964,-5.4993,-5.4731,-5.4153,-5.3796,-5.3505,-5.323,-5.3185,-5.3185,-5.3185,-5.2576,-5.1856,-5.1189,-5.0445,-4.9751,-4.9063,-4.9212,-4.916,-4.8741,-4.8915,-4.882,-4.8321,-4.8813,-4.9356,-4.9898,-5.0159,-5.0421,-5.0712,-5.0712,-5.0712,-5.0712,-5.0712,-5.0712,-5.0712,-5.0712,-5.0712,-5.0712,-5.0712,-5.0712,-5.0683,-5.0554,-5.026,-4.9853,-4.946,-4.9043,-4.8657,-4.8402,-4.8306,-4.8306,-4.8306,-4.8306,-4.8306,-4.8306,-4.7755,-4.7094,-4.7094,-4.6342,-4.5718,-4.6801,-4.6911,-4.6838,-4.7351,-4.7901,-4.8306,-4.8306,-4.7902,-4.7645,-4.8196,-4.7865,-4.7333,-4.6819,-4.715,-4.7314,-4.6801,-4.7168,-4.7498,-4.7498,-4.7957,-4.8306,-4.8306,-4.8306,-4.8306,-4.8306,-4.7571,-4.6874,-4.6361,-4.5333,-4.447,-4.3938,-4.3662,-4.3515,-4.3515,-4.3515,-4.3515,-4.3515,-4.3515,-4.3515,-4.3515,-4.3142,-4.316,-4.3479,-4.3124,-4.316,0.0,0.0,0.0,-5.0527,-5.0747,-5.1273,-5.3256,-5.3403,-5.3498,-5.4765,-5.4727,-5.4449,-5.4471,-5.3777,-5.3185,-5.3185,-5.3185,-5.3185,-5.3185,-5.2554,-5.1832,-5.1164,-5.0417,-4.9722,-4.9046,-4.9622,-4.9642,-4.8801,-4.934,-4.93,-4.8378,-4.908,-4.9872,-5.0673,-5.0712,-5.0693,-5.0702,-5.0693,-5.0693,-5.0702,-5.0693,-5.0712,-5.0712,-5.0712,-5.0712,-5.0712,-5.0712,-5.0712,-5.0673,-5.026,-4.9853,-4.946,-4.9059,-4.8657,-4.8306,-4.8306,-4.8306,-4.8306,-4.8306,-4.8306,-4.8306,-4.8306,-4.7755,-4.7094,-4.7094,-4.7076,-4.7076,-4.7094,-4.7663,-4.8269,-4.8306,-4.8306,-4.8306,-4.8306,-4.8306,-4.8306,-4.8306,-4.8306,-4.8306,-4.8306,-4.8306,-4.8306,-4.8306,-4.8306,-4.8306,-4.8306,-4.8306,-4.8306,-4.8306,-4.8288,-4.8269,-4.8269,-4.7571,-4.7076,-4.7021,-4.5608,-4.4727,-4.4654,-4.392,-4.3515,-4.3515,-4.3515,-4.3515,-4.3515,-4.3515,-4.3515,-4.3515,-4.3515,-4.3515,-4.3515,-4.3515,-4.3515,-4.7094,0.0,0.0,0.0,0.0,0.0,-5.0987,-5.1552,-5.2156,-5.3099,-5.32,-5.3215,-5.3492,-5.3357,-5.3185,-5.3185,-5.3185,-5.3185,-5.3185,-5.2149,-5.1317,-5.1112,-5.0022,-4.9212,-4.9032,-4.9622,-4.9896,-4.9586,-4.9662,-4.9554,-4.9259,-4.9398,-4.9872,-5.0673,-5.0712,-5.0758,-5.0844,-5.0739,-5.0739,-5.0844,-5.0758,-5.0712,-5.0712,-5.0712,-5.0712,-5.0712,-5.0712,-5.0712,-5.0673,-5.026,-4.9853,-4.946,-4.9059,-4.8657,-4.8306,-4.8306,-4.8306,-4.8306,-4.8306,-4.8306,-4.8306,-4.8306,-4.7755,-4.7094,-4.7094,-4.6691,-4.6361,-4.6929,-4.7259,-4.7571,-4.8159,-4.8306,-4.8306,-4.8306,-4.8306,-4.8306,-4.8306,-4.8306,-4.8306,-4.8306,-4.8306,-4.8306,-4.8306,-4.8306,-4.8306,-4.8306,-4.8306,-4.8306,-4.8306,-4.7791,-4.7424,-4.7424,-4.7223,-4.6636,-4.5461,-4.5498,-4.5076,-4.3901,-4.3608,-4.3515,-4.3515,-4.3515,-4.3515,-4.3515,-4.3515,-4.3515,-4.3515,-4.3515,-4.3515,-4.3515,-4.3515,-4.3515,-4.7094,-4.7813,-4.8606,-4.8786,0.0,0.0,-5.0269,-5.0673,-5.113,-5.1931,-5.2361,-5.2661,-5.2913,-5.3077,-5.3185,-5.3185,-5.3185,-5.3103,-5.2769,-5.1801,-5.0981,-5.0689,-4.9956,-4.9447,-4.9424,-5.0327,-5.0751,-5.0332,-5.0218,-4.998,-4.9578,-4.9515,-4.9872,-5.0673,-5.0748,-5.0822,-5.0908,-5.083,-5.083,-5.0908,-5.0766,-5.0712,-5.0712,-5.0712,-5.0712,-5.0712,-5.0712,-5.0712,-5.0663,-5.008,-4.9719,-4.9445,-4.8863,-4.8513,-4.8306,-4.8306,-4.8306,-4.8306,-4.8306,-4.8306,-4.8306,-4.8306,-4.7994,-4.759,-4.759,-4.7278,-4.7003,-4.7461,-4.759,-4.77,-4.8196,-4.8306,-4.8306,-4.8306,-4.8306,-4.8306,-4.8306,-4.8306,-4.8306,-4.8306,-4.8306,-4.8306,-4.8306,-4.8306,-4.8306,-4.8306,-4.8306,-4.8306,-4.8306,-4.7902,-4.759,-4.759,-4.7296,-4.6727,-4.5773,-4.5535,-4.5002,-4.4066,-4.3681,-4.3515,-4.3515,-4.3515,-4.3515,-4.3515,-4.3515,-4.3515,-4.3515,-4.3515,-4.3515,-4.3515,-4.3515,-4.3515,-4.7094,-4.7976,-4.9016,-4.9417,-4.9213,0.0,-5.0337,-5.0269,-5.0204,-5.1023,-5.1767,-5.2288,-5.2381,-5.2761,-5.3041,-5.2968,-5.3075,-5.2937,-5.2183,-5.1519,-5.0858,-5.0211,-5.0193,-5.0213,-5.0155,-5.1472,-5.1971,-5.111,-5.0873,-5.0454,-4.9671,-4.9546,-4.9879,-5.0693,-5.0835,-5.0911,-5.0933,-5.0932,-5.0918,-5.0918,-5.0791,-5.0721,-5.0712,-5.0712,-5.0712,-5.0712,-5.0712,-5.0673,-5.0565,-4.9813,-4.9489,-4.9416,-4.8622,-4.8306,-4.8306,-4.8306,-4.8306,-4.8306,-4.8306,-4.8306,-4.8306,-4.8306,-4.8306,-4.8306,-4.8306,-4.8306,-4.8306,-4.8306,-4.8306,-4.8306,-4.8306,-4.8306,-4.8306,-4.8306,-4.8306,-4.8306,-4.8306,-4.8306,-4.8306,-4.8306,-4.8306,-4.8306,-4.8306,-4.8306,-4.8306,-4.8306,-4.8306,-4.8306,-4.8306,-4.8233,-4.8177,-4.8177,-4.7516,-4.7021,-4.6856,-4.559,-4.4746,-4.458,-4.3901,-4.3515,-4.3515,-4.3515,-4.3515,-4.3515,-4.3515,-4.3515,-4.3515,-4.3515,-4.3515,-4.3515,-4.3515,-4.3515,-4.7094,-4.7976,-4.8917,-4.9018,-4.8959,0.0,-4.9205,-4.8974,-4.8899,-4.9766,-5.0079,-5.0392,-5.1035,-5.1746,-5.2013,-5.1371,-5.2362,-5.2937,-5.2183,-5.1519,-5.107,-5.0985,-5.1037,-5.1042,-5.0974,-5.2254,-5.275,-5.1927,-5.1201,-5.0694,-5.0467,-4.9847,-4.9923,-5.0832,-5.0886,-5.099,-5.1135,-5.1089,-5.1053,-5.1067,-5.0925,-5.0797,-5.0712,-5.0712,-5.0712,-5.0712,-5.0712,-5.0523,-5.0171,-4.9706,-4.9489,-4.9416,-4.8622,-4.8306,-4.8306,-4.8306,-4.8306,-4.8306,-4.8306,-4.8306,-4.8306,-4.8306,-4.8306,-4.8306,-4.8306,-4.8306,-4.8306,-4.8306,-4.8306,-4.8306,-4.8306,-4.8306,-4.8306,-4.8306,-4.8306,-4.8306,-4.8306,-4.8306,-4.8306,-4.8306,-4.8306,-4.8306,-4.8306,-4.8306,-4.8306,-4.8306,-4.8306,-4.8306,-4.8306,-4.7718,-4.7333,-4.7333,-4.7186,-4.6581,-4.5278,-4.548,-4.5112,-4.3809,-4.3589,-4.3515,-4.3515,-4.3515,-4.3515,-4.3515,-4.3515,-4.3515,-4.3515,-4.3515,-4.3515,-4.3515,-4.3515,-4.3515,-4.781,-4.843,-4.9155,-4.8963,-4.9202,0.0,0.0,-4.888,-4.8715,-4.9159,-4.9435,-4.9721,-5.0123,-5.0857,-5.1261,-5.0875,-5.1811,-5.2188,-5.1063,-5.1037,-5.0982,-5.0627,-5.0986,-5.1353,-5.1617,-5.2623,-5.2917,-5.2112,-5.1261,-5.0768,-5.0693,-4.9942,-4.9929,-5.0867,-5.0959,-5.105,-5.1201,-5.1133,-5.1089,-5.1108,-5.0901,-5.0766,-5.0712,-5.0712,-5.0712,-5.0712,-5.0712,-5.0472,-5.0068,-4.9678,-4.9386,-4.9139,-4.8532,-4.8306,-4.8306,-4.8306,-4.8306,-4.8306,-4.8306,-4.8306,-4.8306,-4.8306,-4.8306,-4.8306,-4.8306,-4.8306,-4.8306,-4.8306,-4.8306,-4.8306,-4.8306,-4.8306,-4.8306,-4.8306,-4.8306,-4.8306,-4.8306,-4.8306,-4.8306,-4.8306,-4.8306,-4.8306,-4.8306,-4.8306,-4.8306,-4.8306,-4.8306,-4.8306,-4.8306,-4.7957,-4.77,-4.77,-4.7333,-4.6599,-4.5406,-4.5296,-4.4782,-4.3588,-4.3515,-4.3515,-4.3515,-4.3515,-4.3515,-4.3515,-4.3515,-4.3515,-4.3515,-4.3515,-4.3515,-4.3515,-4.3515,-4.3515,-4.8622,-4.8965,-4.9445,-4.9202,-4.9617,-4.9999,0.0,0.0,0.0,-4.8897,-4.9141,-4.9353,-4.9353,-5.0013,-5.0508,-5.0362,-5.1132,-5.124,-4.9685,-5.0253,-5.0672,-5.0234,-5.105,-5.1793,-5.2264,-5.2851,-5.2931,-5.2265,-5.1564,-5.1083,-5.0938,-5.0275,-5.021,-5.0925,-5.1058,-5.1163,-5.1238,-5.1163,-5.1117,-5.1108,-5.0859,-5.0721,-5.0712,-5.0712,-5.0712,-5.0712,-5.0712,-5.0421,-4.9962,-4.9617,-4.9218,-4.8744,-4.8421,-4.8306,-4.8306,-4.8306,-4.8306,-4.8306,-4.8306,-4.8306,-4.8306,-4.8306,-4.8306,-4.8306,-4.8306,-4.8306,-4.8306,-4.8306,-4.8306,-4.8306,-4.8306,-4.8306,-4.8306,-4.8306,-4.8306,-4.8306,-4.8306,-4.8306,-4.8306,-4.8306,-4.8306,-4.8306,-4.8306,-4.8306,-4.8306,-4.8306,-4.8306,-4.8306,-4.8306,-4.8306,-4.8306,-4.8306,-4.7718,-4.6929,-4.5975,-4.5296,-4.4525,-4.357,-4.3515,-4.3515,-4.3515,-4.3515,-4.3515,-4.3515,-4.3515,-4.3515,-4.3515,-4.3515,-4.3515,-4.3515,-4.3515,-4.3515,-4.8968,-4.9155,-4.9575,-4.9898,-5.0043,-5.008,-5.0043,0.0,-4.8897,-4.8897,0.0,-4.8453,-4.8453,0.0,0.0,-4.871,-4.9921,-5.0396,-4.885,-4.9347,-5.011,-5.0805,-5.2172,-5.3061,-5.3069,-5.3153,-5.3158,-5.3057,-5.2638,-5.2204,-5.1785,-5.1445,-5.1217,-5.1078,-5.1147,-5.126,-5.1386,-5.124,-5.1154,-5.1108,-5.0959,-5.0814,-5.0712,-5.0712,-5.0712,-5.0712,-5.0712,-5.0272,-4.9561,-4.9518,-4.9062,-4.8364,-4.8325,-4.8306,-4.8306,-4.8306,-4.8306,-4.8306,-4.8306,-4.8306,-4.8306,-4.8306,-4.8306,-4.8306,-4.8306,-4.8306,-4.8306,-4.8306,-4.8306,-4.8306,-4.8306,-4.8306,-4.8306,-4.8306,-4.8306,-4.8306,-4.8306,-4.8306,-4.8306,-4.8306,-4.8306,-4.8306,-4.8306,-4.8306,-4.8306,-4.8306,-4.8306,-4.8306,-4.8306,-4.8306,-4.8306,-4.8306,-4.8233,-4.7553,-4.603,-4.581,-4.5112,-4.3606,-4.3515,-4.3515,-4.3515,-4.3515,-4.3515,-4.3515,-4.3515,-4.3515,-4.3515,-4.3515,-4.3515,-4.3515,-4.3515,-4.3515,-4.9427,-4.9532,-4.9898,-5.0056,-5.0272,-5.0462,-5.0462,-4.9827,-4.9249,-4.9249,0.0,0.0,0.0,0.0,0.0,0.0,-4.9315,-4.9695,-4.8537,-4.9518,-5.0486,-5.0892,-5.1095,-5.1565,-5.2429,-5.2947,-5.3185,-5.3185,-5.2825,-5.2404,-5.1917,-5.1651,-5.1382,-5.1103,-5.1161,-5.1234,-5.1273,-5.1193,-5.1089,-5.0979,-5.0851,-5.0748,-5.0712,-5.0712,-5.0712,-5.0683,-5.0442,-5.0031,-4.9475,-4.9249,-4.8813,-4.8306,-4.8306,-4.8306,-4.8306,-4.8306,-4.8306,-4.8306,-4.8306,-4.8306,-4.8306,-4.8306,-4.8306,-4.8306,-4.8306,-4.8306,-4.8306,-4.8306,-4.8306,-4.8306,-4.8306,-4.8306,-4.8306,-4.8306,-4.8306,-4.8306,-4.8306,-4.8306,-4.8306,-4.8306,-4.8306,-4.8306,-4.8306,-4.8306,-4.8306,-4.8306,-4.8306,-4.8306,-4.8306,-4.8306,-4.8306,-4.8306,-4.8306,-4.7847,-4.6691,-4.6177,-4.5406,-4.4268,-4.4195,-4.4415,-4.4874,-4.4892,-4.4892,-4.4892,-4.4433,-4.4195,-4.4195,-4.3718,-4.3515,-4.3515,-4.3515,-4.3515,-4.9844,-4.9885,-5.0135,-5.0237,-5.0483,-5.0712,-5.0712,-5.0159,-4.9693,-4.982,-4.9266,0.0,0.0,0.0,-4.8655,-4.8655,0.0,-4.9022,-4.8398,-4.9352,-5.0218,-5.0508,-5.0405,-5.0853,-5.2192,-5.2656,-5.2968,-5.3167,-5.294,-5.2505,-5.1933,-5.2023,-5.1772,-5.1123,-5.1202,-5.1238,-5.1204,-5.1133,-5.102,-5.0908,-5.0766,-5.0712,-5.0712,-5.0712,-5.0712,-5.0673,-5.0272,-4.9885,-4.946,-4.9059,-4.8657,-4.8306,-4.8306,-4.8306,-4.8306,-4.8306,-4.8306,-4.8306,-4.8306,-4.8306,-4.8306,-4.8306,-4.8306,-4.8306,-4.8306,-4.8306,-4.8306,-4.8306,-4.8306,-4.8306,-4.8306,-4.8306,-4.8306,-4.8306,-4.8306,-4.8306,-4.8306,-4.8306,-4.8306,-4.8306,-4.8306,-4.8306,-4.8306,-4.8306,-4.8306,-4.8306,-4.8306,-4.8306,-4.8306,-4.8306,-4.8306,-4.8306,-4.8306,-4.7957,-4.7168,-4.6544,-4.5883,-4.5094,-4.5039,-4.5296,-4.5883,-4.5902,-4.5902,-4.5902,-4.5333,-4.4929,-4.4691,-4.4103,-4.3718,-4.3515,-4.3515,-4.3515,-5.019,-5.008,-5.0183,-5.0575,-5.0683,-5.0712,-5.0712,-5.0388,-5.019,-5.0581,-5.0319,-5.0174,-5.0625,-5.0068,-4.9555,-4.9555,-4.8875,0.0,0.0,-4.8361,-4.8691,-4.9554,-5.0984,-5.2249,-5.3075,-5.2472,-5.2362,-5.313,-5.3193,-5.2808,-5.1948,-5.2943,-5.2785,-5.1147,-5.1283,-5.1322,-5.1204,-5.1133,-5.102,-5.0908,-5.0766,-5.0712,-5.0712,-5.0712,-5.0712,-5.0673,-5.0272,-4.9885,-4.946,-4.9059,-4.8657,-4.8306,-4.8306,-4.8306,-4.8306,-4.8306,-4.8306,-4.8306,-4.8306,-4.8306,-4.8306,-4.8306,-4.8306,-4.8306,-4.8306,-4.8306,-4.8306,-4.8306,-4.8306,-4.8306,-4.8306,-4.8306,-4.8306,-4.8306,-4.8306,-4.8306,-4.8306,-4.8306,-4.8306,-4.8306,-4.8306,-4.8306,-4.8306,-4.8306,-4.8306,-4.8306,-4.8306,-4.8306,-4.8306,-4.8306,-4.8306,-4.8306,-4.8306,-4.7957,-4.7168,-4.7076,-4.6709,-4.5902,-4.5865,-4.5865,-4.5902,-4.5902,-4.5902,-4.5902,-4.5865,-4.548,-4.4691,-4.4654,-4.4268,-4.3515,-4.3515,-4.3515,-5.0519,-5.0493,-5.0534,-5.0663,-5.0712,-5.0712,-5.0712,-5.0399,-5.0203,-5.0619,-5.0628,-5.0439,-5.0079,-5.0009,-4.9713,-4.8878,-4.8489,-4.8306,0.0,-4.8306,-4.8618,-4.9426,-5.0986,-5.1683,-5.0875,-5.1518,-5.2105,-5.238,-5.2159,-5.1975,-5.1895,-5.2094,-5.1872,-5.1123,-5.1208,-5.1223,-5.1137,-5.1113,-5.0985,-5.0775,-5.0712,-5.0712,-5.0712,-5.0712,-5.0712,-5.0663,-4.9987,-4.9636,-4.9445,-4.8779,-4.8421,-4.8306,-4.8306,-4.8306,-4.8306,-4.8306,-4.8306,-4.8306,-4.8306,-4.8306,-4.8306,-4.8306,-4.8306,-4.8306,-4.8306,-4.8306,-4.8306,-4.8306,-4.8306,-4.8306,-4.8306,-4.8306,-4.8306,-4.8306,-4.8306,-4.8306,-4.8306,-4.8306,-4.8306,-4.8306,-4.8306,-4.8306,-4.8306,-4.8306,-4.8306,-4.8306,-4.8306,-4.8306,-4.8306,-4.8306,-4.8306,-4.8306,-4.8306,-4.8196,-4.7921,-4.7406,-4.6984,-4.6709,-4.6691,-4.6948,-4.748,-4.7498,-4.7498,-4.7498,-4.6985,-4.6562,-4.6287,-4.5205,-4.4562,-4.4287,-4.3736,-4.3515,-5.0712,-5.0712,-5.0712,-5.0712,-5.0712,-5.077,-5.1048,-5.0935,-5.0851,-5.129,-5.1424,-5.1235,-5.054,-5.0281,-4.9909,-4.9086,-4.8586,-4.8306,0.0,-4.8306,-4.8489,-4.9003,-5.0288,-5.0859,-5.0106,-5.0712,-5.1261,-5.1555,-5.1195,-5.1114,-5.1461,-5.1479,-5.1382,-5.1103,-5.1161,-5.1164,-5.1094,-5.1089,-5.0804,-5.025,-5.025,-5.0067,-4.9779,-4.9779,-4.9721,-4.9571,-4.9199,-4.8964,-4.8821,-4.8457,-4.8306,-4.8306,-4.8306,-4.8306,-4.8306,-4.8306,-4.8306,-4.8306,-4.8306,-4.8306,-4.8306,-4.8306,-4.8306,-4.8306,-4.8306,-4.8306,-4.8306,-4.8306,-4.8306,-4.8306,-4.8306,-4.8306,-4.8306,-4.8306,-4.8306,-4.8306,-4.8306,-4.8306,-4.8306,-4.8306,-4.8306,-4.8306,-4.8306,-4.8306,-4.8306,-4.8306,-4.8306,-4.8306,-4.8306,-4.8306,-4.8306,-4.8306,-4.8306,-4.8306,-4.8306,-4.781,-4.7516,-4.7516,-4.7516,-4.7755,-4.8288,-4.8306,-4.8306,-4.8306,-4.7791,-4.7388,-4.7094,-4.6049,-4.526,-4.469,-4.4176,-4.3754]},{"header":{"parameterUnit":"m.s-1","parameterCategory":1,"la1":30.6,"la2":29.2853,"lo1":-89.7004,"lo2":-87.6739,"dy":0.0162,"dx":0.0183,"nx":112,"ny":82,"refTime":"2024-05-24T06:00:00:Z","depth":0,"parameterNumber":3,"parameterNumberName":"V-component_of_WINDS"},"data":[0.0,0.0,0.0,0.0,0.0,0.0,0.0,0.0,0.0,0.0,0.0,0.0,0.0,0.0,0.0,0.0,0.0,0.0,0.0,0.0,0.0,0.0,0.0,0.0,0.0,0.0,0.0,0.0,0.0,0.0,0.0,0.0,0.0,0.0,0.0,0.0,0.0,0.0,0.0,0.0,0.0,0.0,0.0,0.0,0.0,0.0,0.0,0.0,0.0,0.0,0.0,0.0,0.0,0.0,0.0,0.0,0.0,0.0,0.0,0.0,0.0,0.0,0.0,0.0,0.0,0.0,0.0,0.0,0.0,0.0,0.0,0.0,0.0,0.0,0.0,0.0,0.0,0.0,0.0,0.0,0.0,0.0,0.0,0.0,0.0,0.0,0.0,0.0,0.0,0.0,-0.9978,-1.008,-1.0456,-1.1282,-1.2745,-1.4452,-1.5533,-1.5891,0.0,0.0,0.0,0.0,0.0,0.0,0.0,0.0,0.0,0.0,0.0,0.0,0.0,0.0,0.0,0.0,0.0,0.0,0.0,0.0,0.0,0.0,0.0,0.0,0.0,0.0,0.0,0.0,0.0,0.0,0.0,0.0,0.0,0.0,0.0,0.0,0.0,0.0,0.0,0.0,0.0,0.0,0.0,0.0,0.0,0.0,0.0,0.0,0.0,0.0,0.0,0.0,0.0,0.0,0.0,0.0,0.0,0.0,0.0,0.0,0.0,0.0,0.0,0.0,0.0,0.0,0.0,0.0,0.0,0.0,0.0,0.0,0.0,0.0,0.0,0.0,0.0,0.0,0.0,0.0,0.0,0.0,0.0,0.0,0.0,0.0,0.0,0.0,0.0,0.0,0.0,0.0,0.0,0.0,0.0,0.0,0.0,0.0,0.0,0.0,0.0,0.0,0.0,0.0,-1.1189,-1.0493,-1.0487,-1.116,-1.2733,-1.4121,-1.5189,-1.5863,0.0,0.0,0.0,0.0,0.0,0.0,0.0,0.0,0.0,0.0,0.0,0.0,0.0,0.0,0.0,0.0,0.0,0.0,0.0,0.0,0.0,0.0,0.0,0.0,0.0,0.0,0.0,0.0,0.0,0.0,0.0,0.0,0.0,0.0,0.0,0.0,0.0,0.0,0.0,0.0,0.0,0.0,0.0,0.0,0.0,0.0,0.0,0.0,0.0,0.0,0.0,0.0,0.0,0.0,0.0,0.0,0.0,0.0,0.0,0.0,0.0,0.0,0.0,0.0,0.0,0.0,0.0,0.0,0.0,0.0,0.0,0.0,0.0,0.0,0.0,0.0,0.0,0.0,0.0,0.0,0.0,0.0,0.0,0.0,0.0,0.0,0.0,0.0,0.0,0.0,0.0,0.0,0.0,0.0,0.0,0.0,0.0,0.0,0.0,0.0,0.0,0.0,0.0,-1.1534,-1.0711,-1.0401,-1.121,-1.2394,-1.3818,-1.5284,-1.6593,-1.7739,-2.0113,0.0,0.0,0.0,0.0,0.0,0.0,0.0,0.0,0.0,0.0,0.0,0.0,0.0,0.0,0.0,0.0,0.0,0.0,0.0,0.0,0.0,0.0,0.0,0.0,0.0,0.0,0.0,0.0,0.0,0.0,0.0,0.0,0.0,0.0,0.0,0.0,0.0,0.0,0.0,0.0,0.0,0.0,0.0,0.0,0.0,0.0,0.0,0.0,0.0,0.0,0.0,0.0,0.0,0.0,0.0,0.0,0.0,0.0,0.0,0.0,0.0,0.0,0.0,0.0,0.0,0.0,0.0,0.0,0.0,0.0,0.0,0.0,0.0,0.0,0.0,0.0,0.0,0.0,0.0,0.0,0.0,0.0,0.0,0.0,0.0,0.0,0.0,0.0,0.0,0.0,0.0,0.0,0.0,0.0,0.0,0.0,0.0,0.0,0.0,0.0,0.0,0.0,-1.1683,-1.1091,-1.0886,-1.2357,-1.3922,-1.5252,-1.6345,-1.7628,-1.9301,-2.044,0.0,0.0,0.0,0.0,0.0,0.0,0.0,0.0,0.0,0.0,0.0,0.0,0.0,0.0,0.0,0.0,0.0,0.0,0.0,0.0,0.0,0.0,0.0,0.0,0.0,0.0,0.0,0.0,0.0,0.0,0.0,0.0,0.0,0.0,0.0,0.0,0.0,0.0,0.0,0.0,0.0,0.0,0.0,0.0,0.0,0.0,0.0,0.0,0.0,0.0,0.0,0.0,0.0,0.0,0.0,0.0,0.0,0.0,0.0,0.0,0.0,0.0,0.0,0.0,0.0,0.0,0.0,0.0,0.0,0.0,0.0,0.0,0.0,0.0,0.0,0.0,0.0,0.0,0.0,0.0,0.0,0.0,0.0,0.0,0.0,0.0,0.0,0.0,0.0,0.0,0.0,0.0,0.0,0.0,0.0,0.0,0.0,0.0,0.0,0.0,0.0,0.0,-1.4177,-1.3963,-1.2687,-1.3786,-1.5318,-1.6874,-1.6518,-1.7072,-1.9264,-2.0093,0.0,0.0,0.0,0.0,0.0,0.0,0.0,0.0,0.0,0.0,0.0,0.0,0.0,0.0,0.0,0.0,0.0,0.0,0.0,0.0,0.0,0.0,0.0,0.0,0.0,0.0,0.0,0.0,0.0,0.0,0.0,0.0,0.0,0.0,0.0,0.0,0.0,0.0,0.0,0.0,0.0,0.0,0.0,0.0,0.0,0.0,0.0,0.0,0.0,0.0,0.0,0.0,0.0,0.0,0.0,0.0,0.0,0.0,0.0,0.0,0.0,0.0,0.0,0.0,0.0,0.0,0.0,0.0,0.0,0.0,0.0,0.0,0.0,0.0,0.0,0.0,0.0,0.0,0.0,0.0,0.0,0.0,0.0,0.0,0.0,0.0,0.0,0.0,0.0,0.0,0.0,0.0,0.0,0.0,0.0,0.0,0.0,0.0,0.0,0.0,0.0,0.0,-1.4859,-1.4505,-1.4043,-1.5399,-1.65,-1.7008,-1.7523,-1.8652,-2.049,0.0,0.0,0.0,0.0,0.0,0.0,0.0,0.0,0.0,0.0,0.0,0.0,0.0,0.0,0.0,0.0,0.0,0.0,0.0,0.0,0.0,0.0,0.0,0.0,0.0,0.0,0.0,0.0,0.0,0.0,0.0,0.0,0.0,0.0,0.0,0.0,0.0,0.0,0.0,0.0,0.0,0.0,0.0,0.0,0.0,0.0,0.0,0.0,0.0,0.0,0.0,0.0,0.0,0.0,0.0,0.0,0.0,0.0,0.0,0.0,0.0,0.0,0.0,0.0,0.0,0.0,0.0,0.0,0.0,0.0,0.0,0.0,0.0,0.0,0.0,0.0,0.0,0.0,0.0,0.0,0.0,0.0,0.0,0.0,0.0,0.0,0.0,0.0,0.0,0.0,0.0,0.0,0.0,0.0,0.0,0.0,0.0,0.0,0.0,0.0,0.0,0.0,-1.5838,-1.6028,-1.5968,-1.5518,-1.6933,-1.7795,-1.7637,-1.8222,-1.9354,-2.1038,0.0,0.0,0.0,0.0,0.0,0.0,0.0,0.0,0.0,0.0,0.0,0.0,0.0,0.0,0.0,0.0,0.0,0.0,0.0,0.0,0.0,0.0,0.0,0.0,0.0,0.0,0.0,0.0,0.0,0.0,0.0,0.0,0.0,0.0,0.0,0.0,0.0,0.0,0.0,0.0,0.0,0.0,0.0,0.0,0.0,0.0,0.0,0.0,0.0,0.0,0.0,0.0,0.0,0.0,0.0,0.0,0.0,0.0,0.0,0.0,0.0,0.0,0.0,0.0,0.0,0.0,0.0,0.0,0.0,0.0,0.0,0.0,0.0,0.0,0.0,0.0,0.0,0.0,0.0,0.0,0.0,0.0,0.0,0.0,0.0,0.0,0.0,0.0,0.0,0.0,0.0,0.0,0.0,0.0,0.0,0.0,0.0,0.0,0.0,0.0,0.0,0.0,-1.5884,-1.7881,-1.8758,-1.7196,-1.8454,-1.9239,-1.8945,-1.8357,-1.8794,0.0,0.0,0.0,0.0,0.0,0.0,0.0,0.0,0.0,0.0,0.0,0.0,0.0,0.0,0.0,0.0,0.0,0.0,0.0,0.0,0.0,0.0,0.0,0.0,0.0,0.0,0.0,0.0,0.0,0.0,0.0,0.0,0.0,0.0,0.0,0.0,0.0,0.0,0.0,0.0,0.0,0.0,0.0,0.0,0.0,0.0,0.0,0.0,0.0,0.0,0.0,0.0,0.0,0.0,0.0,0.0,0.0,0.0,0.0,0.0,0.0,0.0,0.0,0.0,0.0,0.0,0.0,0.0,0.0,0.0,0.0,0.0,0.0,0.0,0.0,0.0,0.0,0.0,0.0,0.0,0.0,0.0,0.0,0.0,0.0,0.0,0.0,0.0,0.0,0.0,0.0,0.0,0.0,0.0,0.0,0.0,0.0,0.0,0.0,0.0,0.0,0.0,0.0,-1.6814,-1.7917,-1.8576,-1.8106,-1.8457,-1.8711,-1.8624,-1.8063,-1.8613,-2.0693,0.0,0.0,0.0,0.0,0.0,0.0,0.0,0.0,0.0,0.0,0.0,0.0,0.0,0.0,0.0,0.0,0.0,0.0,0.0,0.0,0.0,0.0,0.0,0.0,0.0,0.0,0.0,0.0,0.0,0.0,0.0,0.0,0.0,0.0,0.0,0.0,0.0,0.0,0.0,0.0,0.0,0.0,0.0,0.0,0.0,0.0,0.0,0.0,0.0,0.0,0.0,0.0,0.0,0.0,0.0,0.0,0.0,0.0,0.0,0.0,0.0,0.0,0.0,0.0,0.0,0.0,0.0,0.0,0.0,0.0,0.0,0.0,0.0,0.0,0.0,0.0,0.0,0.0,0.0,0.0,0.0,0.0,0.0,0.0,0.0,0.0,0.0,0.0,0.0,0.0,0.0,0.0,0.0,0.0,0.0,0.0,0.0,0.0,0.0,0.0,0.0,0.0,-1.725,-1.7936,-1.849,-1.849,-1.849,-1.8444,-1.8323,-1.833,-1.8972,-2.0532,0.0,0.0,0.0,0.0,0.0,0.0,0.0,0.0,0.0,0.0,0.0,0.0,0.0,0.0,0.0,0.0,0.0,0.0,0.0,0.0,0.0,0.0,0.0,0.0,0.0,0.0,0.0,0.0,0.0,0.0,0.0,0.0,0.0,0.0,0.0,0.0,0.0,0.0,0.0,0.0,0.0,0.0,0.0,0.0,0.0,0.0,0.0,0.0,0.0,0.0,0.0,0.0,0.0,0.0,0.0,0.0,0.0,0.0,0.0,0.0,0.0,0.0,0.0,0.0,0.0,0.0,0.0,0.0,0.0,0.0,0.0,0.0,0.0,0.0,0.0,0.0,0.0,0.0,0.0,0.0,0.0,0.0,0.0,0.0,0.0,0.0,0.0,0.0,0.0,0.0,0.0,0.0,0.0,0.0,0.0,0.0,0.0,0.0,0.0,0.0,0.0,0.0,-1.7459,-1.797,-1.8459,-1.8569,-1.8617,-1.8509,-1.834,-1.9083,-1.9833,-2.0523,0.0,0.0,0.0,0.0,0.0,0.0,0.0,0.0,0.0,0.0,0.0,0.0,0.0,0.0,0.0,0.0,0.0,0.0,0.0,0.0,0.0,0.0,0.0,0.0,0.0,0.0,0.0,0.0,0.0,0.0,0.0,0.0,0.0,0.0,0.0,0.0,0.0,0.0,0.0,0.0,0.0,0.0,0.0,0.0,0.0,0.0,0.0,0.0,0.0,0.0,0.0,0.0,0.0,0.0,0.0,0.0,0.0,0.0,0.0,0.0,-1.9539,-1.9424,0.0,0.0,0.0,0.0,0.0,0.0,0.0,0.0,0.0,0.0,0.0,0.0,0.0,0.0,0.0,0.0,0.0,0.0,0.0,0.0,0.0,0.0,0.0,0.0,0.0,0.0,0.0,0.0,0.0,0.0,0.0,0.0,0.0,0.0,0.0,0.0,0.0,0.0,0.0,0.0,-1.8273,-1.7977,-1.8187,-1.9223,-1.938,-1.9762,-2.0802,-2.0584,-2.0783,-2.1895,-2.1507,0.0,0.0,0.0,0.0,0.0,0.0,0.0,0.0,0.0,0.0,0.0,0.0,0.0,0.0,0.0,0.0,0.0,0.0,0.0,0.0,0.0,0.0,0.0,0.0,0.0,0.0,0.0,0.0,0.0,0.0,0.0,0.0,0.0,0.0,0.0,0.0,0.0,0.0,0.0,0.0,0.0,0.0,0.0,0.0,0.0,0.0,0.0,0.0,0.0,0.0,0.0,0.0,0.0,0.0,0.0,0.0,0.0,0.0,0.0,-1.9913,-1.978,0.0,0.0,0.0,0.0,0.0,0.0,0.0,0.0,0.0,0.0,0.0,0.0,0.0,0.0,0.0,0.0,0.0,0.0,0.0,0.0,0.0,0.0,0.0,0.0,0.0,0.0,0.0,0.0,0.0,0.0,0.0,0.0,0.0,0.0,0.0,0.0,0.0,0.0,0.0,0.0,-1.9546,-1.9375,-1.9594,-2.0523,-2.059,-2.0825,-2.1303,-2.1428,-2.1665,-2.21,-2.1976,0.0,0.0,0.0,0.0,0.0,0.0,0.0,0.0,0.0,0.0,0.0,0.0,0.0,0.0,0.0,0.0,0.0,0.0,0.0,0.0,0.0,0.0,0.0,0.0,0.0,0.0,0.0,0.0,0.0,0.0,0.0,0.0,0.0,0.0,0.0,0.0,0.0,0.0,0.0,0.0,0.0,0.0,0.0,0.0,0.0,0.0,0.0,0.0,0.0,0.0,0.0,0.0,0.0,-1.973,-2.0388,-2.0388,-2.0388,-2.0388,-2.0388,-2.0388,-2.0327,-2.0133,-1.9659,0.0,0.0,0.0,0.0,0.0,0.0,0.0,0.0,0.0,0.0,0.0,0.0,0.0,0.0,0.0,0.0,0.0,0.0,0.0,0.0,0.0,0.0,-2.2765,-2.3539,-2.4156,-2.4317,-2.3318,0.0,0.0,0.0,0.0,0.0,0.0,0.0,0.0,0.0,0.0,0.0,-2.1016,-2.1039,-2.1337,-2.1879,-2.1904,-2.1861,-2.1629,-2.2238,-2.2509,-2.2181,-2.2425,-2.2588,0.0,0.0,0.0,0.0,0.0,0.0,0.0,0.0,0.0,0.0,0.0,0.0,0.0,0.0,0.0,0.0,0.0,0.0,0.0,0.0,0.0,0.0,0.0,0.0,0.0,0.0,0.0,0.0,0.0,0.0,0.0,0.0,0.0,0.0,0.0,0.0,0.0,0.0,0.0,0.0,0.0,0.0,0.0,0.0,0.0,0.0,0.0,-1.1842,-1.494,-1.5438,-1.7246,-2.0367,-2.0743,-2.0995,-2.0995,-2.0995,-2.0995,-2.0995,-2.0995,0.0,-2.0207,-1.988,0.0,0.0,0.0,0.0,0.0,0.0,0.0,0.0,0.0,0.0,0.0,0.0,0.0,0.0,0.0,0.0,0.0,0.0,0.0,0.0,0.0,0.0,-2.5216,-2.5363,-2.543,-2.5469,-2.5305,-2.5054,-2.4887,-2.4922,-2.4346,-2.3838,0.0,0.0,0.0,0.0,0.0,0.0,-2.217,-2.1855,-2.1929,-2.2748,-2.2819,-2.3151,-2.3907,-2.3736,-2.3567,-2.3564,-2.3198,-2.2847,-2.2529,-2.2402,0.0,0.0,0.0,0.0,0.0,0.0,0.0,0.0,0.0,0.0,0.0,0.0,0.0,0.0,0.0,0.0,0.0,0.0,0.0,0.0,0.0,0.0,0.0,0.0,0.0,0.0,0.0,0.0,0.0,0.0,-0.0363,-0.1268,-0.2827,-0.3836,0.0,0.0,0.0,0.0,0.0,0.0,0.0,0.0,0.0,-1.0392,-1.0399,-1.1645,-1.4162,-1.5273,-1.7052,-1.9499,-2.0594,-2.1109,-2.1109,-2.1109,-2.1109,-2.1109,-2.1109,-2.0962,-2.0702,-2.0414,-2.01,-1.976,0.0,0.0,0.0,0.0,-1.9167,-1.9847,-2.0703,-2.1325,-2.1961,-2.3229,0.0,0.0,0.0,0.0,0.0,0.0,0.0,-2.5174,-2.5381,-2.5771,-2.6103,-2.6103,-2.6279,-2.6405,-2.6405,-2.6113,-2.5712,-2.5213,-2.4971,-2.4648,-2.3916,-2.3633,0.0,0.0,0.0,-2.3335,-2.3853,-2.3731,-2.3772,-2.4144,-2.4173,-2.4155,-2.4075,-2.3896,-2.3682,-2.3437,-2.3198,-2.3013,-2.2828,-2.2637,-2.2227,0.0,0.0,0.0,0.0,0.0,0.0,0.0,0.0,0.0,0.0,0.0,0.0,0.0,0.0,0.0,0.0,0.0,0.0,0.0,0.0,0.0,0.0,0.0,0.0,0.0,0.0,0.0,0.0,-0.0424,-0.1171,-0.234,-0.3999,-0.5023,0.0,0.0,0.0,0.0,0.0,0.0,-1.0334,-1.0334,-1.0399,-1.0548,-1.0551,-1.1443,-1.3255,-1.5009,-1.6754,-1.8506,-2.0259,-2.1109,-2.1109,-2.1109,-2.1109,-2.1109,-2.1109,-2.1109,-2.1089,-2.0795,-2.0421,-1.9987,-1.9619,-1.9212,-1.8844,-1.8985,-1.9822,-2.1031,-2.1856,-2.2918,-2.4127,-2.5287,-2.5313,-2.4923,-2.5324,0.0,0.0,0.0,0.0,-2.5312,-2.5596,-2.5977,-2.6221,-2.6221,-2.6465,-2.6689,-2.6689,-2.6445,-2.6055,-2.5556,-2.5488,-2.5254,-2.4287,-2.4023,0.0,-2.3945,-2.4043,-2.4346,-2.5037,-2.5166,-2.5156,-2.4922,-2.4902,-2.4551,-2.3691,-2.3623,-2.3486,-2.311,-2.3091,-2.3091,-2.3091,-2.2789,-2.2471,-2.206,0.0,0.0,0.0,0.0,0.0,0.0,0.0,0.0,0.0,0.0,0.0,0.0,0.0,0.0,0.0,0.0,0.0,0.0,0.0,0.0,0.0,0.0,0.0,0.0,0.0,0.0,0.0,0.0,0.0,-0.2524,-0.4226,0.0,0.0,0.0,0.0,-0.7821,-0.9373,-1.0337,-1.0473,-1.048,-1.0551,-1.0704,-1.0707,-1.156,-1.3255,-1.5009,-1.6754,-1.8506,-2.0259,-2.1109,-2.1109,-2.1109,-2.1109,-2.1109,-2.1109,-2.1109,-2.1089,-2.0795,-2.0661,-2.0575,-2.0,-1.976,-1.97,-1.9439,-2.0279,-2.176,-2.3191,-2.4407,-2.562,-2.7481,-2.7552,-2.6793,-2.6455,-2.6016,0.0,0.0,-2.5371,-2.5664,-2.5684,-2.5703,-2.5723,-2.5723,-2.5732,-2.5752,-2.5752,-2.5732,-2.583,-2.625,-2.5654,-2.5125,-2.5067,0.0,-2.4385,-2.4385,-2.4736,-2.5067,-2.5106,-2.5439,-2.5333,-2.4541,-2.4453,-2.4102,-2.3198,-2.313,-2.312,-2.3091,-2.3091,-2.3091,-2.3091,-2.3071,-2.2867,-2.249,-2.2102,0.0,0.0,0.0,0.0,0.0,0.0,0.0,0.0,0.0,0.0,0.0,0.0,0.0,0.0,0.0,0.0,0.0,0.0,0.0,0.0,0.0,0.0,0.0,0.0,0.0,0.0,0.0,0.0,-0.5753,-0.6496,0.0,-0.8356,-0.9099,-0.9564,-0.9564,-1.0179,-1.0585,-1.0636,-1.0639,-1.0663,-1.0717,-1.0721,-1.0979,-1.1633,-1.4493,-1.6242,-1.6888,-1.9744,-2.1109,-2.1109,-2.1109,-2.1109,-2.1109,-2.1109,-2.1109,-2.1102,-2.0995,-2.0848,-2.0655,-2.0448,-2.0134,-1.9786,-1.9686,-2.1104,-2.3095,-2.3599,-2.5346,-2.7317,-2.7761,-2.7685,-2.7305,-2.6602,-2.6279,-2.6064,-2.5625,-2.5567,-2.5693,-2.5693,-2.5693,-2.5693,-2.5693,-2.5693,-2.5693,-2.5693,-2.5693,-2.5732,-2.5937,-2.5713,-2.541,-2.5117,-2.4941,-2.4834,-2.4834,-2.4971,-2.5176,-2.5459,-2.5586,-2.5352,-2.4512,-2.4414,-2.4072,-2.3169,-2.3091,-2.3091,-2.3091,-2.3091,-2.3091,-2.3091,-2.3091,-2.2896,-2.2519,-2.2363,-2.1873,0.0,0.0,0.0,0.0,0.0,0.0,0.0,0.0,0.0,0.0,0.0,0.0,0.0,0.0,0.0,0.0,0.0,0.0,0.0,0.0,0.0,0.0,0.0,0.0,0.0,-0.4622,-0.6515,-0.7643,-0.8359,-0.9199,-1.0236,-1.0483,-1.0568,-1.0568,-1.0663,-1.0721,-1.0721,-1.0721,-1.0721,-1.0721,-1.0721,-1.0979,-1.1567,-1.4423,-1.6172,-1.6818,-1.9737,-2.1109,-2.1109,-2.1109,-2.1109,-2.1109,-2.1109,-2.1109,-2.1109,-2.1109,-2.0942,-2.0668,-2.0568,-2.0287,-1.992,-1.9726,-2.1104,-2.3207,-2.4211,-2.6218,-2.8252,-2.7969,-2.7836,-2.7581,-2.6816,-2.6504,-2.6299,-2.581,-2.5693,-2.5693,-2.5693,-2.5693,-2.5693,-2.5693,-2.5693,-2.5693,-2.5693,-2.5693,-2.5693,-2.5693,-2.5693,-2.5644,-2.5352,-2.5293,-2.5293,-2.5293,-2.5293,-2.54,-2.5654,-2.5693,-2.5352,-2.4512,-2.4414,-2.4072,-2.3169,-2.3091,-2.3091,-2.3091,-2.3091,-2.3091,-2.3091,-2.2955,-2.2818,-2.2682,-2.2441,-2.1797,-2.0791,0.0,0.0,0.0,0.0,0.0,0.0,0.0,0.0,0.0,0.0,0.0,0.0,0.0,0.0,0.0,0.0,0.0,0.0,0.0,0.0,0.0,0.0,0.0,-0.3022,-0.5811,-0.8018,-0.7919,-0.9552,-1.0663,-1.0514,-1.0633,-1.0721,-1.0721,-1.0721,-1.0721,-1.0721,-1.0721,-1.0721,-1.0721,-1.0721,-1.1567,-1.3255,-1.5009,-1.6754,-1.8506,-2.0259,-2.1109,-2.1109,-2.1109,-2.1109,-2.1109,-2.1109,-2.1109,-2.1109,-2.1096,-2.0929,-2.0648,-2.0361,-2.0173,-2.0147,-1.9586,-2.0321,-2.2032,-2.5023,-2.7032,-2.8208,-2.8262,-2.7978,-2.7568,-2.7129,-2.6709,-2.6299,-2.581,-2.5693,-2.5693,-2.5693,-2.5693,-2.5693,-2.5693,-2.5693,-2.5693,-2.5693,-2.5693,-2.5693,-2.5693,-2.5693,-2.5693,-2.5693,-2.5693,-2.5693,-2.5693,-2.5693,0.0,-2.5674,-2.5664,-2.5333,-2.4492,-2.4394,-2.4007,-2.3169,-2.3091,-2.3091,-2.3091,-2.3091,-2.3091,-2.3091,-2.2744,-2.2682,-2.3091,-2.2324,-2.1699,-2.1239,0.0,0.0,0.0,0.0,0.0,0.0,0.0,0.0,0.0,0.0,0.0,0.0,0.0,0.0,0.0,0.0,0.0,0.0,0.0,0.0,0.0,-0.4971,-0.5157,-0.4694,-0.7612,-0.9856,-0.9926,-1.0402,-1.0704,-1.0663,-1.0697,-1.0721,-1.0721,-1.0721,-1.0721,-1.0721,-1.0721,-1.0721,-1.0721,-1.0721,-1.1567,-1.3255,-1.5009,-1.6754,-1.8506,-2.0259,-2.1109,-2.1109,-2.1109,-2.1109,-2.1109,-2.1109,-2.1109,-2.1089,-2.0882,-2.0748,-2.0668,-2.0588,-2.0294,-1.99,-1.974,-2.0503,-2.1994,-2.4665,-2.5881,-2.6333,-2.7087,-2.7285,-2.7109,-2.6689,-2.6484,-2.6299,-2.581,-2.5693,-2.5693,-2.5693,-2.5693,-2.5693,-2.5693,-2.5693,-2.5693,-2.5693,-2.5693,-2.5693,-2.5693,-2.5693,-2.5693,-2.5693,-2.5693,-2.5693,-2.5693,-2.5693,-2.5567,-2.5293,-2.5254,-2.4922,-2.4053,-2.3965,-2.374,-2.314,-2.3091,-2.3091,-2.3091,-2.3091,-2.3091,-2.3091,-2.2984,-2.2974,-2.3091,-2.2617,-2.2285,0.0,0.0,0.0,0.0,0.0,0.0,0.0,0.0,0.0,0.0,0.0,0.0,0.0,0.0,0.0,0.0,0.0,0.0,0.0,0.0,0.0,0.0,-0.5667,-0.5995,-0.4488,-0.7276,-0.9222,-0.8565,-0.8507,-0.8773,-0.9507,-0.9573,-0.9911,-1.0651,-1.0721,-1.0721,-1.0721,-1.0721,-1.0721,-1.0721,-1.0721,-1.1894,-1.4358,-1.5399,-1.7146,-1.961,-2.0589,-2.1109,-2.1109,-2.1109,-2.1109,-2.1109,-2.1109,-2.1109,-2.1089,-2.0795,-2.0601,-2.0474,0.0,0.0,0.0,0.0,-2.0377,-2.1676,-2.3787,-2.4801,-2.5434,-2.6609,-2.6894,-2.6709,-2.6465,-2.626,-2.6064,-2.5762,-2.5693,-2.5693,-2.5693,-2.5693,-2.5693,-2.5693,-2.5693,-2.5693,-2.5693,-2.5693,-2.5693,-2.5693,-2.5693,0.0,-2.5693,-2.5693,-2.5693,-2.5693,-2.5693,-2.5528,-2.5174,-2.5116,-2.4783,-2.3887,-2.3789,-2.3613,-2.313,-2.3091,0.0,0.0,0.0,-2.3013,-2.2838,-2.3003,0.0,0.0,0.0,0.0,0.0,0.0,0.0,0.0,-2.2305,-2.2441,0.0,0.0,0.0,0.0,0.0,0.0,0.0,0.0,0.0,0.0,0.0,0.0,0.0,0.0,0.0,0.0,-0.675,-0.6784,-0.3214,-0.5559,-0.7165,-0.5564,-0.5431,-0.6097,-0.7831,-0.803,-0.8767,-1.0585,-1.0721,-1.0721,-1.0721,-1.0721,0.0,0.0,0.0,-1.2347,-1.5848,-1.5913,-1.7667,-2.1109,-2.1109,-2.1109,-2.1109,-2.1109,-2.1109,-2.1109,-2.1109,-2.1109,-2.1082,-2.0762,-2.0434,-2.0107,-1.9853,-1.9746,-1.972,-1.9459,-2.0003,-2.1085,-2.2589,0.0,0.0,-2.6346,-2.6511,-2.61,-2.6269,-2.6045,-2.5693,-2.5693,-2.5693,-2.5693,-2.5693,-2.5693,-2.5693,-2.5693,-2.5693,-2.5693,-2.5693,-2.5693,-2.5693,-2.5693,-2.5693,-2.5674,-2.5625,-2.5654,-2.5674,-2.5625,-2.5615,-2.5488,-2.499,-2.4969,-2.4666,-2.3799,-2.3721,0.0,-2.313,-2.3091,-2.3091,-2.3091,-2.3091,-2.2925,-2.2598,-2.2896,-2.2916,-2.2588,-2.2906,-2.3091,-2.3091,-2.3091,-2.3091,-2.3081,-2.2373,-2.2432,0.0,0.0,0.0,0.0,0.0,0.0,0.0,0.0,0.0,0.0,0.0,0.0,0.0,0.0,0.0,-0.7099,-0.7595,-0.6784,-0.3214,-0.4559,-0.5763,-0.5431,-0.5431,-0.6097,-0.7831,-0.803,-0.8767,-1.0585,-1.0721,-1.0721,-1.0721,-1.0721,-1.0721,-1.0721,-1.0721,-1.2347,-1.5848,-1.5913,-1.7667,-2.1109,-2.1109,0.0,-2.1109,-2.1109,-2.1109,-2.1109,-2.1109,-2.1109,-2.1069,-2.0535,-2.0007,-1.9533,-1.9472,-1.9511,-1.9446,-1.945,-1.9344,-1.9647,-2.1884,-2.1927,-2.1582,-2.4855,-2.5161,-2.4424,-2.5507,-2.5752,0.0,-2.5693,-2.5693,-2.5693,-2.5693,-2.5693,-2.5693,-2.5693,-2.5693,-2.5693,-2.5693,-2.5693,-2.5693,-2.5693,-2.5693,-2.5625,-2.5254,-2.5498,-2.5567,-2.5254,-2.5195,-2.4922,-2.4141,-2.4043,-2.3838,-2.3276,-2.3218,-2.3188,-2.3101,-2.3091,-2.3091,-2.3091,-2.3091,-2.3062,-2.2974,-2.3052,-2.3052,-2.2974,-2.3052,-2.3091,-2.3091,-2.3091,-2.3091,-2.3091,-2.2925,-2.2945,0.0,0.0,0.0,0.0,0.0,0.0,0.0,0.0,0.0,0.0,0.0,-1.1067,-1.1244,0.0,-0.9771,-0.8104,-0.7911,-0.6773,-0.3217,-0.3489,-0.3689,-0.2819,-0.2685,-0.3756,-0.6429,-0.6698,-0.7833,-1.0518,-1.0721,-1.0721,-1.0721,-1.0721,-1.0721,-1.0721,-1.0721,-1.2347,-1.5848,-1.5913,-1.7667,-2.1109,-2.1109,-2.1109,-2.1109,-2.1109,-2.1109,-2.1109,-2.1109,-2.1029,-2.0848,-2.0261,-1.976,-1.9424,-1.9424,-1.9424,-1.941,-1.9199,-1.8958,-1.8937,-2.0703,-2.0672,-2.0418,-2.3655,-2.4254,-2.3949,-2.5274,-2.5693,-2.5693,-2.5693,-2.5693,-2.5693,-2.5693,-2.5693,-2.5693,-2.5693,-2.5693,-2.5693,-2.5693,-2.5557,-2.54,-2.54,-2.5225,-2.501,-2.4775,-2.4932,-2.5,-2.4775,-2.4746,-2.4512,-2.3867,-2.3789,-2.3623,-2.314,-2.3091,-2.3091,-2.3091,-2.3091,-2.3091,-2.3091,-2.3091,-2.3091,-2.3091,-2.3091,-2.3091,-2.3091,-2.3091,-2.3091,-2.3091,-2.3091,-2.3091,-2.3091,-2.3091,-2.3091,0.0,0.0,0.0,0.0,0.0,0.0,0.0,-0.9531,-1.0446,-1.1866,-1.2737,-1.3256,-1.3421,-1.3288,-1.2228,-0.9468,-0.8427,-0.6896,-0.3689,-0.2953,-0.2015,-0.0202,0.0,-0.1411,-0.5029,-0.5431,-0.69,-1.0452,-1.0721,-1.0721,-1.0721,-1.0721,-1.0721,-1.0721,-1.1045,-1.2738,-1.5848,-1.6237,-1.7988,-2.1109,-2.1109,-2.1109,-2.1109,-2.1109,-2.1109,-2.1109,-2.1049,-2.0862,-2.0548,-2.002,-1.9633,-1.9424,-1.9424,-1.9424,-1.939,-1.9032,-1.8738,-1.8665,-1.9721,-1.9702,-1.9731,-2.2726,-2.3534,-2.3583,-2.5226,-2.5693,-2.5693,-2.5693,-2.5693,-2.5693,-2.5693,-2.5693,-2.5693,-2.5693,-2.5693,-2.5664,-2.5577,-2.5322,-2.5086,-2.4998,-2.4658,-2.4394,-2.4307,-2.4297,-2.4297,-2.4297,-2.4297,-2.4141,-2.3721,-2.3662,-2.3525,-2.313,-2.3091,-2.3091,-2.3091,-2.3091,-2.3091,-2.3091,-2.3091,-2.3091,-2.3091,-2.3091,-2.3091,-2.3091,-2.3091,-2.3091,-2.3091,-2.3091,-2.3091,-2.3091,-2.3091,-2.3091,-0.0426,-0.0431,-0.1208,-0.4283,-0.5178,-0.6127,0.0,-1.1084,-1.2323,-1.2738,-1.4134,-1.5388,-1.5413,-1.4254,-1.3164,-1.2787,-1.0082,-0.7298,-0.5362,-0.3689,-0.2015,-0.0202,0.0,-0.1411,-0.5029,-0.5431,-0.69,-1.0452,-1.0721,-1.0721,-1.0721,-1.0721,-1.0721,-1.0721,-1.2219,-1.397,-1.5854,-1.7474,-1.9158,-2.1109,-2.1109,-2.1109,-2.1109,-2.1109,-2.1109,-2.1096,-2.0835,-2.0555,-2.0254,-1.9933,-1.9633,-1.9424,-1.9424,-1.9424,-1.939,-1.9032,-1.8738,-1.8665,-1.9721,-1.9077,-1.8447,-2.2416,-2.2868,-2.2416,-2.4922,-2.5693,-2.5693,-2.5693,-2.5693,-2.5693,-2.5693,-2.5693,-2.5693,-2.5693,-2.5693,-2.5577,-2.5225,-2.5145,-2.4998,-2.456,-2.4453,-2.4297,-2.3926,-2.3857,-2.3857,-2.3857,-2.3857,-2.3701,-2.3227,-2.3169,-2.3149,-2.3101,-2.3091,-2.3091,-2.3091,-2.3091,-2.3091,-2.3091,-2.3091,-2.3091,-2.3091,-2.3091,-2.3091,-2.3091,-2.3091,-2.3091,-2.3091,-2.3091,-2.3091,-2.3091,-2.3091,-2.3091,-0.1039,-0.2067,-0.3363,-0.5543,-0.6975,-0.8201,-0.9584,-1.1409,-1.3208,-1.4295,-1.6001,-1.7313,-1.7313,-1.5982,-1.4488,-1.3451,-0.9477,-0.6231,-0.5498,-0.2953,-0.0874,-0.0067,-0.0941,-0.2551,-0.5163,-0.5431,-0.69,-1.0452,-1.0721,-1.0721,-1.0721,-1.0721,-1.1174,-1.2153,-1.2931,-1.4619,-1.7404,-1.8122,-1.9349,-2.1109,-2.1109,-2.1109,-2.1109,-2.1109,-2.1015,-2.0842,-2.0548,-2.0254,-1.996,-1.9666,-1.9472,-1.9424,-1.9424,-1.9424,-1.9312,-1.8844,-1.8597,-1.8527,-1.8619,-1.8204,-1.8146,-2.1448,-2.16,-2.1143,-2.4658,-2.5177,-2.4716,-2.5479,-2.5693,-2.5693,-2.5693,-2.5693,-2.5693,-2.5693,-2.5693,-2.5567,-2.5213,-2.4863,-2.456,-2.4131,-2.3848,-2.3569,-2.3437,-2.3408,-2.3408,-2.3408,-2.3408,-2.3305,-2.312,-2.3091,-2.3091,-2.3091,-2.3091,-2.3091,-2.3091,-2.3091,-2.3091,-2.3091,-2.3091,-2.3091,-2.3091,-2.3091,-2.3091,-2.3091,-2.3091,-2.3091,-2.3091,-2.3091,-2.3091,-2.3091,-2.3091,-2.3091,-0.1895,-0.3194,-0.4651,-0.6517,-0.8158,-0.9601,-1.0436,-1.2282,-1.4444,-1.6715,-1.8232,-1.9343,-1.984,-1.7714,-1.5325,-1.3552,-0.8869,-0.5228,-0.4693,-0.1948,0.0,0.0,-0.1613,-0.3422,-0.5228,-0.583,-0.7367,-1.0452,-1.0721,-1.0721,-1.0721,-1.0721,-1.1501,-1.3255,-1.3774,-1.5464,-1.8442,-1.896,-1.9871,-2.1109,-2.1109,-2.1109,-2.1109,-2.1109,-2.0949,-2.0661,-2.0361,-2.0067,-1.978,-1.9486,-1.9424,-1.9424,-1.9424,-1.9424,-1.9357,-1.8704,-1.849,-1.8404,-1.7796,-1.7582,-1.7989,-2.0333,-2.0692,-2.0743,-2.3692,-2.4461,-2.4353,-2.4971,-2.543,-2.5693,-2.5693,-2.5693,-2.5693,-2.5693,-2.5693,-2.5528,-2.501,-2.4639,-2.4258,-2.3711,-2.3315,-2.3091,-2.3091,-2.3091,-2.3091,-2.3091,-2.3091,-2.3091,-2.3091,-2.3091,-2.3091,-2.3091,-2.3091,-2.3091,-2.3091,-2.3091,-2.3091,-2.3091,-2.3091,-2.3091,-2.3091,-2.3091,-2.3091,-2.3091,-2.3091,-2.3091,-2.3091,-2.3091,-2.3091,-2.3091,-2.3091,-2.3091,-0.2179,-0.2378,-0.3279,-0.6357,-0.7378,-0.8591,-1.2049,-1.4285,-1.6635,-2.0142,-2.0909,-2.1538,-2.3139,-1.9294,-1.5305,-1.3483,-0.878,-0.4762,-0.3021,-0.1143,0.0,0.0,-0.1613,-0.3422,-0.5228,-0.6896,-0.8701,-1.0585,-1.0721,-1.0721,-1.0721,-1.0721,-1.1501,-1.3255,-1.4944,-1.6695,-1.8506,-2.0195,-2.1046,-2.1109,-2.1109,-2.1109,-2.1109,-2.1109,-2.0949,-2.0661,-2.0361,-2.0067,-1.978,-1.9486,-1.9424,-1.9424,-1.9424,-1.9424,-1.9357,-1.8704,-1.849,-1.8404,-1.7796,-1.7582,-1.7838,-1.922,-2.0538,-2.1651,-2.1803,-2.3583,-2.5382,-2.4097,-2.4716,-2.5693,-2.5693,-2.5693,-2.5693,-2.5693,-2.5693,-2.545,-2.4629,-2.4424,-2.417,-2.3276,-2.311,-2.3091,-2.3091,-2.3091,-2.3091,-2.3091,-2.3091,-2.3091,-2.3091,-2.3091,-2.3091,-2.3091,-2.3091,-2.3091,-2.3091,-2.3091,-2.3091,-2.3091,-2.3091,-2.3091,-2.3091,-2.3091,-2.3091,-2.3091,-2.3091,-2.3091,-2.3091,-2.3091,-2.3091,-2.3091,-2.3091,-2.3091,-0.5314,-0.5453,-0.6069,-0.8246,-0.8959,-0.9799,-1.2069,-1.4196,-1.6655,-1.9972,-2.0909,-2.1278,-2.1763,-1.8581,-1.4916,-1.1934,-0.8066,-0.4762,-0.2953,-0.1143,0.0,0.0,-0.2685,-0.476,-0.5362,-0.6965,-0.8767,-1.0585,-1.0721,-1.0721,-1.0721,-1.0721,-1.2022,-1.4944,-1.5589,-1.7275,-2.0195,-2.0786,-2.1109,-2.1109,-2.1109,-2.1109,-2.1102,-2.0909,-2.0661,-2.0368,-2.0074,-1.978,-1.9506,-1.9464,-1.9424,-1.9424,-1.9424,-1.9424,-1.9357,-1.8704,-1.849,-1.8404,-1.7796,-1.7582,-1.7838,-1.9169,-1.9317,-1.9465,-2.2206,-2.3026,-2.3335,-2.4658,-2.5333,-2.5693,-2.5693,-2.5693,-2.5693,-2.5693,-2.5693,-2.545,-2.4609,-2.4414,-2.416,-2.3266,-2.3091,-2.3091,-2.3091,-2.3091,-2.3091,-2.3091,-2.3091,-2.3091,-2.3091,-2.3091,-2.3091,-2.3091,-2.3091,-2.3091,-2.3091,-2.3091,-2.3091,-2.3091,-2.3091,-2.3091,-2.3091,-2.3091,-2.3091,-2.3091,-2.3091,-2.3091,-2.3091,-2.3091,-2.3091,-2.3091,-2.3091,-2.3091,-0.6899,-0.703,-0.7584,-0.9222,-1.0208,-1.126,-1.297,-1.5309,-1.8048,-2.1381,-2.1817,-2.1582,-2.1589,-1.8415,-1.4438,-1.0353,-0.7277,-0.4559,-0.2082,-0.074,-0.0269,-0.0874,-0.3623,-0.5629,-0.6297,-0.79,-0.944,-1.0588,-1.0721,-1.0721,-1.0721,-1.0721,-1.2281,-1.5784,-1.5913,-1.7597,-2.1046,-2.1109,-2.1109,-2.1109,-2.1109,-2.1109,-2.1096,-2.0808,-2.0514,-2.0221,-1.9927,-1.9633,-1.9424,-1.9424,-1.9424,-1.9424,-1.9424,-1.9424,-1.9357,-1.8704,-1.849,-1.8404,-1.7796,-1.7582,-1.774,-1.861,-1.861,-1.8708,-2.0896,-2.16,-2.2055,-2.3791,-2.4609,-2.5118,-2.5586,-2.5693,-2.5693,-2.5693,-2.5693,-2.545,-2.4609,-2.4414,-2.416,-2.3266,-2.3091,-2.3091,-2.3091,-2.3091,-2.3091,-2.3091,-2.3091,-2.3091,-2.3091,-2.3091,-2.3091,-2.3091,-2.3091,-2.3091,-2.3091,-2.3091,-2.3091,-2.3091,-2.3091,-2.3091,-2.3091,-2.3091,-2.3091,-2.3091,-2.3091,-2.3091,-2.3091,-2.3091,-2.3091,-2.3091,-2.3091,-2.3091,-0.7046,-0.7272,-0.7866,-0.9255,-1.0905,-1.2677,-1.4564,-1.735,-2.05,-2.4023,-2.352,-2.243,-2.2458,-1.8635,-1.3842,-0.8813,-0.6544,-0.4158,-0.0605,-0.0067,-0.0673,-0.2484,-0.4292,-0.6097,-0.7831,-0.9643,-1.0721,-1.0721,-1.0721,-1.0721,-1.0721,-1.0787,-1.2413,-1.5784,-1.5983,-1.7667,-2.1046,-2.1109,-2.1109,-2.1109,-2.1109,-2.1109,-2.1096,-2.0788,-2.0501,-2.0153,-1.9913,-1.9626,-1.9424,-1.9424,-1.9424,-1.9424,-1.9424,-1.9417,-1.9279,-1.8704,-1.8477,-1.8384,-1.7789,-1.7582,-1.7582,-1.7582,-1.8454,-1.9272,-1.8094,-1.9517,-2.16,-2.1752,-2.2717,-2.3998,-2.5333,-2.5693,-2.5693,-2.5693,-2.5693,-2.545,-2.4609,-2.4414,-2.416,-2.3266,-2.3091,-2.3091,-2.3091,-2.3091,-2.3091,-2.3091,-2.3091,-2.3091,-2.3091,-2.3091,-2.3091,-2.3091,-2.3091,-2.3091,-2.3091,-2.3091,-2.3091,-2.3091,-2.3091,-2.3091,-2.3091,-2.3091,-2.3091,-2.3091,-2.3091,-2.3091,-2.3091,-2.3091,-2.3091,-2.3091,-2.3091,-2.3091,-0.8842,-0.895,-0.9152,-0.9617,-1.0989,-1.2646,-1.4311,-1.6416,-1.8883,-2.2212,-2.1953,-2.0706,-1.9258,-1.7251,-1.4032,-0.8685,-0.645,-0.4626,-0.2351,-0.0874,-0.0673,-0.2484,-0.4292,-0.6097,-0.7831,-0.9643,-1.0721,-1.0721,-1.0721,-1.0721,-1.0721,-1.196,-1.3648,-1.5848,-1.7146,-1.8896,-2.1109,-2.1109,-2.1109,-2.1109,-2.1109,-2.1109,-2.1089,-2.0581,-2.0301,-2.014,-1.97,-1.9432,-1.9424,-1.9424,-1.9424,-1.9424,-1.9424,-1.9232,-1.8991,-1.8624,-1.835,-1.8103,-1.7716,-1.7582,-1.7582,-1.7582,-1.7838,-1.8251,-1.8916,-1.9576,-2.0538,-2.2617,-2.3434,-2.3998,-2.5333,-2.5693,-2.5693,-2.5693,-2.5693,-2.545,-2.4609,-2.4414,-2.416,-2.3266,-2.3091,-2.3091,-2.3091,-2.3091,-2.3091,-2.3091,-2.3091,-2.3091,-2.3091,-2.3091,-2.3091,-2.3091,-2.3091,-2.3091,-2.3091,-2.3091,-2.3091,-2.3091,-2.3091,-2.3091,-2.3091,-2.3091,-2.3091,-2.3091,-2.3091,-2.3091,-2.3091,-2.3091,-2.3091,-2.3091,-2.3091,-2.3091,-0.9561,-0.9656,-0.9901,-1.0638,-1.2032,-1.3646,-1.5311,-1.7527,-1.9753,-2.1559,-2.0916,-1.9513,-1.7696,-1.5841,-1.305,-0.8519,-0.644,-0.4762,-0.2953,-0.1813,-0.1881,-0.369,-0.5427,-0.7231,-0.9039,-1.0114,-1.0721,-1.0721,-1.0721,-1.1045,-1.1828,-1.2738,-1.4423,-1.6953,-1.7988,-1.9349,-2.1109,-2.1109,-2.1109,-2.1109,-2.1109,-2.1109,-2.1089,-2.0501,-2.0173,-2.0201,-1.9619,-1.9424,-1.9424,-1.9424,-1.9424,-1.9424,-1.9424,-1.9185,-1.8885,-1.8597,-1.8303,-1.7949,-1.7689,-1.7582,-1.7582,-1.7582,-1.7582,-1.774,-1.8506,-1.8708,-1.9324,-2.2055,-2.2818,-2.3285,-2.5177,-2.5693,-2.5693,-2.5693,-2.5693,-2.545,-2.4609,-2.4414,-2.416,-2.3266,-2.3091,-2.3091,-2.3091,-2.3091,-2.3091,-2.3091,-2.3091,-2.3091,-2.3091,-2.3091,-2.3091,-2.3091,-2.3091,-2.3091,-2.3091,-2.3091,-2.3091,-2.3091,-2.3091,-2.3091,-2.3091,-2.3091,-2.3091,-2.3091,-2.3091,-2.3091,-2.3091,-2.3091,-2.3091,-2.3101,-2.2536,-2.2306,-0.9632,-0.9727,-1.0179,-1.1796,-1.3412,-1.502,-1.6615,-1.9221,-2.1309,-2.1309,-2.0214,-1.8758,-1.6983,-1.4696,-1.2016,-0.8677,-0.6764,-0.5228,-0.3622,-0.3221,-0.3756,-0.5563,-0.7098,-0.8701,-1.0518,-1.0721,-1.0721,-1.0721,-1.0916,-1.1699,-1.3193,-1.3517,-1.5269,-1.8704,-1.8832,-1.9546,-2.1109,-2.1109,-2.1109,-2.1109,-2.1109,-2.1089,-2.1036,-2.0488,-2.0153,-2.0147,-1.9599,-1.9424,-1.9424,-1.9424,-1.9424,-1.9424,-1.9424,-1.9185,-1.8891,-1.8644,-1.8337,-1.7955,-1.7736,-1.7615,-1.7582,-1.7582,-1.7582,-1.7582,-1.7582,-1.7582,-1.8192,-2.0939,-2.1702,-2.2307,-2.502,-2.5693,-2.5693,-2.5693,-2.5693,-2.546,-2.4687,-2.4414,-2.4102,-2.3247,-2.3091,-2.3091,-2.3091,-2.3091,-2.3091,-2.3091,-2.3091,-2.3091,-2.3091,-2.3091,-2.3091,-2.3091,-2.3091,-2.3091,-2.3091,-2.3091,-2.3091,-2.3091,-2.3091,-2.3091,-2.3091,-2.3091,-2.3091,-2.3091,-2.3091,-2.3091,-2.3091,-2.3091,-2.3091,-2.3047,-2.1845,-2.1293,-0.9751,-0.9802,-1.0179,-1.1796,-1.3412,-1.502,-1.6615,-1.8448,-1.9758,-1.9758,-1.9715,-1.8735,-1.5618,-1.5007,-1.3902,-1.0448,-0.856,-0.7429,-0.7096,-0.5828,-0.5563,-0.7362,-0.7831,-0.8701,-1.0518,-1.0721,-1.0721,-1.0721,-1.2022,-1.3001,-1.3255,-1.4684,-1.7082,-2.0526,-2.0652,-2.0779,-2.1109,-2.1109,-2.1109,-2.1109,-2.1109,-2.0982,-2.0742,-2.0388,-2.01,-1.986,-1.9512,-1.9424,-1.9424,-1.9424,-1.9424,-1.9424,-1.9424,-1.9185,-1.8918,-1.8865,-1.8455,-1.7982,-1.7935,-1.7796,-1.7582,-1.7582,-1.7582,-1.7582,-1.7582,-1.7582,-1.8192,-2.0939,-2.1702,-2.2307,-2.502,-2.5693,-2.5693,-2.5693,-2.5693,-2.5596,-2.5068,-2.4394,-2.374,-2.3198,-2.3091,-2.3091,-2.3091,-2.3091,-2.3091,-2.3091,-2.3091,-2.3091,-2.3091,-2.3091,-2.3091,-2.3091,-2.3091,-2.3091,-2.3091,-2.3091,-2.3091,-2.3091,-2.3091,-2.3091,-2.3091,-2.3091,-2.3091,-2.3091,-2.3091,-2.3091,-2.3091,-2.3091,-2.3091,-2.3047,-2.1845,-2.1293,-0.9802,-0.9822,-1.0418,-1.2813,-1.4004,-1.5257,-1.7689,-1.8829,-1.9424,-1.9424,-1.881,-1.7599,-1.5041,-1.4312,-1.3252,-1.0732,-0.9006,-0.803,-0.803,-0.7296,-0.7031,-0.7897,-0.8837,-0.9775,-1.0654,-1.0721,-1.0721,-1.0721,-1.2285,-1.3713,-1.4619,-1.7146,-1.9355,-2.1046,-2.1109,-2.1109,-2.1109,-2.1109,-2.1109,-2.1109,-2.1109,-2.0955,-2.0668,-2.0368,-2.0074,-1.9786,-1.9492,-1.9424,-1.9424,-1.9424,-1.9424,-1.9424,-1.9424,-1.9185,-1.8925,-1.8925,-1.8495,-1.7995,-1.7995,-1.7842,-1.7582,-1.7582,-1.7582,-1.7582,-1.7582,-1.7582,-1.8192,-2.0939,-2.1702,-2.2307,-2.502,-2.5693,-2.5693,-2.5693,-2.5333,-2.499,-2.4775,-2.4053,-2.3389,-2.314,-2.3091,-2.3091,-2.3091,-2.3091,-2.3091,-2.3091,-2.3091,-2.3091,-2.3091,-2.3091,-2.3091,-2.3091,-2.3091,-2.3091,-2.3091,-2.3091,-2.3091,-2.3091,-2.3091,-2.3091,-2.3091,-2.3091,-2.3091,-2.3091,-2.3091,-2.3091,-2.3091,-2.3091,-2.2775,-2.212,-2.0935,-2.0034,-0.9822,-1.0061,-1.102,-1.3885,-1.4837,-1.5849,-1.8771,-1.9424,-1.9424,-1.9424,-1.8402,-1.6915,-1.496,-1.3826,-1.2536,-1.0587,-0.9314,-0.8538,-0.8562,-0.8568,-0.8568,-0.8568,-0.9842,-1.0721,-1.0721,-1.0721,-1.0721,-1.0721,-1.2672,-1.4619,-1.6372,-1.9419,-2.1109,-2.1109,-2.1109,-2.1109,-2.1109,-2.1109,-2.1109,-2.1109,-2.1109,-2.0922,-2.0575,-2.0341,-2.004,-1.9693,-1.9466,-1.9424,-1.9424,-1.9424,-1.9424,-1.9424,-1.9424,-1.9225,-1.9018,-1.9018,-1.8651,-1.8089,-1.8089,-1.7896,-1.7582,-1.7582,-1.7582,-1.7582,-1.7582,-1.7582,-1.8192,-2.0939,-2.1702,-2.2307,-2.502,-2.5693,-2.5693,-2.5693,-2.5157,-2.4631,-2.458,-2.3955,-2.3335,-2.3257,-2.3159,-2.3091,-2.3091,-2.3091,-2.3091,-2.3091,-2.3091,-2.3091,-2.3091,-2.3091,-2.3091,-2.3091,-2.3091,-2.3091,-2.3091,-2.3091,-2.3091,-2.3091,-2.3091,-2.3091,-2.3091,-2.3091,-2.3091,-2.3091,-2.3091,-2.296,-2.2721,-2.2721,-2.2076,-2.089,-1.967,-1.8596,-0.9822,-1.0899,-1.2393,-1.4183,-1.5725,-1.7267,-1.9004,-1.9424,-1.9424,-1.9424,-1.9307,-1.8233,-1.5198,-1.461,-1.3674,-1.0756,-1.028,-1.0293,-1.0432,-1.0452,-1.0452,-1.0452,-1.0585,-1.0721,-1.0721,-1.0721,-1.0721,-1.0721,-1.3774,-1.6431,-1.8186,-2.0068,-2.1109,-2.1109,-2.1109,-2.1109,-2.1109,-2.1109,-2.1109,-2.1109,-2.1109,-2.0815,-2.0213,-2.018,-1.9927,-1.9464,-1.9437,-1.9424,-1.9424,-1.9424,-1.9424,-1.9424,-1.9424,-1.941,-1.9325,-1.9325,-1.8951,-1.845,-1.845,-1.807,-1.7582,-1.7582,-1.7582,-1.7582,-1.7582,-1.7582,-1.8192,-2.0939,-2.1702,-2.2307,-2.502,-2.5693,-2.5693,-2.5693,-2.5625,-2.546,-2.5098,-2.4639,-2.4189,-2.3809,-2.3408,-2.3091,-2.3091,-2.3091,-2.3091,-2.3091,-2.3091,-2.3091,-2.3091,-2.3091,-2.3091,-2.3091,-2.3091,-2.3091,-2.3091,-2.3091,-2.3091,-2.3091,-2.3091,-2.3091,-2.3091,-2.3091,-2.3091,-2.3091,-2.3091,-2.2536,-2.148,-2.148,-2.0845,-1.9625,-1.8411,-1.7824,-1.2157,-1.2595,-1.3042,-1.5632,-1.6774,-1.7678,-1.926,-1.9492,-1.9424,-1.9424,-1.9424,-1.8415,-1.5198,-1.4766,-1.3918,-1.077,-1.0477,-1.0649,-1.0711,-1.0721,-1.0721,-1.0721,-1.0721,-1.0721,-1.0721,-1.1633,-1.3128,-1.5269,-1.6695,-1.8244,-1.9998,-2.0716,-2.1109,-2.1109,-2.1109,-2.1109,-2.1109,-2.1109,-2.1109,-2.1109,-2.0935,-2.0635,-2.0167,-2.0054,-1.9746,-1.9424,-1.9424,-1.9424,-1.9424,-1.9424,-1.9424,-1.9424,-1.9424,-1.9424,-1.9403,-1.9165,-1.8844,-1.8464,-1.829,-1.7943,-1.7582,-1.7582,-1.7582,-1.7582,-1.7582,-1.7582,-1.7989,-1.9878,-2.1041,-2.2106,-2.3998,-2.5118,-2.5693,-2.5693,-2.5527,-2.5283,-2.5155,-2.4521,-2.3984,-2.3828,-2.3437,-2.3091,-2.3091,-2.3091,-2.3091,-2.3091,-2.3091,-2.3091,-2.3091,-2.3091,-2.3091,-2.3091,-2.3091,-2.3091,-2.3091,-2.3091,-2.3091,-2.3091,-2.3091,-2.3091,-2.3091,-2.3091,-2.3091,-2.3091,-2.2403,-2.18,-2.1293,-2.0567,-1.9579,-1.8411,-1.7917,-1.7271,-1.4081,-1.4384,-1.4568,-1.6954,-1.7462,-1.7715,-1.8816,-1.8488,-1.811,-1.859,-1.8292,-1.7279,-1.502,-1.4421,-1.339,-1.0711,-1.049,-1.067,-1.0714,-1.0721,-1.0721,-1.0721,-1.0721,-1.0721,-1.0721,-1.2285,-1.4749,-1.825,-1.8506,-1.9285,-2.0982,-2.1109,-2.1109,-2.1109,-2.1109,-2.1109,-2.1109,-2.1109,-2.1069,-2.0982,-2.0775,-2.0474,-2.01,-1.9893,-1.9639,-1.9424,-1.9424,-1.9424,-1.9424,-1.9424,-1.9424,-1.9424,-1.9424,-1.9424,-1.939,-1.9032,-1.8738,-1.8444,-1.8095,-1.7842,-1.7582,-1.7582,-1.7582,-1.7582,-1.7582,-1.7582,-1.7891,-1.922,-2.059,-2.2005,-2.3335,-2.4402,-2.5226,-2.5586,-2.5498,-2.5264,-2.5264,-2.459,-2.3975,-2.3975,-2.3516,-2.3091,-2.3091,-2.3091,-2.3091,-2.3091,-2.3091,-2.3091,-2.3091,-2.3091,-2.3091,-2.3091,-2.3091,-2.3091,-2.3091,-2.3091,-2.3091,-2.3091,-2.3091,-2.3091,-2.3091,-2.3091,-2.3091,-2.3091,-2.1889,-2.1114,-2.0755,-1.9534,-1.8319,-1.7131,-1.7131,-1.703,-1.4927,-1.6139,-1.7468,-1.7789,-1.7659,-1.7409,-1.7403,-1.6013,-1.5074,-1.6674,-1.5784,-1.4663,-1.4604,-1.3397,-1.1949,-1.0506,-1.0399,-1.0548,-1.07,-1.0721,-1.0721,-1.0721,-1.0721,-1.0721,-1.0721,-1.2285,-1.4749,-1.825,-1.8506,-1.9285,-2.0982,-2.1109,-2.1109,-2.1109,-2.1109,-2.1109,-2.1109,-2.1109,-2.0962,-2.0681,-2.0675,-2.0368,-1.9806,-1.98,-1.9639,-1.9424,-1.9424,-1.9424,-1.9424,-1.9424,-1.9424,-1.9424,-1.9424,-1.9424,-1.939,-1.9032,-1.8738,-1.8444,-1.8095,-1.7842,-1.7582,-1.7582,-1.7582,-1.7582,-1.7582,-1.7582,-1.7891,-1.922,-2.059,-2.2005,-2.3335,-2.3692,-2.4048,-2.5382,-2.5684,-2.5684,-2.5684,-2.4992,-2.4414,-2.4414,-2.3676,-2.3091,-2.3091,-2.3091,-2.3091,-2.3091,-2.3091,-2.3091,-2.3091,-2.3091,-2.3091,-2.3091,-2.3091,-2.3091,-2.3091,-2.3091,-2.3091,-2.3091,-2.3091,-2.3091,-2.3091,-2.3091,-2.3091,-2.3091,-2.1889,-2.0702,-1.9542,-1.8326,-1.7037,-1.5825,-1.5825,-1.7117,-1.738,-1.7708,-1.7427,-1.7509,-1.7468,-1.7103,-1.6018,-1.5181,-1.4759,-1.5387,-1.5118,-1.4443,-1.3489,-1.2996,-1.2266,-1.067,-1.0551,-1.0663,-1.0714,-1.0721,-1.0721,-1.0721,-1.1762,-1.2935,-1.4166,-1.5848,-1.7795,-2.0132,-2.0265,-2.0526,-2.1046,-2.1109,-2.1109,-2.1109,-2.1109,-2.1015,-2.0815,-2.0815,-2.0668,-2.0368,-2.0174,-1.998,-1.9793,-1.9593,-1.9452,-1.9424,-1.9424,-1.9424,-1.9424,-1.9424,-1.9424,-1.9424,-1.9424,-1.9424,-1.937,-1.8811,-1.8571,-1.8417,-1.7909,-1.7662,-1.7582,-1.7582,-1.7582,-1.7582,-1.7582,-1.7582,-1.7891,-1.922,-2.059,-2.1803,-2.2206,-2.3683,-2.4922,-2.4452,-2.502,-2.5606,-2.5352,-2.4824,-2.4336,-2.4043,-2.3525,-2.3091,-2.3091,-2.3091,-2.3091,-2.3091,-2.3091,-2.3091,-2.3091,-2.3091,-2.3091,-2.3091,-2.3091,-2.3091,-2.3091,-2.3091,-2.3091,-2.3091,-2.3091,-2.3091,-2.3091,-2.2306,-2.1845,-2.1845,-1.9852,-1.8634,-1.828,-1.703,-1.6622,-1.7084,-1.7084,-1.8403,-1.8959,-1.8931,-1.8165,-1.7714,-1.7058,-1.6073,-1.4441,-1.3435,-1.2964,-1.3686,-1.3346,-1.2865,-1.2631,-1.2194,-1.1637,-1.0674,-1.0619,-1.0721,-1.0721,-1.0721,-1.0913,-1.1567,-1.2606,-1.4232,-1.663,-1.7859,-1.9221,-2.0982,-2.1109,-2.1109,-2.1109,-2.1109,-2.1056,-2.0949,-2.0949,-2.0862,-2.0675,-2.0568,-2.0042,-1.9137,-1.9575,-1.9437,-1.8775,-1.9206,-1.9424,-1.9424,-1.9424,-1.9424,0.0,-1.9424,-1.9424,-1.9424,-1.9424,-1.9299,-1.9145,-1.8664,-1.8424,-1.825,-1.7756,-1.7582,-1.7582,-1.7582,-1.7582,-1.7582,-1.7582,-1.7582,-1.7786,-1.861,-1.9472,-2.0385,-2.144,-2.2918,-2.4254,-2.4402,-2.5069,-2.5567,-2.5213,-2.4727,-2.4287,-2.3867,-2.3437,-2.3091,-2.3091,-2.3091,-2.3091,-2.3091,-2.3091,-2.3091,-2.3091,-2.3091,-2.3091,-2.3091,-2.3091,-2.3091,-2.3091,-2.3091,-2.3091,-2.3091,-2.3091,-2.3091,-2.3091,-2.1943,-2.1293,-2.1293,-1.891,-1.7692,-1.7692,-1.6433,-1.6433,-1.7684,-1.8187,-1.9177,0.0,-1.9707,-1.9278,-1.7991,-1.622,-1.4356,-1.2773,-1.1069,0.0,-1.1752,-1.0857,-1.0307,-1.195,-1.1195,-1.0341,-1.0483,-1.0626,-1.0721,-1.0721,-1.0784,-1.1501,-1.3128,-1.3517,-1.4944,-1.818,-1.8634,-1.9355,-2.0976,-2.1109,-2.1109,-2.1109,-2.1089,-2.0955,-2.0681,-2.0635,-2.0615,-2.0615,-2.0212,-1.9124,-1.738,-1.879,-1.8591,-1.7026,-1.8525,-1.9307,-1.9424,-1.9424,-1.9424,-1.9424,-1.9424,-1.9424,-1.9424,-1.9424,-1.9185,-1.8885,-1.8597,-1.8303,-1.7949,-1.7689,-1.7582,-1.7582,-1.7582,-1.7582,-1.7582,-1.7582,-1.7582,-1.7582,-1.7582,-1.7687,-1.8349,-2.0888,-2.1702,-2.2458,-2.4971,-2.5635,-2.5557,-2.5127,-2.4697,-2.4241,-2.3728,-2.332,-2.3047,-2.3003,-2.3047,-2.3091,-2.3091,-2.3091,-2.3091,-2.3091,-2.3091,-2.3091,-2.3091,-2.3091,-2.3091,-2.3091,-2.3091,-2.3091,-2.3091,-2.3091,-2.3047,-2.296,-2.18,-2.1114,-2.1069,-1.8772,-1.7598,-1.7692,-1.6527,-1.6615,-1.7963,-1.8993,-1.9542,-1.9511,0.0,-1.7315,-1.5763,-1.4115,-1.2462,0.0,-1.0147,-0.9913,-1.0399,-1.0239,-1.0135,-1.0845,-1.0673,-1.049,-1.0643,-1.0697,-1.0721,-1.0721,-1.1828,-1.2869,-1.3259,-1.5659,-1.7597,-1.8442,-1.968,-2.0652,-2.1046,-2.1109,-2.1109,-2.1109,-2.0902,-2.0748,-2.0681,-2.0241,-2.0007,-2.0007,-1.8696,-1.7733,-1.7056,-1.6228,-1.6259,-1.7026,-1.7384,-1.8227,-1.9424,-1.9424,-1.9424,-1.9424,-1.9424,-1.9424,-1.9424,-1.9424,-1.9185,-1.8885,-1.8597,-1.8303,-1.7949,-1.7689,-1.7582,-1.7582,-1.7582,-1.7582,-1.7582,-1.7582,-1.7582,-1.7582,-1.7582,-1.8349,-1.9272,-1.993,-2.1651,-2.3384,-2.3998,-2.4971,-2.5479,-2.4736,-2.4492,-2.3905,-2.2221,-2.2558,-2.2818,-2.1889,-2.2492,-2.3091,-2.3091,-2.3091,-2.3091,-2.3091,-2.3091,-2.3091,-2.3091,-2.3091,-2.3091,-2.3091,-2.3091,-2.3091,-2.3091,-2.3091,-2.2677,-2.1756,-2.0576,-1.9497,-1.8549,-1.703,-1.6716,-1.7692,-1.7412,-1.8357,-2.044,-1.9807,-1.9988,-1.9424,-1.8263,-1.6728,-1.5105,-1.3486,-1.1861,-1.0288,-0.9873,-0.9842,-0.9866,-0.9883,-0.9953,-1.0246,-1.0348,-1.0443,-1.0592,-1.0673,-1.0979,-1.1762,-1.2738,-1.3905,-1.5529,-1.7339,-1.8832,-1.961,-2.0526,-2.1109,-2.1109,-2.1109,-2.1049,-2.0915,-2.0762,-2.0555,-2.0281,-1.9967,-1.98,-1.98,-1.8083,-1.6747,-1.5902,-1.502,-1.5079,-1.5902,-1.6668,-1.7864,-1.9424,-1.9424,-1.9424,-1.9424,-1.9424,-1.9424,-1.9424,-1.9424,-1.9105,-1.8704,-1.8551,-1.821,-1.7809,-1.7642,-1.7582,-1.7582,-1.7582,-1.7582,-1.7582,-1.7582,-1.7582,-1.7582,-1.7582,-1.8558,-1.9731,-2.0385,-2.2114,-2.384,-2.4452,-2.5177,-2.545,-2.4609,-2.4414,-2.3968,-2.2422,-2.2633,-2.2906,-2.2262,-2.2677,-2.3091,-2.3091,-2.3091,-2.3091,-2.3091,-2.3091,-2.3091,-2.3091,-2.3091,-2.3091,-2.3091,-2.3091,-2.3091,-2.3091,-2.3091,-2.2536,-2.1337,-2.0124,-1.8672,-1.685,-1.6157,-1.6433,-1.7692,-1.7692,-1.8956,-2.1293,-2.0079,-1.9852,-1.9419,-1.8189,-1.6546,-1.5129,-1.3385,-1.1695,-1.0263,-0.9852,-0.9822,-0.9822,-0.9822,-0.9876,-0.999,-1.0192,-1.0334,-1.05,-1.0636,-1.1306,-1.3062,-1.3517,-1.4879,-1.8116,-1.8704,-1.9483,-2.0976,-2.1069,-2.1042,-2.1042,-2.1002,-2.0869,-2.0621,-2.0568,-2.0314,-1.9813,-1.976,-1.9615,-1.9365,-1.7557,-1.5843,-1.4242,-1.4004,-1.4123,-1.4663,-1.5784,-1.739,-1.9366,-1.9127,-1.9185,-1.9424,-1.9424,-1.9424,-1.9424,-1.9424,-1.9038,-1.8551,-1.851,-1.8136,-1.7649,-1.7602,-1.7582,-1.7582,-1.7582,-1.7582,-1.7582,-1.7582,-1.7582,-1.7582,-1.7582,-1.8401,-1.9627,-2.1041,-2.2206,-2.3484,-2.502,-2.5333,-2.5112,-2.4543,-2.4365,-2.3991,-2.3017,-2.296,-2.3047,-2.2862,-2.2818,-2.2906,-2.3047,-2.295,-2.2818,-2.2818,-2.3003,-2.3047,-2.2862,-2.3003,-2.3091,-2.3091,-2.3091,-2.3091,-2.3091,-2.3091,-2.2492,-2.1069,-1.967,-1.794,-1.5825,-1.5967,-1.6709,-1.7963,-1.8141,-1.9314,-2.1293,-2.0079,-1.9405,-1.9666,-1.7611,-1.5238,-1.4741,-1.2499,-1.026,-0.9883,-0.9839,-0.9822,-0.9822,-0.9822,-0.9907,-1.0192,-1.0263,-1.0368,-1.0639,-1.0704,-1.1306,-1.3062,-1.4553,-1.6242,-1.8244,-1.9807,-2.0786,-2.1046,-2.0882,-2.0742,-2.0742,-2.0508,-2.0347,-2.0301,-2.0067,-1.9893,-1.9806,-1.9559,-1.8829,-1.7444,-1.58,-1.4183,-1.2573,-1.1197,-1.1976,-1.4545,-1.3467,-1.5306,-1.9307,-1.7981,-1.8163,-1.9424,-1.9424,-1.9424,-1.9424,-1.9424,-1.9158,-1.8824,-1.8577,-1.827,-1.7936,-1.7675,-1.7582,-1.7582,-1.7582,-1.7582,-1.7582,-1.7582,-1.7582,-1.7582,-1.7582,-1.7733,-1.8199,-1.9576,-2.0084,-2.0845,-2.3384,-2.3684,-2.3599,-2.4233,-2.4141,-2.3451,-2.1893,-2.2403,-2.2775,-2.1756,-2.1569,-2.1933,-2.296,-2.2217,-2.1569,-2.1569,-2.2492,-2.2721,-2.1712,-2.2492,-2.3091,-2.3091,-2.3091,-2.3091,-2.3091,-2.3091,-2.2085,-1.9852,-1.7569,-1.6197,-1.5832,-1.685,-1.8002,-1.9222,-2.026,-2.0935,-2.1293,-2.0079,-1.8948,-1.9533,-1.7278,-1.484,-1.4761,-1.2453,-1.027,-1.0198,-1.0059,-0.9883,-0.9883,-0.988,-0.989,-1.0114,-1.0222,-1.0378,-1.0673,-1.1501,-1.2738,-1.4493,-1.6242,-1.7923,-1.968,-2.0589,-2.1049,-2.0889,-2.0755,-2.0608,-2.0448,-2.0307,-2.0167,-2.0007,-1.9873,-1.9726,-1.9573,-1.8648,-1.7331,-1.5725,-1.4123,-1.2933,-1.2153,-1.0539,-1.102,-1.3287,-1.2513,-1.4356,-1.8046,-1.7325,-1.7923,-1.9424,-1.9424,-1.9424,-1.9424,-1.9424,-1.9092,-1.8637,-1.817,-1.7916,-1.7776,-1.7629,-1.7582,-1.7582,-1.7582,-1.7582,-1.7582,-1.7582,-1.7582,-1.7582,-1.7582,-1.8094,-1.8812,-1.942,-2.0187,-2.0993,-2.2102,-2.2677,-2.3021,-2.3084,-2.3463,-2.3284,-2.1651,-2.1756,-2.1756,-2.0531,-2.035,-2.0531,-2.1087,-2.0674,-2.035,-2.035,-2.1391,-2.1889,-2.1337,-2.2403,-2.3091,-2.3091,-2.3091,-2.3091,-2.3091,-2.1863,-2.0674,-1.9542,-1.7109,-1.6103,-1.6803,-1.7412,-1.8588,-2.0486,-2.1025,-2.1293,-2.1293,-2.0079,-1.8864,-1.9511,-1.7446,-1.5297,-1.4983,-1.2607,-1.0399,-1.0432,-1.0239,-0.9987,-0.9987,-0.9896,-0.9849,-0.9967,-1.0205,-1.0415,-1.0677,-1.2153,-1.3905,-1.5659,-1.7404,-1.9158,-2.0912,-2.1049,-2.0922,-2.0702,-2.0555,-2.0374,-2.0147,-2.0067,-1.9933,-1.9713,-1.97,-1.9599,-1.943,-1.7864,-1.6256,-1.4604,-1.2993,-1.2037,-1.1615,-1.0418,-1.066,-1.2213,-1.1796,-1.3577,-1.6968,-1.6615,-1.7566,-1.9424,-1.9424,-1.9424,-1.9417,-1.9292,-1.8905,-1.833,-1.7862,-1.7649,-1.7582,-1.7582,-1.7582,-1.7582,-1.7582,-1.7582,-1.7582,-1.7582,-1.7582,-1.7582,-1.7582,-1.8349,-1.9102,-1.9029,-1.9867,-2.0631,-2.062,-2.1267,-2.1778,-2.1587,-2.2217,-2.2413,-2.1132,-2.089,-2.0576,-1.967,-1.9268,-1.9177,-1.9451,-1.9268,-1.9085,-1.9085,-2.0124,-2.0755,-2.0486,-2.1543,-2.2359,-2.2633,-2.295,-2.3091,-2.3091,-2.1087,-1.9807,-1.9488,-1.7662,-1.6983,-1.7692,-1.828,-1.9443,-2.1293,-2.1293,-2.1159,-2.0845,-1.9625,-1.8411,-1.9693,-1.8439,-1.6744,-1.5546,-1.2635,-1.0054,-1.0263,-1.0168,-0.9987,-0.9987,-0.9977,-0.9974,-0.9984,-1.0283,-1.0531,-1.0694,-1.2153,-1.3905,-1.5659,-1.7404,-1.9158,-2.0912,-2.0869,-2.0702,-2.0681,-2.018,-1.9853,-1.9833,-1.9579,-1.9419,-1.9457,-1.9457,-1.945,-1.9424,-1.7864,-1.6256,-1.4604,-1.2993,-1.1438,-1.0001,-0.9883,-1.066,-1.2153,-1.066,-1.2564,-1.6909,-1.5429,-1.6503,-1.9424,-1.9424,-1.9424,-1.9339,-1.9065,-1.8597,-1.8015,-1.7975,-1.7829,-1.7582,-1.7582,-1.7582,-1.7582,-1.7582,-1.7582,-1.7582,-1.7582,-1.7582,-1.7582,-1.7582,-1.7687,-1.7673,-1.7455,-1.7432,-1.7752,-1.8662,-1.8648,-1.8789,-1.9994,-1.9991,-1.9749,-1.9633,-1.9633,-1.9579,-1.9488,-1.8588,-1.8187,-1.9314,-1.8549,-1.7824,-1.7824,-1.8864,-1.9177,-1.8095,-1.9039,-2.0215,-2.1337,-2.2448,-2.3091,-2.3091,-2.1889,-2.0666,-1.9542,-1.9314,-1.8772,-1.7738,-1.9898,-2.1114,-2.1293,-2.1293,-2.0711,-1.9579,-1.8411,-1.7131,-1.9499,-1.8319,-1.6751,-1.5354,-1.3179,-1.1218,-1.0586,-1.0297,-1.0219,-1.0307,-1.0256,-1.0195,-1.0195,-1.0287,-1.0409,-1.0555,-1.2953,-1.5002,-1.5583,-1.8082,-2.0069,-2.0458,-2.0468,-2.0327,-2.0154,-1.9933,-1.9726,-1.9546,-1.9491,-1.9424,-1.9424,-1.9424,-1.9424,-1.9424,-1.6856,-1.5192,-1.4604,-1.2037,-1.0422,-0.9822,-0.9822,-1.0119,-1.066,-1.0061,-1.1314,-1.4054,-1.4421,-1.5849,-1.7981,-1.9004,-1.9259,-1.9045,-1.8564,-1.8189,-1.7969,-1.7829,-1.7682,-1.7582,-1.7582,-1.7582,-1.7582,-1.7582,-1.7582,-1.7582,-1.7582,-1.7582,-1.7582,-1.7582,-1.7582,-1.7515,-1.728,-1.7199,-1.718,-1.7225,-1.764,-1.8205,-1.8504,-1.909,-1.9268,-1.8549,-1.8365,-1.8133,-1.7343,-1.6796,-1.6662,-1.7117,-1.6796,-1.6527,-1.6527,-1.763,-1.8187,-1.7738,-1.9443,-2.08,-2.1248,-2.2403,-2.3091,-2.3091,-2.1987,-2.1114,-2.0621,-1.9898,-1.9625,-1.9943,-2.0845,-2.1293,-2.1293,-2.1293,-2.0305,-1.8365,-1.7917,-1.7037,-1.9424,-1.8583,-1.7367,-1.5861,-1.4226,-1.263,-1.14,-1.0693,-1.031,-1.0405,-1.0307,-1.0222,-1.0273,-1.0243,-1.0256,-1.0402,-1.333,-1.5536,-1.5479,-1.838,-2.0461,-2.0261,-2.0154,-2.0013,-1.982,-1.972,-1.9579,-1.9379,-1.9424,-1.9424,-1.9424,-1.9424,-1.9185,-1.8648,-1.6026,-1.4366,-1.383,-1.1137,-0.9822,-0.9822,-0.9822,-0.9822,-0.9822,-0.9822,-1.066,-1.2273,-1.3885,-1.5192,-1.6374,-1.8429,-1.8998,-1.8548,-1.8149,-1.7935,-1.7876,-1.7662,-1.7582,-1.7582,-1.7582,-1.7582,-1.7582,-1.7582,-1.7582,-1.7582,-1.7582,-1.7582,-1.7582,-1.7582,-1.7515,-1.7434,-1.7139,-1.7058,-1.6911,-1.6273,-1.6793,-1.7344,-1.7127,-1.7762,-1.8079,-1.7264,-1.7084,-1.6803,-1.5967,-1.5905,-1.5939,-1.5798,-1.5912,-1.5939,-1.5791,-1.6574,-1.7084,-1.7084,-1.926,-2.0747,-2.0747,-2.2173,-2.3091,-2.3091,-2.235,-2.1702,-2.1337,-2.0845,-2.0854,-2.1293,-2.1658,-2.1658,-2.1293,-2.0935,-1.9679,-1.7684,-1.7271,-1.6622,-1.9424,-1.9424,-1.9004,-1.7384,-1.5784,-1.4241,-1.2756,-1.1283,-1.028,-1.028,-1.0158,-1.0034,-1.0249,-1.0151,-1.0097,-1.0253,-1.3143,-1.5308,-1.5308,-1.8111,-2.0227,-2.0167,-1.9967,-1.98,-1.98,-1.9539,-1.9424,-1.9424,-1.9424,-1.9424,-1.9424,-1.9424,-1.8642,-1.7026,-1.5429,-1.3825,-1.2217,-1.06,-0.9822,-0.9822,-0.9822,-0.9822,-0.9822,-0.9822,-1.066,-1.2273,-1.3885,-1.4604,-1.4826,-1.7695,-1.8515,-1.7989,-1.7989,-1.7856,-1.7582,-1.7582,-1.7582,-1.7582,-1.7582,-1.7582,-1.7582,-1.7582,-1.7582,-1.7582,-1.7582,-1.7582,-1.7582,-1.7582,-1.7427,-1.7132,-1.678,-1.67,-1.6553,-1.5917,-1.5784,-1.5784,-1.5784,-1.5784,-1.5784,-1.5784,-1.5784,-1.5784,-1.5784,-1.6079,-1.6172,-1.5831,-1.6079,-1.6166,-1.5818,-1.5784,-1.5784,-1.5784,-1.8033,-1.9497,-1.9497,-2.1676,-2.3091,-2.3091,-2.3091,-2.2536,-2.1382,-2.2448,-2.2536,-2.1337,-2.2492,-2.2492,-2.1293,-2.0079,-1.8864,-1.7645,-1.6386,-1.5784,-1.9112,-1.9058,-1.8638,-1.705,-1.6483,-1.5564,-1.2884,-1.1106,-1.0148,-1.0256,-1.0158,-1.0,-1.011,-0.9992,-1.0302,-1.1569,-1.3617,-1.5451,-1.6492,-1.8516,-1.9853,-1.9646,-1.9546,-1.9499,-1.9499,-1.9477,-1.9424,-1.9424,-1.9424,-1.9424,-1.9424,-1.9424,-1.8642,-1.7026,-1.5429,-1.3825,-1.2217,-1.06,-0.9822,-0.9822,-0.9822,-0.9822,-0.9822,-0.9822,-1.0058,-1.06,-1.2217,-1.2933,-1.3145,-1.58,-1.6796,-1.6623,-1.7415,-1.7662,-1.7582,-1.7582,-1.7582,-1.7582,-1.7582,-1.7582,-1.7582,-1.7582,-1.7582,-1.7582,-1.7582,-1.7582,-1.7582,-1.7582,-1.7427,-1.7132,-1.678,-1.6553,-1.6306,-1.5919,-1.5784,-1.5784,-1.5784,-1.5784,-1.5784,-1.5784,-1.5999,-1.6139,-1.6139,-1.6213,-1.6295,-1.6152,-1.6039,-1.5925,-1.5791,-1.5784,-1.5784,-1.5784,-1.8033,-1.9177,-1.8326,-2.0449,-2.1845,-2.1845,-2.1845,-2.2031,-2.2545,-2.2906,-2.295,-2.258,-2.2906,-2.2085,-2.0034,-1.967,-1.8442,-1.6339,-1.5967,-1.5784,-1.9152,-1.9098,-1.8863,-1.7911,-1.7322,-1.6133,-1.2928,-1.1031,-1.0031,-1.0249,-1.0158,-0.9987,-0.9987,-1.0407,-1.1111,-1.2126,-1.4253,-1.6117,-1.7024,-1.8597,-1.9559,-1.945,-1.9924,-2.0256,-2.0256,-2.0256,-2.0256,-2.0256,-1.9758,-1.9424,-1.9424,-1.9424,-1.835,-1.6138,-1.5133,-1.3494,-1.1164,-1.0212,-0.9707,-0.9646,-0.9646,-0.9646,-0.9649,-0.9768,-0.9822,-0.9879,-1.0774,-1.1786,-1.2847,-1.3788,-1.4773,-1.5742,-1.6455,-1.7094,-1.7582,-1.7582,-1.7582,-1.7582,-1.7582,-1.7582,-1.7582,-1.7582,-1.7582,-1.7582,-1.7582,-1.7582,-1.7555,-1.7494,-1.7253,-1.6907,-1.6607,-1.6319,-1.6052,-1.5872,-1.5784,-1.5784,-1.5784,-1.5784,-1.5865,-1.5979,-1.6152,-1.6321,-1.6321,-1.6373,-1.6406,-1.6342,-1.6219,-1.6179,-1.6179,-1.6072,-1.6005,-1.6005,-1.8109,-1.8993,-1.7777,-1.9898,-2.1293,-2.1293,-2.0845,-2.1346,-2.3047,-2.3091,-2.3091,-2.3091,-2.2633,-2.1445,-1.9497,-1.8993,-1.7762,-1.5784,-1.5784,-1.5784,-1.9424,-1.9424,-1.943,-1.9457,-1.82,-1.622,-1.3112,-1.126,-1.0191,-1.0272,-1.0127,-0.9967,-0.9967,-1.1183,-1.2273,-1.2393,-1.5004,-1.7026,-1.7202,-1.8467,-1.9424,-1.9424,-2.0702,-2.1529,-2.1415,-2.1529,-2.1529,-2.1422,-2.0148,-1.9424,-1.9424,-1.9339,-1.7898,-1.4687,-1.4553,-1.2917,-0.9588,-0.9588,-0.9517,-0.9381,-0.9381,-0.9381,-0.9391,-0.9659,-0.9781,-0.9774,-0.9646,-1.0967,-1.3205,-1.187,-1.2798,-1.5037,-1.531,-1.6227,-1.7417,-1.7529,-1.7582,-1.7582,-1.7582,-1.7582,-1.7582,-1.7582,-1.7582,-1.7582,-1.7582,-1.7582,-1.7522,-1.7286,-1.6934,-1.664,-1.6346,-1.6052,-1.5784,-1.5784,-1.5784,-1.5784,-1.5784,-1.5784,-1.5919,-1.6213,-1.6342,-1.6362,-1.6362,-1.6553,-1.6647,-1.6359,-1.6533,-1.6707,-1.6707,-1.6453,-1.6321,-1.6321,-1.8145,-1.8856,-1.7638,-1.9625,-2.098,-2.098,-1.9943,-2.0359,-2.2687,-2.2862,-2.3003,-2.3091,-2.1889,-2.0711,-1.9497,-1.828,-1.7037,-1.5784,-1.5784,-1.5872,-1.9424,-1.9424,-1.9419,-1.9646,-1.8483,-1.6731,-1.458,-1.2844,-1.1384,-1.0155,-0.9893,-0.9869,-0.9869,-1.1103,-1.2633,-1.3885,-1.572,-1.7443,-1.8706,-1.9185,-1.9424,-1.9424,-2.0702,-2.1145,-1.9982,-2.0923,-2.1145,-1.9982,-1.9591,-1.9424,-1.9424,-1.9145,-1.7607,-1.4511,-1.4169,-1.2565,-0.9487,-0.9432,-0.9415,-0.9381,-0.9381,-0.9381,-0.9384,-0.9445,-0.9476,-0.9476,-0.9442,-0.9723,-1.0209,-1.0984,-1.1594,-1.224,-1.4502,-1.5577,-1.6009,-1.7147,-1.7582,-1.7582,-1.7582,-1.7582,-1.7582,-1.7582,-1.7582,-1.7582,-1.7582,-1.7582,-1.7522,-1.7286,-1.6934,-1.664,-1.6346,-1.6052,-1.5784,-1.5784,-1.5784,-1.5784,-1.5784,-1.5784,-1.5919,-1.6213,-1.646,-1.6613,-1.6613,-1.686,-1.7005,-1.6653,-1.6667,-1.6707,-1.6707,-1.6453,-1.6321,-1.6321,-1.7359,-1.7591,-1.6339,-1.7584,-1.8457,-1.8457,-1.8226,-1.8726,-2.0223,-2.1168,-2.212,-2.3091,-2.1889,-2.0711,-1.9497,-1.828,-1.7037,-1.5784,-1.5784,-1.6339,-1.9192,-1.9259,-1.9406,-1.9553,-1.8376,-1.677,-1.4986,-1.3347,-1.1736,-1.0122,-0.9822,-0.9822,-0.9822,-1.1736,-1.3646,-1.448,-1.6621,-1.846,-1.9307,-1.9424,-1.9649,-2.0371,-2.1756,-2.2645,-2.2597,-2.2653,-2.2315,-2.1544,-2.0206,-1.9305,-1.9165,-1.9005,-1.7458,-1.4281,-1.3992,-1.2411,-0.933,-0.933,-0.9235,-0.9167,-0.9167,-0.9167,-0.9174,-0.9317,-0.934,-0.933,-0.933,-0.9188,-0.9105,-0.9872,-1.0536,-1.1324,-1.3534,-1.4824,-1.5577,-1.7041,-1.7582,-1.7582,-1.7582,-1.7582,-1.7582,-1.7582,-1.7582,-1.7582,-1.7582,-1.7582,-1.7488,-1.7061,-1.682,-1.6607,-1.6172,-1.5945,-1.5784,-1.5784,-1.5784,-1.5784,-1.5784,-1.5784,-1.5919,-1.6213,-1.6506,-1.666,-1.652,-1.6627,-1.6777,-1.6707,-1.6827,-1.6967,-1.7108,-1.6924,-1.669,-1.65,-1.7311,-1.7345,-1.5933,-1.699,-1.7692,-1.7692,-1.7131,-1.763,-1.9405,-1.9542,-2.0124,-2.1364,-2.0178,-1.9268,-1.8634,-1.801,-1.7365,-1.6709,-1.7304,-1.763,-1.8978,-1.9178,-1.9446,-1.9446,-1.8478,-1.6967,-1.5025,-1.3591,-1.2097,-1.0179,-0.9822,-0.9879,-1.0179,-1.2633,-1.4663,-1.4955,-1.7455,-1.9424,-1.9424,-1.9424,-1.9924,-2.1415,-2.287,-2.4322,-2.5599,-2.4765,-2.3989,-2.3487,-2.1101,-1.9459,-1.8938,-1.8831,-1.7278,-1.3989,-1.3836,-1.2271,-0.9173,-0.9173,-0.9055,-0.8885,-0.8885,-0.8885,-0.8892,-0.9195,-0.9235,-0.9173,-0.9173,-0.9049,-0.8885,-0.8885,-0.9644,-1.0891,-1.2615,-1.4019,-1.5257,-1.6982,-1.7582,-1.7582,-1.7582,-1.7582,-1.7582,-1.7582,-1.7582,-1.7582,-1.7582,-1.7582,-1.7455,-1.6867,-1.6707,-1.6573,-1.5985,-1.5784,-1.5784,-1.5784,-1.5824,-1.5892,-1.5791,-1.5784,-1.5919,-1.6213,-1.6466,-1.6587,-1.6496,-1.6429,-1.6446,-1.674,-1.7085,-1.7367,-1.7549,-1.738,-1.7085,-1.674,-1.7358,-1.7232,-1.5899,-1.6756,-1.7365,-1.7365,-1.6386,-1.6702,-1.8764,-1.7902,-1.7863,-1.8856,-1.8095,-1.7692,-1.7692,-1.7505,-1.7505,-1.7738,-1.8495,-1.8542,-1.8865,-1.9325,-1.974,-1.974,-1.9621,-1.8583,-1.5359,-1.4426,-1.3407,-1.0422,-0.9822,-1.024,-1.1615,-1.3352,-1.5079,-1.6433,-1.8227,-1.9424,-1.9424,-1.9424,-1.9924,-2.1415,-2.287,-2.3877,-2.41,-2.5151,-2.4701,-2.2089,-2.126,-2.0321,-1.8981,-1.8388,-1.6795,-1.3805,-1.3511,-1.1928,-0.8967,-0.8967,-0.8902,-0.8885,-0.8885,-0.8885,-0.8885,-0.8925,-0.8932,-0.8967,-0.8967,-0.8902,-0.8885,-0.8885,-0.8992,-0.9482,-1.224,-1.3426,-1.3911,-1.6611,-1.7582,-1.7582,-1.7582,-1.7582,-1.7582,-1.7582,-1.7582,-1.7582,-1.7582,-1.7582,-1.7455,-1.6867,-1.6707,-1.6573,-1.5985,-1.5784,-1.5784,-1.5784,-1.6025,-1.6146,-1.5838,-1.5784,-1.5919,-1.6213,-1.6355,-1.6529,-1.7005,-1.682,-1.6747,-1.7099,-1.7387,-1.7542,-1.7582,-1.738,-1.7085,-1.674,-1.6594,-1.6346,-1.5852,-1.5967,-1.6062,-1.6062,-1.5872,-1.5967,-1.6292,-1.615,-1.6109,-1.6285,-1.7225,-1.7692,-1.7692,-1.6574,-1.6615,-1.7692,-1.6756,-1.7343,-1.8844,-1.9112,-1.9345,-1.9519,-1.8887,-1.7593,-1.5159,-1.3885,-1.2573,-1.0301,-0.9822,-1.0301,-1.1916,-1.3526,-1.5138,-1.6733,-1.8344,-1.9424,-1.9424,-1.9424,-2.0263,-2.254,-2.3431,-2.4433,-2.6164,-2.6218,-2.5119,-2.2759,-2.1668,-2.0287,-1.8499,-1.8129,-1.6634,-1.358,-1.3369,-1.1864,-0.8937,-0.8885,-0.8885,-0.8885,-0.8885,-0.8885,-0.8885,-0.8885,-0.8885,-0.8885,-0.8885,-0.8885,-0.8885,-0.8885,-0.8885,-0.921,-1.2132,-1.3318,-1.3642,-1.6552,-1.7582,-1.7582,-1.7582,-1.7582,-1.7582,-1.7582,-1.7582,-1.7582,-1.7582,-1.7521,-1.734,-1.7027,-1.6834,-1.6607,-1.6186,-1.6199,-1.6239,-1.5858,-1.6179,-1.6433,-1.6139,-1.6079,-1.6119,-1.6246,-1.6321,-1.6402,-1.6663,-1.6547,-1.656,-1.686,-1.7199,-1.7454,-1.7562,-1.7521,-1.7333,-1.6987,-1.6693,-1.64,-1.6106,-1.5925,-1.5784,-1.5784,-1.5784,-1.5784,-1.5784,-1.5784,-1.5784,-1.5784,-1.6339,-1.6622,-1.6622,-1.7483,-1.7809,-1.7738,-1.8534,-1.8756,-1.8624,-1.8758,-1.8885,-1.9178,-1.8409,-1.7091,-1.5079,-1.3646,-1.2213,-1.024,-1.0122,-1.0899,-1.2513,-1.3765,-1.5252,-1.7267,-1.8648,-1.9424,-1.9424,-1.9424,-2.0486,-2.3439,-2.3822,-2.4994,-2.8014,-2.7276,-2.5775,-2.3536,-2.2268,-2.0508,-1.8124,-1.7585,-1.6126,-1.3378,-1.2945,-1.1483,-0.8937,-0.8885,-0.8885,-0.8885,-0.8885,-0.8885,-0.8885,-0.8885,-0.8885,-0.8885,-0.8885,-0.8885,-0.8885,-0.8885,-0.9099,-0.9699,-1.2295,-1.3534,-1.4126,-1.6664,-1.7582,-1.7582,-1.7582,-1.7582,-1.7582,-1.7582,-1.7528,-1.7475,-1.7475,-1.7373,-1.7186,-1.7112,-1.6934,-1.6754,-1.646,-1.6547,-1.6593,-1.6159,-1.6446,-1.674,-1.6446,-1.638,-1.6406,-1.6529,-1.6482,-1.6406,-1.6529,-1.6543,-1.6616,-1.6787,-1.7119,-1.7387,-1.7555,-1.7582,-1.7521,-1.7233,-1.6881,-1.6587,-1.6299,-1.5999,-1.5784,-1.5784,-1.5784,-1.5784,-1.5784,-1.5784,-1.5784,-1.5784,-1.5784,-1.5784,-1.5784,-1.7662,-1.8265,-1.7731,-1.9214,-1.9123,-1.7955,-1.8297,-1.8584,-1.8871,-1.9101,-1.8467,-1.5316,-1.4545,-1.3586,-1.0422,-1.102,-1.2573,-1.4187,-1.454,-1.5612,-1.8771,-1.9366,-1.9424,-1.9424,-1.9424,-2.0486,-2.3439,-2.3822,-2.4994,-2.8014,-2.8237,-2.6838,-2.3645,-2.3025,-2.1393,-1.8164,-1.6454,-1.484,-1.3372,-1.1919,-1.0457,-0.894,-0.8885,-0.8885,-0.8885,-0.8885,-0.8885,-0.8885,-0.8885,-0.8885,-0.8885,-0.8885,-0.8885,-0.8885,-0.8885,-0.9699,-1.116,-1.2674,-1.4126,-1.547,-1.7041,-1.7582,-1.7582,-1.7582,-1.7582,-1.7582,-1.7582,-1.7447,-1.7226,-1.7226,-1.7213,-1.7139,-1.6807,-1.6921,-1.7112,-1.676,-1.6693,-1.67,-1.6667,-1.6901,-1.7099,-1.6747,-1.6687,-1.6767,-1.7099,-1.6874,-1.6774,-1.7105,-1.7159,-1.7159,-1.7172,-1.7427,-1.7562,-1.7582,-1.7582,-1.7521,-1.7233,-1.6881,-1.6587,-1.6299,-1.5999,-1.5784,-1.5784,-1.5784,-1.5784,-1.5784,-1.5784,-1.5784,-1.5784,-1.5784,-1.5784,-1.5784,-1.592,-1.6574,-1.7692,-1.6567,-1.6662,-1.7909,-1.8069,-1.8277,-1.8571,-1.8865,-1.8256,-1.5083,-1.4493,-1.4009,-1.1796,-1.1796,-1.2988,-1.566,-1.6138,-1.6856,-1.9062,-1.9424,-1.9424,-1.9424,-2.0199,-2.1536,-2.3543,-2.4654,-2.6045,-2.8121,-2.8291,-2.6842,-2.3355,-2.2975,-2.1374,-1.7929,-1.623,-1.477,-1.3318,-1.1864,-1.0402,-0.894,-0.8885,-0.8885,-0.8885,-0.8885,-0.8885,-0.8885,-0.8885,-0.8885,-0.8885,-0.8885,-0.8885,-0.8885,-0.8885,-0.9754,-1.1269,-1.2729,-1.418,-1.5577,-1.7041,-1.7582,-1.7582,-1.7582,-1.7582,-1.7582,-1.7582,-1.744,-1.7199,-1.7199,-1.6938,-1.669,-1.6965,-1.6934,-1.6881,-1.7018,-1.7128,-1.7268,-1.7268,-1.7259,-1.7219,-1.7248,-1.7121,-1.7018,-1.6881,-1.6985,-1.7018,-1.6881,-1.7072,-1.7199,-1.7199,-1.7447,-1.7582,-1.7582,-1.7582,-1.7542,-1.7494,-1.7219,-1.6867,-1.6573,-1.6279,-1.6032,-1.5791,-1.5784,-1.5784,-1.5784,-1.5784,-1.5784,-1.5784,-1.5784,-1.5784,-1.5784,-1.6615,-1.685,-1.648,-1.685,-1.681,-1.7689,-1.7836,-1.8062,-1.8417,-1.8637,-1.8127,-1.5674,-1.4779,-1.403,-1.25,-1.2633,-1.3646,-1.5784,-1.7091,-1.8163,-1.9243,-1.9424,-1.9424,-1.9424,-2.0644,-2.2145,-2.3599,-2.5151,-2.6662,-2.8184,-2.7843,-2.6277,-2.3118,-2.2421,-2.0849,-1.7767,-1.5743,-1.3804,-1.1864,-1.0891,-0.9915,-0.8885,-0.8885,-0.8885,-0.8885,-0.8885,-0.8885,-0.8885,-0.8885,-0.8885,-0.8885,-0.8885,-0.8885,-0.8937,-0.9427,-1.0511,-1.1969,-1.3426,-1.4877,-1.628,-1.7259,-1.7582,-1.7582,-1.7582,-1.7582,-1.7582,-1.7582,-1.744,-1.7199,-1.7199,-1.6924,-1.6697,-1.7092,-1.7074,-1.7048,-1.7293,-1.7494,-1.7582,-1.7582,-1.7435,-1.74,-1.7542,-1.7481,-1.7286,-1.7041,-1.7161,-1.728,-1.7034,-1.7168,-1.7347,-1.7347,-1.7514,-1.7582,-1.7582,-1.7582,-1.7582,-1.7582,-1.7373,-1.7119,-1.6874,-1.65,-1.6186,-1.5992,-1.5838,-1.5784,-1.5784,-1.5784,-1.5784,-1.5784,-1.5784,-1.5784,-1.5784,-1.6669,-1.6622,-1.5825,-1.6662,-1.6622,0.0,0.0,0.0,-1.839,-1.847,-1.822,-1.7175,-1.5565,-1.3898,-1.2581,-1.3581,-1.4653,-1.4723,-1.7279,-1.9424,-1.9424,-1.9424,-1.9424,-1.9424,-2.0702,-2.2202,-2.3654,-2.5206,-2.6717,-2.8174,-2.6943,-2.5226,-2.3081,-2.1518,-1.9793,-1.7728,-1.4888,-1.1973,-0.8992,-0.8885,-0.8881,-0.8826,-0.8881,-0.8881,-0.8826,-0.8881,-0.8885,-0.8885,-0.8885,-0.8885,-0.8885,-0.8885,-0.8885,-0.8992,-1.0511,-1.1969,-1.3426,-1.4824,-1.628,-1.7582,-1.7582,-1.7582,-1.7582,-1.7582,-1.7582,-1.7582,-1.7582,-1.744,-1.7199,-1.7199,-1.7192,-1.7192,-1.7199,-1.7407,-1.7569,-1.7582,-1.7582,-1.7582,-1.7582,-1.7582,-1.7582,-1.7582,-1.7582,-1.7582,-1.7582,-1.7582,-1.7582,-1.7582,-1.7582,-1.7582,-1.7582,-1.7582,-1.7582,-1.7582,-1.7575,-1.7569,-1.7569,-1.7373,-1.7192,-1.7172,-1.6656,-1.6279,-1.6308,-1.5985,-1.5784,-1.5784,-1.5784,-1.5784,-1.5784,-1.5784,-1.5784,-1.5784,-1.5784,-1.5784,-1.5784,-1.5784,-1.5784,-1.7199,0.0,0.0,0.0,0.0,0.0,-1.6383,-1.5823,-1.5511,-1.5351,-1.5632,-1.6396,-1.7833,-1.8829,-1.9424,-1.9424,-1.9424,-1.9424,-1.9424,-2.1601,-2.3319,-2.3766,-2.6109,-2.7843,-2.8237,-2.6943,-2.5286,-2.3386,-2.1658,-1.9895,-1.799,-1.4985,-1.1973,-0.8992,-0.8885,-0.838,-0.7315,-0.8377,-0.8377,-0.7315,-0.838,-0.8885,-0.8885,-0.8885,-0.8885,-0.8885,-0.8885,-0.8885,-0.8992,-1.0511,-1.1969,-1.3426,-1.4824,-1.628,-1.7582,-1.7582,-1.7582,-1.7582,-1.7582,-1.7582,-1.7582,-1.7582,-1.744,-1.7199,-1.7199,-1.7052,-1.6874,-1.7139,-1.7259,-1.7373,-1.7528,-1.7582,-1.7582,-1.7582,-1.7582,-1.7582,-1.7582,-1.7582,-1.7582,-1.7582,-1.7582,-1.7582,-1.7582,-1.7582,-1.7582,-1.7582,-1.7582,-1.7582,-1.7582,-1.7454,-1.732,-1.732,-1.7246,-1.7032,-1.6603,-1.656,-1.6406,-1.5979,-1.5872,-1.5784,-1.5784,-1.5784,-1.5784,-1.5784,-1.5784,-1.5784,-1.5784,-1.5784,-1.5784,-1.5784,-1.5784,-1.5784,-1.7199,-1.6932,-1.6855,-1.7576,0.0,0.0,-1.6881,-1.6403,-1.5999,-1.6249,-1.6446,-1.6857,-1.7962,-1.8861,-1.9424,-1.9424,-1.9424,-1.9591,-2.0256,-2.2322,-2.4044,-2.4654,-2.6983,-2.8261,-2.7466,-2.6199,-2.4616,-2.2607,-2.0801,-1.8687,-1.6169,-1.4315,-1.1973,-0.8992,-0.8322,-0.7595,-0.6702,-0.754,-0.754,-0.6702,-0.8211,-0.8885,-0.8885,-0.8885,-0.8885,-0.8885,-0.8885,-0.8885,-0.9047,-1.116,-1.2512,-1.348,-1.5524,-1.6823,-1.7582,-1.7582,-1.7582,-1.7582,-1.7582,-1.7582,-1.7582,-1.7582,-1.7468,-1.738,-1.738,-1.7208,-1.7108,-1.7333,-1.738,-1.742,-1.7542,-1.7582,-1.7582,-1.7582,-1.7582,-1.7582,-1.7582,-1.7582,-1.7582,-1.7582,-1.7582,-1.7582,-1.7582,-1.7582,-1.7582,-1.7582,-1.7582,-1.7582,-1.7582,-1.7435,-1.738,-1.738,-1.7273,-1.7065,-1.6717,-1.6573,-1.638,-1.6039,-1.5899,-1.5784,-1.5784,-1.5784,-1.5784,-1.5784,-1.5784,-1.5784,-1.5784,-1.5784,-1.5784,-1.5784,-1.5784,-1.5784,-1.7199,-1.6344,-1.5749,-1.7318,-1.6526,0.0,-1.7702,-1.7003,-1.601,-1.6271,-1.6509,-1.6675,-1.6704,-1.8167,-1.9305,-1.9279,-1.9383,-1.9924,-2.1415,-2.287,-2.4394,-2.5999,-2.7608,-2.7977,-2.6318,-2.4966,-2.3343,-2.1301,-1.9528,-1.7004,-1.3542,-1.3334,-1.186,-0.8768,-0.7371,-0.6533,-0.6197,-0.6366,-0.6478,-0.6478,-0.7931,-0.8716,-0.8885,-0.8885,-0.8885,-0.8885,-0.8885,-0.8992,-0.9372,-1.2132,-1.3318,-1.3588,-1.6446,-1.7582,-1.7582,-1.7582,-1.7582,-1.7582,-1.7582,-1.7582,-1.7582,-1.7582,-1.7582,-1.7582,-1.7582,-1.7582,-1.7582,-1.7582,-1.7582,-1.7582,-1.7582,-1.7582,-1.7582,-1.7582,-1.7582,-1.7582,-1.7582,-1.7582,-1.7582,-1.7582,-1.7582,-1.7582,-1.7582,-1.7582,-1.7582,-1.7582,-1.7582,-1.7582,-1.7582,-1.7555,-1.7535,-1.7535,-1.7353,-1.7172,-1.7112,-1.665,-1.6342,-1.6226,-1.5979,-1.5784,-1.5784,-1.5784,-1.5784,-1.5784,-1.5784,-1.5784,-1.5784,-1.5784,-1.5784,-1.5784,-1.5784,-1.5784,-1.7199,-1.6344,-1.5482,-1.5809,-1.5672,0.0,-1.5928,-1.6624,-1.7316,-1.7562,-1.7672,-1.7783,-1.8072,-1.8579,-1.8931,-1.8698,-1.9058,-1.9924,-2.1415,-2.287,-2.4496,-2.633,-2.6781,-2.6855,-2.6606,-2.4089,-2.2188,-2.1575,-1.9654,-1.7085,-1.3818,-1.3415,-1.1411,-0.7257,-0.6869,-0.5528,-0.3128,-0.4301,-0.4916,-0.4973,-0.6422,-0.7762,-0.8885,-0.8885,-0.8885,-0.8885,-0.8885,-0.9592,-1.0836,-1.2566,-1.3318,-1.3588,-1.6446,-1.7582,-1.7582,-1.7582,-1.7582,-1.7582,-1.7582,-1.7582,-1.7582,-1.7582,-1.7582,-1.7582,-1.7582,-1.7582,-1.7582,-1.7582,-1.7582,-1.7582,-1.7582,-1.7582,-1.7582,-1.7582,-1.7582,-1.7582,-1.7582,-1.7582,-1.7582,-1.7582,-1.7582,-1.7582,-1.7582,-1.7582,-1.7582,-1.7582,-1.7582,-1.7582,-1.7582,-1.7427,-1.7286,-1.7286,-1.7233,-1.7012,-1.6536,-1.6553,-1.642,-1.5945,-1.5865,-1.5784,-1.5784,-1.5784,-1.5784,-1.5784,-1.5784,-1.5784,-1.5784,-1.5784,-1.5784,-1.5784,-1.5784,-1.5784,-1.746,-1.5911,-1.4502,-1.5204,-1.4341,0.0,0.0,-1.547,-1.6537,-1.6687,-1.7384,-1.8035,-1.8243,-1.851,-1.8657,-1.8517,-1.8858,-1.9642,-2.0955,-2.2656,-2.4454,-2.6215,-2.6541,-2.5954,-2.4344,-2.2881,-2.1581,-2.0331,-1.9166,-1.711,-1.388,-1.344,-1.1298,-0.6866,-0.5975,-0.4522,-0.2235,-0.3744,-0.4526,-0.4528,-0.6758,-0.8211,-0.8885,-0.8885,-0.8885,-0.8885,-0.8885,-0.9754,-1.1214,-1.2674,-1.3696,-1.4556,-1.677,-1.7582,-1.7582,-1.7582,-1.7582,-1.7582,-1.7582,-1.7582,-1.7582,-1.7582,-1.7582,-1.7582,-1.7582,-1.7582,-1.7582,-1.7582,-1.7582,-1.7582,-1.7582,-1.7582,-1.7582,-1.7582,-1.7582,-1.7582,-1.7582,-1.7582,-1.7582,-1.7582,-1.7582,-1.7582,-1.7582,-1.7582,-1.7582,-1.7582,-1.7582,-1.7582,-1.7582,-1.7455,-1.742,-1.742,-1.7286,-1.7018,-1.6526,-1.6486,-1.6299,-1.5811,-1.5784,-1.5784,-1.5784,-1.5784,-1.5784,-1.5784,-1.5784,-1.5784,-1.5784,-1.5784,-1.5784,-1.5784,-1.5784,-1.5784,-1.7338,-1.5263,-1.348,-1.4341,-1.2832,-1.1428,0.0,0.0,0.0,-1.5417,-1.6741,-1.7902,-1.7902,-1.8203,-1.8384,-1.833,-1.8611,-1.9222,-2.0453,-2.2112,-2.3831,-2.5526,-2.5731,-2.4704,-2.1983,-2.1689,-2.0917,-1.9152,-1.845,-1.6845,-1.3947,-1.2943,-1.0558,-0.6422,-0.486,-0.3297,-0.1789,-0.3297,-0.4191,-0.4528,-0.7204,-0.8602,-0.8885,-0.8885,-0.8885,-0.8885,-0.8885,-0.9915,-1.1592,-1.2832,-1.4288,-1.5956,-1.7147,-1.7582,-1.7582,-1.7582,-1.7582,-1.7582,-1.7582,-1.7582,-1.7582,-1.7582,-1.7582,-1.7582,-1.7582,-1.7582,-1.7582,-1.7582,-1.7582,-1.7582,-1.7582,-1.7582,-1.7582,-1.7582,-1.7582,-1.7582,-1.7582,-1.7582,-1.7582,-1.7582,-1.7582,-1.7582,-1.7582,-1.7582,-1.7582,-1.7582,-1.7582,-1.7582,-1.7582,-1.7582,-1.7582,-1.7582,-1.7427,-1.7139,-1.6734,-1.6486,-1.6206,-1.5804,-1.5784,-1.5784,-1.5784,-1.5784,-1.5784,-1.5784,-1.5784,-1.5784,-1.5784,-1.5784,-1.5784,-1.5784,-1.5784,-1.5784,-1.6088,-1.4502,-1.2994,-1.1864,-1.1324,-1.116,-1.1324,0.0,-1.5417,-1.5417,0.0,-1.7635,-1.7635,0.0,0.0,-1.7729,-1.817,-1.8968,-2.0172,-2.0756,-2.1853,-2.3961,-2.3228,-2.2455,-2.2186,-2.067,-1.9611,-1.9377,-1.774,-1.596,-1.4179,-1.1229,-0.8112,-0.4862,-0.324,-0.1734,-0.028,-0.1733,-0.3129,-0.4528,-0.6144,-0.7651,-0.8885,-0.8885,-0.8885,-0.8885,-0.8885,-1.0457,-1.3048,-1.321,-1.4883,-1.7364,-1.7529,-1.7582,-1.7582,-1.7582,-1.7582,-1.7582,-1.7582,-1.7582,-1.7582,-1.7582,-1.7582,-1.7582,-1.7582,-1.7582,-1.7582,-1.7582,-1.7582,-1.7582,-1.7582,-1.7582,-1.7582,-1.7582,-1.7582,-1.7582,-1.7582,-1.7582,-1.7582,-1.7582,-1.7582,-1.7582,-1.7582,-1.7582,-1.7582,-1.7582,-1.7582,-1.7582,-1.7582,-1.7582,-1.7582,-1.7582,-1.7555,-1.7308,-1.6754,-1.6673,-1.642,-1.5818,-1.5784,-1.5784,-1.5784,-1.5784,-1.5784,-1.5784,-1.5784,-1.5784,-1.5784,-1.5784,-1.5784,-1.5784,-1.5784,-1.5784,-1.4407,-1.3156,-1.1864,-1.1269,-1.0457,-0.9809,-0.9809,-1.2077,-1.418,-1.418,0.0,0.0,0.0,0.0,0.0,0.0,-1.7949,-1.8333,-1.8692,-1.9132,-2.0142,-2.2063,-2.1689,-2.0965,-2.0323,-1.973,-1.9424,-1.9424,-1.7611,-1.5772,-1.4215,-1.092,-0.7679,-0.4583,-0.3017,-0.1901,-0.1287,-0.2795,-0.4301,-0.5808,-0.726,-0.8322,-0.8885,-0.8885,-0.8885,-0.8937,-0.9805,-1.1378,-1.3372,-1.418,-1.5743,-1.7582,-1.7582,-1.7582,-1.7582,-1.7582,-1.7582,-1.7582,-1.7582,-1.7582,-1.7582,-1.7582,-1.7582,-1.7582,-1.7582,-1.7582,-1.7582,-1.7582,-1.7582,-1.7582,-1.7582,-1.7582,-1.7582,-1.7582,-1.7582,-1.7582,-1.7582,-1.7582,-1.7582,-1.7582,-1.7582,-1.7582,-1.7582,-1.7582,-1.7582,-1.7582,-1.7582,-1.7582,-1.7582,-1.7582,-1.7582,-1.7582,-1.7582,-1.7415,-1.6994,-1.6807,-1.6526,-1.6112,-1.6086,-1.6166,-1.6333,-1.6339,-1.6339,-1.6339,-1.6172,-1.6086,-1.6086,-1.5912,-1.5784,-1.5784,-1.5784,-1.5784,-1.2891,-1.1919,-1.1,-1.0621,-0.9699,-0.8885,-0.8885,-1.0891,-1.2852,-1.3291,-1.5415,0.0,0.0,0.0,-1.7709,-1.7709,0.0,-1.7842,-1.7615,-1.7963,-1.8776,-2.0087,-2.0237,-1.9903,-1.9125,-1.9165,-1.9279,-1.9417,-1.7201,-1.5366,-1.4158,-1.0171,-0.6873,-0.4585,-0.2627,-0.1789,-0.218,-0.3744,-0.525,-0.6702,-0.8211,-0.8885,-0.8885,-0.8885,-0.8885,-0.8992,-1.0457,-1.1919,-1.3426,-1.4824,-1.628,-1.7582,-1.7582,-1.7582,-1.7582,-1.7582,-1.7582,-1.7582,-1.7582,-1.7582,-1.7582,-1.7582,-1.7582,-1.7582,-1.7582,-1.7582,-1.7582,-1.7582,-1.7582,-1.7582,-1.7582,-1.7582,-1.7582,-1.7582,-1.7582,-1.7582,-1.7582,-1.7582,-1.7582,-1.7582,-1.7582,-1.7582,-1.7582,-1.7582,-1.7582,-1.7582,-1.7582,-1.7582,-1.7582,-1.7582,-1.7582,-1.7582,-1.7582,-1.7514,-1.7226,-1.6998,-1.67,-1.6413,-1.6393,-1.6486,-1.67,-1.6707,-1.6707,-1.6707,-1.65,-1.6353,-1.6321,-1.6052,-1.5912,-1.5784,-1.5784,-1.5784,-1.1645,-1.116,-1.0781,-0.9316,-0.8937,-0.8885,-0.8885,-1.008,-1.1645,-1.3317,-1.4905,-1.6484,-1.8176,-1.8223,-1.7975,-1.7975,-1.7789,0.0,0.0,-1.7602,-1.7722,-1.8036,-1.862,-1.9082,-1.9383,-1.9098,-1.9058,-1.9403,-1.6199,-1.4212,-1.4102,-0.8326,-0.485,-0.4531,-0.1623,-0.0784,-0.218,-0.3744,-0.525,-0.6702,-0.8211,-0.8885,-0.8885,-0.8885,-0.8885,-0.8992,-1.0457,-1.1919,-1.3426,-1.4824,-1.628,-1.7582,-1.7582,-1.7582,-1.7582,-1.7582,-1.7582,-1.7582,-1.7582,-1.7582,-1.7582,-1.7582,-1.7582,-1.7582,-1.7582,-1.7582,-1.7582,-1.7582,-1.7582,-1.7582,-1.7582,-1.7582,-1.7582,-1.7582,-1.7582,-1.7582,-1.7582,-1.7582,-1.7582,-1.7582,-1.7582,-1.7582,-1.7582,-1.7582,-1.7582,-1.7582,-1.7582,-1.7582,-1.7582,-1.7582,-1.7582,-1.7582,-1.7582,-1.7514,-1.7226,-1.7192,-1.7058,-1.6707,-1.6693,-1.6693,-1.6707,-1.6707,-1.6707,-1.6707,-1.6693,-1.6553,-1.6321,-1.6308,-1.6112,-1.5784,-1.5784,-1.5784,-0.982,-0.9644,-0.9537,-0.9047,-0.8885,-0.8885,-0.8885,-1.0025,-1.159,-1.3327,-1.404,-1.512,-1.7672,-1.7219,-1.6755,-1.7609,-1.7649,-1.7582,0.0,-1.7582,-1.7695,-1.7989,-1.8557,-1.8811,-1.8517,-1.8751,-1.8965,-1.9065,-1.6822,-1.5088,-1.4148,-1.0008,-0.6714,-0.4585,-0.2516,-0.218,-0.3688,-0.4247,-0.5753,-0.8156,-0.8657,-0.8885,-0.8885,-0.8885,-0.8885,-0.9047,-1.1483,-1.2837,-1.348,-1.5849,-1.7147,-1.7582,-1.7582,-1.7582,-1.7582,-1.7582,-1.7582,-1.7582,-1.7582,-1.7582,-1.7582,-1.7582,-1.7582,-1.7582,-1.7582,-1.7582,-1.7582,-1.7582,-1.7582,-1.7582,-1.7582,-1.7582,-1.7582,-1.7582,-1.7582,-1.7582,-1.7582,-1.7582,-1.7582,-1.7582,-1.7582,-1.7582,-1.7582,-1.7582,-1.7582,-1.7582,-1.7582,-1.7582,-1.7582,-1.7582,-1.7582,-1.7582,-1.7582,-1.7542,-1.7442,-1.7313,-1.7159,-1.7058,-1.7052,-1.7088,-1.7281,-1.7288,-1.7288,-1.7288,-1.7101,-1.7005,-1.6904,-1.6509,-1.6219,-1.6119,-1.5919,-1.5784,-0.8885,-0.8885,-0.8885,-0.8885,-0.8885,-0.8895,-0.9001,-0.9728,-1.0925,-1.2669,-1.2941,-1.3669,-1.6178,-1.6155,-1.6036,-1.6842,-1.7324,-1.7582,0.0,-1.7582,-1.7649,-1.7836,-1.8303,-1.8448,-1.8175,-1.8395,-1.8657,-1.8764,-1.7005,-1.5384,-1.403,-1.0884,-0.7679,-0.4583,-0.3017,-0.2961,-0.447,-0.4526,-0.5957,-0.8804,-0.8804,-0.8828,-0.8777,-0.8777,-0.8991,-0.958,-1.2096,-1.3464,-1.4114,-1.6567,-1.7582,-1.7582,-1.7582,-1.7582,-1.7582,-1.7582,-1.7582,-1.7582,-1.7582,-1.7582,-1.7582,-1.7582,-1.7582,-1.7582,-1.7582,-1.7582,-1.7582,-1.7582,-1.7582,-1.7582,-1.7582,-1.7582,-1.7582,-1.7582,-1.7582,-1.7582,-1.7582,-1.7582,-1.7582,-1.7582,-1.7582,-1.7582,-1.7582,-1.7582,-1.7582,-1.7582,-1.7582,-1.7582,-1.7582,-1.7582,-1.7582,-1.7582,-1.7582,-1.7582,-1.7582,-1.746,-1.7353,-1.7353,-1.7353,-1.744,-1.7575,-1.7582,-1.7582,-1.7582,-1.7454,-1.7306,-1.7199,-1.6817,-1.6529,-1.6266,-1.6079,-1.5925]}]]